[[{"header":{"parameterUnit":"m.s-1","parameterCategory":1,"la1":30.6,"la2":28.766,"lo1":-90.7593,"lo2":-88.6598,"dy":0.0162,"dx":0.0183,"nx":116,"ny":114,"refTime":"2023-07-14T12:00:00:Z","depth":0,"parameterNumber":2,"parameterNumberName":"U-component_of_WINDS"},"data":[0.0,0.0,0.0,0.0,0.0,0.0,0.0,0.0,0.0,0.0,0.0,0.0,0.0,0.0,0.0,0.0,0.0,0.0,0.0,0.0,0.0,0.0,0.0,0.0,0.0,0.0,0.0,0.0,0.0,0.0,0.0,0.0,0.0,0.0,0.0,0.0,0.0,0.0,0.0,0.0,0.0,0.0,0.0,0.0,0.0,0.0,0.0,0.0,0.0,0.0,0.0,0.0,0.0,0.0,0.0,0.0,0.0,0.0,0.0,0.0,0.0,0.0,0.0,0.0,0.0,0.0,0.0,0.0,0.0,0.0,0.0,0.0,0.0,0.0,0.0,0.0,0.0,0.0,0.0,0.0,0.0,0.0,0.0,0.0,0.0,0.0,0.0,0.0,0.0,0.0,0.0,0.0,0.0,0.0,0.0,0.0,0.0,0.0,0.0,0.0,0.0,0.0,0.0,0.0,0.0,0.0,0.0,0.0,0.0,0.0,0.0,0.0,0.0,0.0,0.0,0.0,0.0,0.0,0.0,0.0,0.0,0.0,0.0,0.0,0.0,0.0,0.0,0.0,0.0,0.0,0.0,0.0,0.0,0.0,0.0,0.0,0.0,0.0,0.0,0.0,0.0,0.0,0.0,0.0,0.0,0.0,0.0,0.0,0.0,0.0,0.0,0.0,0.0,0.0,0.0,0.0,0.0,0.0,0.0,0.0,0.0,0.0,0.0,0.0,0.0,0.0,0.0,0.0,0.0,0.0,0.0,0.0,0.0,0.0,0.0,0.0,0.0,0.0,0.0,0.0,0.0,0.0,0.0,0.0,0.0,0.0,0.0,0.0,0.0,0.0,0.0,0.0,0.0,0.0,0.0,0.0,0.0,0.0,0.0,0.0,0.0,0.0,0.0,0.0,0.0,0.0,0.0,0.0,0.0,0.0,0.0,0.0,0.0,0.0,0.0,0.0,0.0,0.0,0.0,0.0,0.0,0.0,0.0,0.0,0.0,0.0,0.0,0.0,0.0,0.0,0.0,0.0,0.0,0.0,0.0,0.0,0.0,0.0,0.0,0.0,0.0,0.0,0.0,0.0,0.0,0.0,0.0,0.0,0.0,0.0,0.0,0.0,0.0,0.0,0.0,0.0,0.0,0.0,0.0,0.0,0.0,0.0,0.0,0.0,0.0,0.0,0.0,0.0,0.0,0.0,0.0,0.0,0.0,0.0,0.0,0.0,0.0,0.0,0.0,0.0,0.0,0.0,0.0,0.0,0.0,0.0,0.0,0.0,0.0,0.0,0.0,0.0,0.0,0.0,0.0,0.0,0.0,0.0,0.0,0.0,0.0,0.0,0.0,0.0,0.0,0.0,0.0,0.0,0.0,0.0,0.0,0.0,0.0,0.0,0.0,0.0,0.0,0.0,0.0,0.0,0.0,0.0,0.0,0.0,0.0,0.0,0.0,0.0,0.0,0.0,0.0,0.0,0.0,0.0,0.0,0.0,0.0,0.0,0.0,0.0,0.0,0.0,0.0,0.0,0.0,0.0,0.0,0.0,0.0,0.0,0.0,0.0,0.0,0.0,0.0,0.0,0.0,0.0,0.0,0.0,0.0,0.0,0.0,0.0,0.0,0.0,0.0,0.0,0.0,0.0,0.0,0.0,0.0,0.0,0.0,0.0,0.0,0.0,0.0,0.0,0.0,0.0,0.0,0.0,0.0,0.0,0.0,0.0,0.0,0.0,0.0,0.0,0.0,0.0,0.0,0.0,0.0,0.0,0.0,0.0,0.0,0.0,0.0,0.0,0.0,0.0,0.0,0.0,0.0,0.0,0.0,0.0,0.0,0.0,0.0,0.0,0.0,0.0,0.0,0.0,0.0,0.0,0.0,0.0,0.0,0.0,0.0,0.0,0.0,0.0,0.0,0.0,0.0,0.0,0.0,0.0,0.0,0.0,0.0,0.0,0.0,0.0,0.0,0.0,0.0,0.0,0.0,0.0,0.0,0.0,0.0,0.0,0.0,0.0,0.0,0.0,0.0,0.0,0.0,0.0,0.0,0.0,0.0,0.0,0.0,0.0,0.0,0.0,0.0,0.0,0.0,0.0,0.0,0.0,0.0,0.0,0.0,0.0,0.0,0.0,0.0,0.0,0.0,0.0,0.0,0.0,0.0,0.0,0.0,0.0,0.0,0.0,0.0,0.0,0.0,0.0,0.0,0.0,0.0,0.0,0.0,0.0,0.0,0.0,0.0,0.0,0.0,0.0,0.0,0.0,0.0,0.0,0.0,0.0,0.0,0.0,0.0,0.0,0.0,0.0,0.0,0.0,0.0,0.0,0.0,0.0,0.0,0.0,0.0,0.0,0.0,0.0,0.0,0.0,0.0,0.0,0.0,0.0,0.0,0.0,0.0,0.0,0.0,0.0,0.0,0.0,0.0,0.0,0.0,0.0,0.0,0.0,0.0,0.0,0.0,0.0,0.0,0.0,0.0,0.0,0.0,0.0,0.0,0.0,0.0,0.0,0.0,0.0,0.0,0.0,0.0,0.0,0.0,0.0,0.0,0.0,0.0,0.0,0.0,0.0,0.0,0.0,0.0,0.0,0.0,0.0,0.0,0.0,0.0,0.0,0.0,0.0,0.0,0.0,0.0,0.0,0.0,0.0,0.0,0.0,0.0,0.0,0.0,0.0,0.0,0.0,0.0,0.0,0.0,0.0,0.0,0.0,0.0,0.0,0.0,0.0,0.0,0.0,0.0,0.0,0.0,0.0,0.0,0.0,0.0,0.0,0.0,0.0,0.0,0.0,0.0,0.0,0.0,0.0,0.0,0.0,0.0,0.0,0.0,0.0,0.0,0.0,0.0,0.0,0.0,0.0,0.0,0.0,0.0,0.0,0.0,0.0,0.0,0.0,0.0,0.0,0.0,0.0,0.0,0.0,0.0,0.0,0.0,0.0,0.0,0.0,0.0,0.0,0.0,0.0,0.0,0.0,0.0,0.0,0.0,0.0,0.0,0.0,0.0,0.0,0.0,0.0,0.0,0.0,0.0,0.0,0.0,0.0,0.0,0.0,0.0,0.0,0.0,0.0,0.0,0.0,0.0,0.0,0.0,0.0,0.0,0.0,0.0,0.0,0.0,0.0,0.0,0.0,0.0,0.0,0.0,0.0,0.0,0.0,0.0,0.0,0.0,0.0,0.0,0.0,0.0,0.0,0.0,0.0,0.0,0.0,0.0,0.0,0.0,0.0,0.0,0.0,0.0,0.0,0.0,0.0,0.0,0.0,0.0,0.0,0.0,0.0,0.0,0.0,0.0,0.0,0.0,0.0,0.0,0.0,0.0,0.0,0.0,0.0,0.0,0.0,0.0,0.0,0.0,0.0,0.0,0.0,0.0,0.0,0.0,0.0,0.0,0.0,0.0,0.0,0.0,0.0,0.0,0.0,0.0,0.0,0.0,0.0,0.0,0.0,0.0,0.0,0.0,0.0,0.0,0.0,0.0,0.0,0.0,0.0,0.0,0.0,0.0,0.0,0.0,0.0,0.0,0.0,0.0,0.0,0.0,0.0,0.0,0.0,0.0,0.0,0.0,0.0,0.0,0.0,0.0,0.0,0.0,0.0,0.0,0.0,0.0,0.0,0.0,0.0,0.0,0.0,0.0,0.0,0.0,0.0,0.0,0.0,0.0,0.0,0.0,0.0,0.0,0.0,0.0,0.0,0.0,0.0,0.0,0.0,0.0,0.0,0.0,0.0,0.0,0.0,0.0,0.0,0.0,0.0,0.0,0.0,0.0,0.0,0.0,0.0,0.0,0.0,0.0,0.0,0.0,0.0,0.0,0.0,0.0,0.0,0.0,0.0,0.0,0.0,0.0,0.0,0.0,0.0,0.0,0.0,0.0,0.0,0.0,0.0,0.0,0.0,0.0,0.0,0.0,0.0,0.0,0.0,0.0,0.0,0.0,0.0,0.0,0.0,0.0,0.0,0.0,0.0,0.0,0.0,0.0,0.0,0.0,0.0,0.0,0.0,0.0,0.0,0.0,0.0,0.0,0.0,0.0,0.0,0.0,0.0,0.0,0.0,0.0,0.0,0.0,0.0,0.0,0.0,0.0,0.0,0.0,0.0,0.0,0.0,0.0,0.0,0.0,0.0,0.0,0.0,0.0,0.0,0.0,0.0,0.0,0.0,0.0,0.0,0.0,0.0,0.0,0.0,0.0,0.0,0.0,0.0,0.0,0.0,0.0,0.0,0.0,0.0,0.0,0.0,0.0,0.0,0.0,0.0,0.0,0.0,0.0,0.0,0.0,0.0,0.0,0.0,0.0,0.0,0.0,0.0,0.0,0.0,0.0,0.0,0.0,0.0,0.0,0.0,0.0,0.0,0.0,0.0,0.0,0.0,0.0,0.0,0.0,0.0,0.0,0.0,0.0,0.0,0.0,0.0,0.0,0.0,0.0,0.0,0.0,0.0,0.0,0.0,0.0,0.0,0.0,0.0,0.0,0.0,0.0,0.0,0.0,0.0,0.0,0.0,0.0,0.0,0.0,0.0,0.0,0.0,0.0,0.0,0.0,0.0,0.0,0.0,0.0,0.0,0.0,0.0,0.0,0.0,0.0,0.0,0.0,0.0,0.0,0.0,0.0,0.0,0.0,0.0,0.0,0.0,0.0,0.0,0.0,0.0,0.0,0.0,0.0,0.0,0.0,0.0,0.0,0.0,0.0,0.0,0.0,0.0,0.0,0.0,0.0,0.0,0.0,0.0,0.0,0.0,0.0,0.0,0.0,0.0,0.0,0.0,0.0,0.0,0.0,0.0,0.0,0.0,0.0,0.0,0.0,0.0,0.0,0.0,0.0,0.0,0.0,0.0,0.0,0.0,0.0,0.0,0.0,0.0,0.0,0.0,0.0,0.0,0.0,0.0,0.0,0.0,0.0,0.0,0.0,0.0,0.0,0.0,0.0,0.0,0.0,0.0,0.0,0.0,0.0,0.0,0.0,0.0,0.0,0.0,0.0,0.0,0.0,0.0,0.0,0.0,0.0,0.0,0.0,0.0,0.0,0.0,0.0,0.0,0.0,0.0,0.0,0.0,0.0,0.0,0.0,0.0,0.0,0.0,0.0,0.0,0.0,0.0,0.0,0.0,0.0,0.0,0.0,0.0,0.0,0.0,0.0,0.0,0.0,0.0,0.0,0.0,0.0,0.0,0.0,0.0,0.0,0.0,0.0,0.0,0.0,0.0,0.0,0.0,0.0,0.0,0.0,0.0,0.0,0.0,0.0,0.0,0.0,0.0,0.0,0.0,0.0,0.0,0.0,0.0,0.0,0.0,0.0,0.0,0.0,0.0,0.0,0.0,0.0,0.0,0.0,0.0,0.0,0.0,0.0,0.0,0.0,0.0,0.0,0.0,0.0,0.0,0.0,0.0,0.0,0.0,0.0,0.0,0.0,0.0,0.0,0.0,0.0,0.0,0.0,0.0,0.0,0.0,0.0,0.0,0.0,0.0,0.0,0.0,0.0,0.0,0.0,0.0,0.0,0.0,0.0,0.0,0.0,0.0,0.0,0.0,0.0,0.0,0.0,0.0,0.0,0.0,0.0,0.0,0.0,0.0,0.0,0.0,0.0,0.0,0.0,0.0,0.0,0.0,0.0,0.0,0.0,0.0,0.0,0.0,0.0,0.0,0.0,0.0,0.0,0.0,0.0,0.0,0.0,0.0,0.0,0.0,0.0,0.0,0.0,0.0,0.0,0.0,0.0,0.0,0.0,0.0,0.0,0.0,0.0,0.0,0.0,0.0,0.0,0.0,0.0,0.0,0.0,0.0,0.0,0.0,0.0,0.0,0.0,0.0,0.0,0.0,0.0,0.0,0.0,0.0,0.0,0.0,0.0,0.0,0.0,0.0,0.0,0.0,0.0,0.0,0.0,0.0,0.0,0.0,0.0,0.0,0.0,0.0,0.0,0.0,0.0,0.0,0.0,0.0,0.0,0.0,0.0,0.0,0.0,0.0,0.0,0.0,0.0,0.0,0.0,0.0,0.0,0.0,0.0,0.0,0.0,0.0,0.0,0.0,0.0,0.0,0.0,0.0,0.0,0.0,0.0,0.0,0.0,0.0,0.0,0.0,-0.571,0.0,0.0,0.0,0.0,0.0,0.0,0.0,0.0,0.0,0.0,0.0,0.0,0.0,0.0,0.0,0.0,0.0,0.0,0.0,0.0,0.0,0.0,0.0,0.0,0.0,0.0,0.0,0.0,0.0,0.0,0.0,0.0,0.0,0.0,0.0,0.0,0.0,0.0,0.0,0.0,0.0,0.0,0.0,0.0,0.0,0.0,0.0,0.0,0.0,0.0,0.0,0.0,0.0,0.0,0.0,0.0,0.0,0.0,0.0,0.0,0.0,0.0,0.0,0.0,0.0,0.0,0.0,0.0,0.0,0.0,0.0,0.0,0.0,0.0,0.0,0.0,0.0,0.0,0.0,0.0,0.0,0.0,0.0,0.0,0.0,0.0,0.0,0.0,0.0,0.0,0.0,0.0,0.0,0.0,0.0,0.0,0.0,0.0,0.0,0.0,0.0,0.0,0.0,0.0,0.0,0.0,0.0,0.0,0.0,0.0,0.0,0.0,0.0,0.0,0.0,0.0,-0.5903,0.0,0.0,0.0,0.0,0.0,0.0,0.0,0.0,0.0,0.0,0.0,0.0,0.0,0.0,0.0,0.0,0.0,0.0,0.0,0.0,0.0,0.0,0.0,0.0,0.0,0.0,0.0,0.0,0.0,0.0,0.0,0.0,0.0,0.0,0.0,0.0,0.0,0.0,0.0,0.0,0.0,0.0,0.0,0.0,0.0,0.0,0.0,0.0,0.0,0.0,0.0,0.0,0.0,0.0,0.0,0.0,0.0,0.0,0.0,0.0,0.0,0.0,0.0,0.0,0.0,0.0,0.0,0.0,0.0,0.0,0.0,0.0,0.0,0.0,0.0,0.0,0.0,0.0,0.0,0.0,0.0,0.0,0.0,0.0,0.0,0.0,0.0,0.0,0.0,0.0,0.0,0.0,0.0,0.0,0.0,0.0,0.0,0.0,0.0,0.0,0.0,0.0,0.0,0.0,0.0,0.0,0.0,0.0,-0.801,-0.8,-0.7785,-0.7892,-0.7605,-0.6986,-0.788,-0.8057,-0.7658,-0.728,0.0,0.0,0.0,0.0,0.0,0.0,0.0,0.0,0.0,0.0,0.0,0.0,0.0,0.0,0.0,0.0,0.0,0.0,0.0,0.0,0.0,0.0,0.0,0.0,0.0,0.0,0.0,0.0,0.0,0.0,0.0,0.0,0.0,0.0,0.0,0.0,0.0,0.0,-0.8885,-0.9233,-0.963,-0.9929,-0.8768,0.0,0.0,0.0,0.0,0.0,0.0,0.0,0.0,0.0,0.0,0.0,0.0,0.0,0.0,0.0,0.0,0.0,0.0,0.0,0.0,0.0,0.0,0.0,0.0,0.0,0.0,0.0,0.0,0.0,0.0,0.0,0.0,0.0,0.0,0.0,0.0,0.0,0.0,0.0,0.0,0.0,0.0,0.0,-0.8087,-0.8823,0.0,0.0,0.0,0.0,0.0,0.0,0.0,0.0,0.0,0.0,0.0,0.0,0.0,-0.642,-0.6871,-0.7875,-0.8693,-0.9232,-1.0097,-1.0673,-1.0883,-1.0949,-1.0863,-1.0731,-1.0332,0.0,-0.7478,-0.7046,0.0,0.0,0.0,0.0,0.0,0.0,0.0,0.0,0.0,0.0,0.0,0.0,0.0,0.0,0.0,0.0,0.0,0.0,0.0,0.0,0.0,0.0,0.0,0.0,0.0,0.0,0.0,0.0,0.0,0.0,0.0,0.0,0.0,0.0,0.0,0.0,-0.8886,-0.9636,-1.0327,-1.0374,-1.0734,-1.1262,-1.0588,-1.0108,-0.9758,-0.96,0.0,0.0,0.0,0.0,0.0,0.0,0.0,0.0,0.0,0.0,0.0,0.0,0.0,0.0,0.0,0.0,0.0,0.0,0.0,0.0,0.0,0.0,0.0,0.0,0.0,0.0,0.0,0.0,0.0,0.0,0.0,0.0,0.0,0.0,0.0,0.0,0.0,0.0,0.0,-0.7503,-0.8047,-0.8159,-0.7951,-0.7656,0.0,0.0,0.0,0.0,0.0,0.0,0.0,0.0,0.0,-0.7703,-0.8257,-0.8956,-0.9646,-1.0184,-1.0586,-1.0725,-1.1116,-1.1309,-1.1299,-1.1299,-1.1299,-1.1217,-1.0961,-1.0432,-0.9705,-0.9138,-0.8872,-0.8727,0.0,0.0,0.0,0.0,-0.7182,-0.7699,0.0,0.0,0.0,0.0,0.0,0.0,0.0,0.0,0.0,0.0,0.0,0.0,0.0,0.0,0.0,-0.7105,0.0,0.0,0.0,0.0,0.0,0.0,0.0,0.0,0.0,0.0,0.0,0.0,-0.985,-1.0569,-1.1502,-1.1377,-1.1674,-1.2262,-1.2149,-1.1688,-1.0927,-1.0614,-1.0408,0.0,0.0,0.0,0.0,0.0,0.0,0.0,0.0,0.0,0.0,0.0,0.0,0.0,0.0,0.0,0.0,0.0,0.0,0.0,0.0,0.0,0.0,0.0,0.0,0.0,0.0,0.0,0.0,0.0,0.0,0.0,0.0,0.0,0.0,0.0,0.0,0.0,0.0,-0.766,-0.8081,-0.7955,-0.813,-0.8009,0.0,0.0,0.0,0.0,0.0,0.0,-0.8448,-0.8702,-0.9064,-0.9466,-1.0189,-1.0949,-1.1765,-1.1796,-1.1813,-1.1819,-1.1757,-1.1659,-1.1657,-1.1657,-1.1587,-1.1523,-1.1587,-1.1727,-1.1825,-1.1022,-1.038,-0.99,-0.9703,-0.9074,-0.8346,-0.8323,-0.8507,-0.8856,0.0,0.0,0.0,0.0,0.0,0.0,0.0,0.0,0.0,0.0,0.0,0.0,0.0,0.0,-0.7312,-0.7364,-0.7514,-0.7346,0.0,0.0,0.0,0.0,0.0,0.0,0.0,0.0,0.0,-1.0586,-1.0967,-1.1339,-1.1816,-1.2031,-1.2287,-1.253,-1.283,-1.2358,-1.1338,-1.1251,-1.1145,-1.0883,0.0,0.0,0.0,0.0,0.0,0.0,0.0,0.0,0.0,0.0,0.0,0.0,0.0,0.0,0.0,0.0,0.0,0.0,0.0,0.0,0.0,0.0,0.0,0.0,0.0,0.0,0.0,0.0,0.0,0.0,0.0,0.0,0.0,0.0,0.0,0.0,0.0,0.0,0.0,-0.9364,-0.9551,0.0,0.0,0.0,0.0,-0.9131,-0.953,-1.019,-1.1135,-1.0909,-1.1188,-1.2102,-1.1594,-1.1471,-1.1683,-1.1491,-1.1708,-1.2205,-1.2205,-1.2428,-1.2778,-1.2778,-1.2778,-1.2778,-1.2778,-1.2851,-1.2729,-1.1706,-1.1396,-1.1567,-1.0451,-1.0231,-1.0454,-0.9653,-0.9969,-1.085,0.0,0.0,0.0,0.0,0.0,0.0,0.0,0.0,0.0,0.0,0.0,0.0,0.0,-0.7452,-0.7829,-0.8015,-0.8474,-0.855,-0.8086,0.0,0.0,0.0,0.0,0.0,0.0,0.0,-0.9961,-1.082,-1.1366,-1.2011,-1.2764,-1.2873,-1.3278,-1.3941,-1.3878,-1.3664,-1.3325,-1.2789,-1.2257,-1.1738,-1.1482,-1.0712,0.0,0.0,0.0,0.0,0.0,0.0,0.0,0.0,0.0,0.0,0.0,0.0,0.0,0.0,0.0,0.0,0.0,0.0,0.0,0.0,0.0,0.0,0.0,0.0,0.0,0.0,0.0,0.0,0.0,0.0,0.0,0.0,0.0,0.0,0.0,0.0,0.0,-0.893,-0.961,0.0,-0.944,-1.0047,-1.0434,-1.0479,-1.1065,-1.1445,-1.1444,-1.199,-1.222,-1.2116,-1.2395,-1.2571,-1.2642,-1.2499,-1.258,-1.2959,-1.2959,-1.3194,-1.3571,-1.3571,-1.3571,-1.3732,-1.3732,-1.3618,-1.3411,-1.297,-1.2641,-1.2221,-1.1938,-1.1737,-1.1501,-1.1186,-1.1345,-1.1647,0.0,0.0,0.0,0.0,0.0,0.0,0.0,0.0,0.0,0.0,0.0,-0.7425,-0.7281,-0.7795,-0.8254,-0.8566,-0.9072,-0.9152,-0.848,0.0,0.0,0.0,0.0,0.0,0.0,-1.0039,-1.0773,-1.1531,-1.2074,-1.2739,-1.34,-1.3659,-1.4052,-1.4478,-1.4404,-1.4338,-1.4304,-1.3819,-1.325,-1.2589,-1.2167,-1.1227,-1.0017,0.0,0.0,0.0,0.0,0.0,0.0,0.0,0.0,0.0,0.0,0.0,0.0,0.0,0.0,0.0,0.0,0.0,0.0,0.0,0.0,0.0,0.0,0.0,0.0,0.0,0.0,0.0,0.0,0.0,0.0,0.0,0.0,0.0,0.0,0.0,-0.9118,-0.9149,-1.0166,-1.0704,-1.0321,-1.1098,-1.1626,-1.1717,-1.2244,-1.2455,-1.227,-1.2763,-1.2999,-1.2811,-1.3096,-1.3333,-1.3522,-1.3283,-1.3237,-1.3439,-1.3369,-1.348,-1.3673,-1.3673,-1.3696,-1.3761,-1.3894,-1.381,-1.3544,-1.3754,-1.3453,-1.2987,-1.2942,-1.2648,-1.2291,-1.2291,-1.2291,-1.2291,0.0,0.0,0.0,0.0,0.0,0.0,0.0,0.0,0.0,0.0,-0.7612,-0.7851,-0.7962,-0.8238,-0.8524,-0.8889,-0.9215,-0.8961,-0.7905,-0.819,0.0,0.0,0.0,0.0,-1.0654,-1.0666,-1.1344,-1.2747,-1.3228,-1.354,-1.3683,-1.4382,-1.4495,-1.4156,-1.4371,-1.4305,-1.4156,-1.4371,-1.4023,-1.3363,-1.2406,-1.1607,-1.0779,0.0,0.0,0.0,0.0,0.0,0.0,0.0,0.0,0.0,0.0,0.0,0.0,0.0,0.0,0.0,0.0,0.0,0.0,0.0,0.0,0.0,0.0,0.0,0.0,0.0,0.0,0.0,0.0,0.0,0.0,0.0,0.0,0.0,-0.8159,-0.9243,-1.0179,-1.0358,-1.1361,-1.1929,-1.1587,-1.2004,-1.2488,-1.2798,-1.2968,-1.3248,-1.379,-1.3433,-1.3505,-1.4283,-1.3672,-1.3662,-1.413,-1.3738,-1.3502,-1.3516,-1.3292,-1.3227,-1.324,-1.324,-1.3073,-1.2896,-1.34,-1.3494,-1.3267,-1.3848,-1.3991,-1.3804,-1.3147,-1.2935,-1.2928,-1.2921,-1.2907,-1.29,0.0,0.0,0.0,0.0,0.0,0.0,0.0,0.0,0.0,0.0,-0.7391,-0.7679,-0.7524,-0.8047,-0.8662,-0.9366,-0.9396,-0.9324,-0.9169,0.0,0.0,0.0,0.0,0.0,-1.0947,-1.1713,-1.2501,-1.3297,-1.3619,-1.4136,-1.4773,-1.495,-1.5146,-1.5341,-1.5272,-1.5202,-1.5124,-1.4854,-1.4502,-1.4061,-1.3672,-1.2964,-1.2035,0.0,0.0,0.0,0.0,0.0,0.0,0.0,0.0,0.0,0.0,0.0,0.0,0.0,0.0,0.0,0.0,0.0,0.0,0.0,0.0,0.0,0.0,0.0,0.0,0.0,0.0,0.0,0.0,0.0,0.0,0.0,0.0,-0.991,-0.9874,-1.0418,-1.0939,-1.1262,-1.2081,-1.2529,-1.2459,-1.2877,-1.3193,-1.3281,-1.3579,-1.3755,-1.3918,-1.3543,-1.3504,-1.3823,-1.3286,-1.3175,-1.3648,-1.3406,-1.3539,-1.4072,-1.3911,-1.3954,-1.4324,-1.4324,-1.4275,-1.4199,-1.4289,-1.4193,-1.3784,-1.4164,-1.4068,-1.3702,-1.3614,-1.3611,-1.3537,-1.3313,-1.3089,-1.2865,0.0,0.0,0.0,0.0,0.0,0.0,0.0,0.0,0.0,0.0,-0.7425,-0.7696,-0.7507,-0.8031,-0.8744,-0.9549,-0.9452,-0.937,-0.9344,0.0,0.0,0.0,0.0,-1.0687,-1.1747,-1.2603,-1.3194,-1.3566,-1.417,-1.4654,-1.5146,-1.5239,-1.5435,-1.5655,-1.5426,-1.5355,-1.5355,-1.5141,-1.4877,-1.4735,-1.4393,-1.364,-1.2617,-1.237,-1.1751,-1.1014,-1.0998,-1.0891,-1.0729,-1.0269,0.0,0.0,0.0,0.0,0.0,0.0,0.0,0.0,0.0,0.0,0.0,0.0,0.0,0.0,0.0,0.0,0.0,0.0,0.0,0.0,0.0,0.0,0.0,0.0,-1.0345,-1.1009,-1.1247,-1.1441,-1.1706,-1.1992,-1.2516,-1.2906,-1.3186,-1.344,-1.3681,-1.3894,-1.4077,-1.4187,-1.4187,-1.3949,-1.3873,-1.4026,-1.3839,-1.3747,-1.3903,-1.3822,-1.3974,-1.431,-1.4145,-1.4158,-1.4412,-1.4412,-1.4337,-1.4234,-1.4487,-1.4426,-1.409,-1.4298,-1.424,0.0,0.0,0.0,0.0,0.0,-1.3516,-1.3345,0.0,0.0,0.0,0.0,0.0,0.0,0.0,0.0,0.0,0.0,0.0,-0.7807,-0.7831,-0.8199,-0.8744,-0.9549,-0.9426,-0.9149,0.0,0.0,0.0,-1.053,-1.0643,-1.1361,-1.2756,-1.3262,-1.3599,-1.3766,-1.4756,-1.5172,-1.5078,-1.5345,-1.5505,-1.5426,-1.5275,-1.5204,-1.5204,-1.5204,-1.5133,-1.5133,-1.4713,-1.3938,-1.2905,-1.2797,-1.239,-1.1922,-1.1791,-1.1725,-1.171,-1.1524,0.0,0.0,0.0,0.0,0.0,0.0,0.0,0.0,0.0,0.0,0.0,0.0,0.0,0.0,0.0,0.0,0.0,0.0,0.0,0.0,0.0,0.0,0.0,0.0,-1.1376,-1.2037,-1.2198,-1.2237,-1.2329,-1.255,-1.286,-1.3223,-1.3769,-1.3722,-1.3921,-1.4443,-1.4501,-1.4523,-1.4523,0.0,0.0,0.0,0.0,-1.4698,-1.4529,-1.4622,-1.4621,-1.4453,-1.4247,-1.4188,-1.4188,-1.4188,-1.4021,-1.3768,-1.4295,-1.4355,-1.4108,-1.4402,-1.4536,-1.4543,-1.4249,-1.4135,-1.4128,-1.4095,-1.4088,-1.4082,0.0,0.0,0.0,0.0,0.0,0.0,0.0,0.0,0.0,-0.7505,-0.7689,-0.7887,-0.8084,-0.8286,-0.8786,-0.9686,-0.9107,-0.8708,0.0,0.0,-0.8996,-1.0556,-1.0989,-1.191,-1.3314,-1.3661,-1.4187,-1.4858,-1.501,-1.5162,-1.5396,-1.5621,-1.5576,-1.5275,-1.5355,-1.5284,-1.4935,-1.4935,-1.4856,-1.4713,-1.4641,-1.4385,-1.4017,-1.3671,-1.3412,-1.3252,-1.3179,-1.3179,-1.3092,-1.2544,-1.2361,-1.23,-1.1989,0.0,0.0,0.0,0.0,0.0,0.0,0.0,0.0,0.0,0.0,0.0,0.0,0.0,0.0,0.0,0.0,0.0,0.0,0.0,0.0,-1.1434,-1.1888,-1.2248,-1.2462,-1.2648,-1.2804,-1.3187,-1.3393,-1.3784,-1.4263,-1.4129,-1.4151,-1.4465,-1.454,-1.4604,-1.4604,-1.4275,-1.4114,-1.4114,-1.377,-1.3797,-1.4116,-1.4416,-1.4609,-1.4795,0.0,0.0,-1.4796,-1.4796,-1.4629,-1.4355,-1.4469,-1.4355,-1.4108,-1.4402,-1.4663,-1.485,-1.4549,-1.4436,-1.4409,-1.4175,-1.4088,-1.4055,0.0,0.0,0.0,0.0,0.0,0.0,0.0,0.0,0.0,0.0,-0.7429,-0.7644,-0.7878,-0.7973,-0.8365,-0.9222,-0.899,0.0,0.0,-0.9271,-0.9898,-1.1336,-1.1651,-1.2419,-1.3653,-1.3924,-1.4387,-1.5078,-1.5204,-1.532,-1.5505,-1.5576,-1.5497,-1.5204,-1.5275,-1.5213,-1.507,-1.4864,-1.4713,-1.4569,-1.4497,-1.4466,-1.4379,-1.423,-1.419,-1.4109,-1.4109,-1.4109,-1.4061,-1.3719,-1.36,-1.36,-1.34,-1.3165,-1.268,0.0,0.0,0.0,0.0,0.0,0.0,0.0,0.0,0.0,0.0,0.0,0.0,0.0,0.0,-1.0625,0.0,0.0,-1.1704,-1.1899,-1.2304,-1.267,-1.2757,-1.303,-1.321,-1.3203,-1.3418,-1.379,-1.4186,-1.4294,-1.4438,-1.4603,-1.476,-1.4764,-1.4674,-1.4427,-1.4275,-1.4123,-1.4255,-1.4328,-1.4412,-1.469,-1.4994,-1.5143,-1.5053,-1.4963,-1.4963,-1.4963,-1.4883,-1.4743,-1.4743,-1.4832,-1.4964,-1.529,-1.5711,-1.5972,-1.5728,-1.5308,-1.4743,-1.4743,-1.4743,-1.4743,0.0,0.0,0.0,0.0,0.0,0.0,0.0,0.0,0.0,0.0,-0.7244,-0.7347,-0.7658,-0.7607,-0.7807,0.0,0.0,0.0,0.0,-0.9893,-1.0647,-1.2108,-1.2111,-1.263,-1.3815,-1.4007,-1.4371,-1.495,-1.525,-1.5426,-1.5363,-1.5426,-1.5284,-1.5062,-1.5204,-1.5133,-1.5062,-1.4713,-1.4569,-1.4489,-1.4353,-1.4353,-1.4353,-1.4497,-1.4569,-1.4569,-1.4569,-1.4569,-1.4569,-1.4569,-1.4569,-1.4569,-1.4569,-1.4569,-1.4323,-1.2703,-1.2806,0.0,0.0,0.0,0.0,0.0,0.0,0.0,0.0,0.0,-1.0526,-1.1541,-1.1312,-1.1088,-1.1861,-1.2093,-1.2262,-1.2571,-1.2946,-1.3223,-1.3202,-1.3613,-1.3851,-1.3453,-1.359,-1.3787,-1.409,-1.437,-1.4639,-1.472,-1.4824,-1.4908,-1.465,-1.465,-1.4566,-1.4385,-1.4774,-1.4977,-1.4872,-1.5171,-1.5372,-1.5478,-1.5297,-1.5251,-1.5304,-1.5487,-1.5454,-1.5399,-1.5422,-1.5666,-1.6109,-1.641,-1.672,-1.6941,-1.6882,-1.6159,-1.5363,-1.5626,-1.5756,-1.579,0.0,0.0,0.0,0.0,0.0,0.0,0.0,0.0,0.0,0.0,0.0,0.0,0.0,0.0,0.0,0.0,0.0,0.0,-0.9021,-0.9487,-1.041,-1.1958,-1.172,-1.2222,-1.3617,-1.3933,-1.4313,-1.4753,-1.5101,-1.5141,-1.4935,-1.5133,-1.5062,-1.4713,-1.5062,-1.4919,-1.4497,-1.4569,-1.4425,-1.4129,-1.4129,-1.4129,-1.4129,-1.4129,-1.4346,-1.4569,-1.4497,-1.4497,-1.4569,-1.4425,-1.4497,-1.4569,-1.4569,-1.4569,-1.4418,-1.3298,0.0,-1.3421,-1.1752,-1.1209,-1.1061,-1.103,-1.1719,-1.2213,0.0,0.0,-1.3307,-1.3004,-1.3302,-1.3765,-1.4144,-1.4286,-1.4235,-1.4082,-1.4126,-1.4097,-1.3938,-1.445,-1.4816,-1.4809,-1.4612,-1.4519,-1.4573,-1.4518,-1.4531,-1.465,-1.4566,-1.4482,-1.4482,-1.4398,-1.4423,-1.4495,-1.4569,-1.4737,-1.5006,-1.5295,-1.5491,-1.5785,-1.6019,-1.6259,-1.6513,-1.7007,-1.7058,-1.6882,-1.716,-1.7216,-1.7287,-1.7022,-1.6926,-1.6934,-1.6639,-1.6507,-1.6366,-1.687,-1.7088,-1.7095,0.0,0.0,0.0,0.0,0.0,0.0,0.0,0.0,0.0,0.0,0.0,0.0,0.0,0.0,0.0,0.0,0.0,0.0,-0.8895,-0.9525,-1.0404,-1.1497,-1.1567,-1.2141,-1.3256,-1.3444,-1.3802,-1.4438,-1.4657,-1.4689,-1.4628,-1.5035,-1.4991,-1.4641,-1.4927,-1.4935,-1.4649,-1.4577,-1.4425,-1.4346,-1.4201,-1.3943,-1.3782,-1.3782,-1.3801,-1.37,-1.3769,-1.3892,0.0,0.0,-1.3826,-1.3807,-1.4212,-1.4061,-1.3683,-1.3036,-1.3074,0.0,-1.201,-1.1888,0.0,0.0,-1.229,-1.2871,-1.2795,-1.3454,-1.4009,-1.4007,-1.4317,-1.4637,-1.4576,-1.4556,-1.4413,0.0,-1.4245,-1.4246,-1.4513,-1.4996,-1.5322,-1.5256,-1.5286,-1.5146,-1.4871,-1.5133,-1.5253,-1.4817,-1.5051,-1.5151,-1.4977,-1.5155,-1.5405,-1.5644,-1.6005,-1.6437,-1.6933,-1.7067,-1.7287,-1.7584,-1.7541,-1.7591,-1.7711,-1.791,-1.7937,-1.7905,-1.823,-1.8452,-1.8444,-1.8601,-1.865,-1.8635,-1.8488,-1.8434,-1.8396,-1.7442,-1.7055,-1.7077,0.0,0.0,0.0,0.0,0.0,0.0,0.0,0.0,0.0,0.0,0.0,0.0,0.0,0.0,0.0,0.0,0.0,0.0,0.0,-0.9806,-1.0548,-1.1231,-1.1516,-1.1939,-1.2617,-1.2835,-1.3196,-1.3778,-1.4028,-1.4179,-1.4187,-1.4576,-1.4628,-1.4347,-1.4433,-1.4489,-1.4506,-1.4221,-1.4142,-1.4142,-1.392,-1.3658,-1.3377,-1.3377,-1.3233,-1.3002,-1.3068,-1.3131,0.0,0.0,-1.3139,-1.3036,-1.3595,-1.3477,-1.3082,-1.2825,-1.2655,-1.2486,-1.2325,0.0,0.0,-1.2523,-1.2906,-1.3393,-1.3909,-1.432,-1.4622,-1.4878,-1.5203,-1.5335,-1.4994,-1.4797,-1.468,-1.4538,-1.4505,-1.4659,-1.5159,-1.5591,-1.5848,-1.5658,-1.5794,-1.5659,-1.508,-1.5529,-1.5636,-1.5079,-1.5434,-1.5604,-1.5526,-1.584,-1.6301,-1.672,-1.7272,-1.7838,-1.8412,-1.8412,-1.8574,-1.8789,-1.8555,-1.8596,-1.8684,-1.8777,-1.8977,-1.9077,-1.9453,-1.9651,-1.9644,-1.9945,-2.0011,-2.0003,-1.9908,-1.9868,-1.9676,-1.8262,-1.7717,-1.7732,0.0,0.0,0.0,0.0,0.0,0.0,0.0,0.0,0.0,0.0,0.0,0.0,0.0,0.0,0.0,0.0,0.0,0.0,0.0,-1.014,-1.0905,-1.1391,-1.1379,-1.1442,-1.1575,-1.2278,-1.2645,-1.2653,-1.3267,-1.36,-1.36,-1.3608,-1.3616,-1.3616,-1.3514,-1.3499,-1.3514,-1.3382,-1.3234,-1.3023,-1.3023,-1.2972,-1.2811,-1.2811,-1.2808,-1.277,-1.2569,0.0,0.0,0.0,-1.2575,-1.2645,-1.2969,-1.2838,0.0,-1.2928,-1.2241,0.0,0.0,0.0,-1.1688,-1.3589,-1.4034,-1.4283,-1.499,-1.5411,-1.565,-1.5658,-1.5944,-1.6079,-1.5729,-1.565,-1.5547,-1.5237,-1.5443,-1.5658,-1.569,-1.6285,-1.6514,-1.6182,-1.6206,-1.6014,0.0,-1.5343,-1.5301,-1.5357,-1.5394,-1.5533,-1.5848,-1.6271,-1.675,-1.739,-1.7713,-1.8052,-1.8412,-1.8412,-1.8574,-1.8789,-1.8782,-1.8942,-1.925,-1.9849,-2.0364,-2.079,-2.0893,-2.0893,-2.0861,-2.0519,-2.0377,-2.0345,-1.9995,-1.9868,-1.986,-1.9828,-1.9812,-1.9773,0.0,0.0,0.0,0.0,0.0,0.0,0.0,0.0,0.0,0.0,0.0,0.0,0.0,0.0,0.0,0.0,0.0,0.0,0.0,-0.952,-1.0216,-1.0922,-1.1316,-1.1527,-1.1426,-1.1793,-1.1985,-1.1853,-1.2261,-1.2841,-1.3684,-1.3324,-1.3566,-1.437,-1.3792,-1.379,-1.4221,-1.4154,-1.4087,-1.402,-1.3759,-1.3294,-1.2626,-1.1989,-1.1622,-1.1426,0.0,0.0,0.0,0.0,0.0,0.0,-1.159,-1.1412,-1.1092,-1.1287,-1.1939,-1.2589,0.0,0.0,-1.3296,-1.4071,-1.4528,-1.4943,-1.5404,-1.5777,-1.596,-1.5729,-1.5671,-1.557,-1.5209,-1.4824,-1.4684,-1.4921,-1.5227,-1.5543,-1.6006,-1.6274,-1.658,-1.6932,-1.675,0.0,0.0,0.0,0.0,-1.6147,-1.669,-1.7032,-1.7148,-1.7706,-1.8233,-1.8698,-1.9248,-1.9706,-2.0062,-2.007,-2.0124,-2.0233,-2.0233,-2.0295,-2.0403,-2.0506,-2.0712,-2.0925,-2.0925,-2.0925,-2.0909,-2.0798,-2.0742,-2.0734,-2.0615,-2.0567,-2.0567,-2.0567,-2.0567,-2.048,0.0,0.0,0.0,0.0,0.0,0.0,0.0,0.0,0.0,0.0,0.0,0.0,0.0,0.0,0.0,0.0,0.0,0.0,0.0,0.0,-0.998,-1.0383,-1.0792,-1.091,-1.0717,-1.1001,-1.1108,-1.1038,-1.1478,-1.2107,-1.2907,-1.2764,-1.3116,-1.3881,-1.3509,-1.3522,-1.3773,-1.3844,-1.3774,-1.3574,-1.3132,-1.2633,-1.2028,-1.1163,-1.0703,0.0,0.0,0.0,0.0,0.0,0.0,0.0,-1.0728,-1.0788,-1.0673,-1.088,-1.1693,-1.2622,-1.2746,-1.326,-1.3892,-1.4364,-1.4977,-1.5388,-1.5483,-1.5864,-1.6103,-1.5753,-1.5583,-1.5322,-1.4783,-1.4352,-1.4217,-1.4437,-1.4738,-1.5122,-1.5872,-1.617,-1.6499,-1.6984,-1.6927,-1.7001,0.0,0.0,0.0,-1.6944,-1.7375,-1.7873,-1.8034,-1.86,-1.9199,-1.9717,-2.0289,-2.0694,-2.0917,-2.0925,-2.0925,-2.0925,-2.0925,-2.0925,-2.0925,-2.0925,-2.0782,-2.0559,-2.0813,-2.0774,-2.0567,-2.0813,-2.0925,-2.0925,-2.0925,-2.0925,-2.0925,-2.0925,-2.0925,-2.0837,0.0,0.0,0.0,0.0,0.0,0.0,0.0,0.0,0.0,0.0,0.0,0.0,0.0,0.0,0.0,0.0,0.0,0.0,0.0,0.0,0.0,-0.9905,-0.9933,-0.9815,-0.9552,-0.9998,-1.0187,-1.0187,-1.1003,-1.1447,-1.1511,-1.1952,-1.218,-1.2307,-1.2571,-1.2496,-1.2282,-1.2457,-1.2248,-1.1745,-1.1338,-1.1214,-1.1152,-1.0415,0.0,0.0,0.0,0.0,0.0,0.0,0.0,0.0,0.0,0.0,-1.137,-1.1581,-1.1597,-1.1927,-1.3548,-1.3623,-1.3475,-1.4638,-1.5314,-1.5578,-1.5276,-1.5713,-1.6063,-1.5682,-1.5647,-1.5303,0.0,0.0,-1.409,-1.3832,-1.4074,-1.4662,-1.5575,-1.5944,-1.6301,0.0,0.0,0.0,0.0,0.0,0.0,-1.7673,0.0,-1.7981,-1.8596,-1.9058,-1.9628,-2.0361,-2.0734,-2.0925,-2.0925,-2.0925,-2.0925,-2.0925,-2.0925,-2.0925,-2.0925,-2.0925,-2.0551,-1.9955,-2.0631,-2.0535,-1.9971,-2.0647,-2.0925,-2.0925,-2.0925,-2.0925,-2.0925,-2.0925,-2.0925,-2.0869,0.0,0.0,0.0,0.0,0.0,0.0,0.0,0.0,0.0,0.0,0.0,0.0,0.0,0.0,0.0,0.0,0.0,0.0,0.0,0.0,0.0,0.0,0.0,0.0,0.0,0.0,0.0,0.0,0.0,-1.0356,-1.1626,-1.0623,-1.0791,-1.1901,-1.1396,-1.1309,-1.1542,-1.1604,-1.1544,-1.1425,0.0,-1.0864,-1.0396,0.0,0.0,0.0,0.0,0.0,0.0,0.0,0.0,0.0,0.0,0.0,-1.1562,-1.1372,-1.2331,-1.3359,-1.3159,-1.3785,-1.4528,-1.4992,-1.5255,-1.5356,-1.5515,-1.5843,-1.5799,-1.4832,-1.4368,-1.3884,0.0,0.0,0.0,-1.3539,-1.4032,0.0,-1.5585,-1.5739,0.0,0.0,0.0,-1.7215,-1.7914,-1.8057,0.0,0.0,-1.8458,-1.872,-1.9175,-1.951,-1.9941,-2.0377,-2.0734,-2.0925,-2.0925,-2.0925,-2.0925,-2.0925,-2.0925,-2.0925,-2.0925,-2.0925,-2.0821,-2.0662,-2.0845,-2.0821,-2.0662,-2.0845,-2.0925,-2.0925,-2.0925,-2.0925,-2.0925,-2.0925,-2.0925,-2.0909,0.0,0.0,0.0,0.0,0.0,0.0,0.0,0.0,0.0,0.0,0.0,0.0,0.0,0.0,0.0,0.0,0.0,0.0,0.0,0.0,0.0,0.0,0.0,0.0,0.0,0.0,0.0,0.0,0.0,0.0,0.0,-1.0183,-1.0356,-1.1297,-1.0967,-1.0801,-1.0759,-1.0908,0.0,0.0,0.0,0.0,0.0,0.0,0.0,0.0,0.0,0.0,0.0,0.0,0.0,-1.0043,-1.122,-1.1801,-1.2052,-1.2362,0.0,-1.3916,-1.3629,-1.4183,-1.4768,-1.4895,-1.507,-1.511,-1.4904,-1.5033,-1.4984,-1.3907,-1.35,0.0,0.0,0.0,0.0,0.0,0.0,0.0,-1.5446,-1.5741,-1.6114,0.0,-1.7121,0.0,-1.8216,-1.8438,-1.8533,0.0,-1.8664,-1.8912,-1.9525,-1.9726,-2.0037,-2.0607,-2.0813,-2.0925,-2.0925,-2.0925,-2.0925,-2.0925,-2.0925,-2.0925,-2.0925,-2.0925,-2.075,-2.048,0.0,-2.0742,-2.048,-2.0798,-2.0925,-2.0925,-2.0925,-2.0925,-2.0925,-2.0925,-2.0925,-2.0925,0.0,0.0,0.0,0.0,0.0,0.0,0.0,0.0,0.0,0.0,0.0,0.0,0.0,0.0,0.0,0.0,0.0,0.0,0.0,0.0,0.0,0.0,0.0,0.0,0.0,0.0,0.0,0.0,0.0,0.0,0.0,0.0,0.0,0.0,0.0,0.0,0.0,0.0,0.0,0.0,0.0,0.0,0.0,0.0,0.0,0.0,0.0,0.0,0.0,0.0,-1.0398,-1.0456,-1.1922,-1.2465,-1.2761,-1.3747,-1.397,-1.3998,-1.4363,-1.4498,-1.4569,-1.4569,-1.4879,-1.4944,-1.4094,-1.4074,-1.3972,-1.3186,0.0,-1.2654,-1.2189,0.0,-1.2806,-1.305,0.0,-1.4377,-1.5258,-1.5715,-1.6175,-1.6847,-1.7145,-1.7584,-1.8224,-1.8494,-1.8676,-1.8819,-1.8779,-1.9007,-1.9668,-1.9749,-2.0127,-2.0893,-2.0925,-2.0925,-2.0925,-2.0925,-2.0925,-2.0925,-2.0925,-2.0925,-2.0925,-2.0925,-2.0583,-2.0043,-2.0655,-2.0575,-2.0051,-2.0662,-2.0925,-2.0925,-2.0925,-2.0925,-2.0925,-2.0925,-2.0925,-2.0925,0.0,0.0,0.0,0.0,0.0,0.0,0.0,0.0,0.0,0.0,0.0,0.0,0.0,0.0,0.0,0.0,0.0,0.0,0.0,0.0,0.0,0.0,0.0,0.0,0.0,0.0,0.0,0.0,0.0,0.0,0.0,0.0,0.0,0.0,0.0,0.0,0.0,0.0,0.0,0.0,0.0,0.0,0.0,0.0,0.0,0.0,0.0,0.0,0.0,0.0,-1.0559,-1.0858,-1.2749,-1.3379,-1.3419,-1.36,-1.4045,-1.4355,-1.3894,-1.4196,-1.4569,-1.4569,-1.4689,-1.4689,-1.4506,-1.4042,0.0,0.0,0.0,-1.1919,-1.2142,-1.2486,0.0,-1.3638,0.0,0.0,0.0,0.0,-1.5721,0.0,0.0,0.0,0.0,0.0,0.0,0.0,0.0,-1.9454,-1.9854,-2.0149,-2.0432,-2.0909,-2.0925,-2.0925,-2.0925,-2.0925,-2.0925,-2.0925,-2.0925,-2.0925,-2.0925,-2.0925,-2.0853,-2.0742,-2.0869,0.0,-2.075,-2.0869,-2.0925,-2.0925,-2.0925,-2.0925,-2.0925,-2.0925,-2.0925,-2.0925,0.0,0.0,0.0,0.0,0.0,0.0,0.0,0.0,0.0,0.0,-0.7367,-0.8202,0.0,0.0,0.0,0.0,0.0,0.0,0.0,0.0,0.0,0.0,0.0,0.0,0.0,0.0,0.0,0.0,0.0,0.0,0.0,0.0,0.0,0.0,0.0,0.0,0.0,0.0,0.0,0.0,0.0,0.0,0.0,0.0,0.0,0.0,0.0,0.0,0.0,0.0,-1.0197,-1.0537,-1.2994,-1.3651,-1.3651,-1.3784,-1.4223,-1.449,-1.3858,-1.4109,-1.4569,-1.4569,-1.4569,-1.445,-1.3921,0.0,0.0,0.0,0.0,-1.1498,-1.1676,0.0,0.0,0.0,0.0,0.0,0.0,0.0,0.0,0.0,0.0,0.0,0.0,0.0,0.0,0.0,0.0,-1.932,-1.9836,-2.0377,-2.0742,-2.0917,-2.0925,-2.0925,-2.0925,-2.0925,-2.0925,-2.0925,-2.0925,-2.0925,-2.0925,-2.0925,-2.0925,-2.0925,-2.0925,-2.071,-2.04,-2.0766,-2.0702,-2.0408,-2.0774,-2.0925,-2.0925,-2.0925,-2.0925,-2.0925,0.0,0.0,0.0,0.0,0.0,0.0,0.0,-0.6137,-0.6248,-0.5973,-0.6426,-0.7253,-0.8455,-0.9033,0.0,0.0,0.0,0.0,0.0,0.0,0.0,0.0,0.0,0.0,0.0,0.0,0.0,0.0,0.0,0.0,0.0,0.0,0.0,0.0,0.0,0.0,0.0,0.0,0.0,0.0,0.0,0.0,0.0,0.0,0.0,0.0,0.0,0.0,0.0,0.0,-0.9752,-1.0187,-1.2715,-1.3405,-1.3252,-1.368,-1.4062,-1.4331,-1.401,-1.4228,-1.4497,-1.4641,-1.4641,-1.4315,-1.3387,-1.3046,0.0,0.0,-1.1319,-1.1225,-1.1464,0.0,0.0,0.0,0.0,0.0,0.0,0.0,0.0,0.0,0.0,0.0,0.0,0.0,0.0,0.0,0.0,0.0,-2.0051,-2.0615,-2.0925,-2.0925,-2.0925,-2.0925,-2.0925,-2.0925,-2.0925,-2.0925,-2.0925,-2.0925,-2.0925,-2.0925,-2.0925,-2.0925,-2.0925,-2.0519,-1.9916,-2.0631,-2.0504,-1.9932,-2.0647,-2.0925,-2.0925,-2.0925,-2.0925,-2.0925,0.0,0.0,0.0,0.0,0.0,0.0,0.0,-0.6043,-0.585,-0.6054,-0.6458,-0.677,-0.6905,-0.7657,0.0,0.0,0.0,0.0,0.0,0.0,0.0,0.0,0.0,0.0,0.0,0.0,0.0,0.0,0.0,0.0,0.0,0.0,0.0,0.0,0.0,0.0,0.0,0.0,0.0,0.0,0.0,0.0,0.0,0.0,0.0,0.0,0.0,0.0,0.0,0.0,0.0,-1.0195,-1.181,-1.2159,-1.2017,-1.272,0.0,0.0,-1.4395,-1.4378,-1.4274,-1.4721,-1.4649,-1.4301,-1.383,0.0,0.0,0.0,-1.1336,-1.1079,-1.2107,-1.2312,0.0,0.0,0.0,0.0,0.0,0.0,0.0,0.0,0.0,0.0,0.0,0.0,0.0,0.0,0.0,0.0,-2.0782,-2.0885,-2.0925,-2.0925,-2.0925,-2.0925,-2.0925,-2.0925,-2.0925,-2.0925,-2.0925,-2.0925,-2.0925,-2.0925,-2.0925,-2.0925,-2.0925,-2.0519,0.0,-2.0631,-2.0504,-1.9932,-2.0647,-2.0925,-2.0925,-2.0925,-2.0925,-2.0925,0.0,0.0,0.0,0.0,0.0,0.0,0.0,-0.6027,-0.596,-0.5498,-0.5883,-0.6324,-0.6544,-0.7129,-0.7884,0.0,0.0,0.0,0.0,0.0,0.0,0.0,0.0,0.0,0.0,0.0,0.0,0.0,0.0,0.0,0.0,0.0,0.0,0.0,0.0,0.0,0.0,0.0,0.0,0.0,0.0,0.0,0.0,0.0,0.0,0.0,0.0,0.0,0.0,0.0,0.0,0.0,-0.993,-1.0446,0.0,0.0,-1.2573,-1.3186,-1.2971,-1.3491,-1.4129,-1.4353,-1.4134,-1.3754,-1.3244,0.0,0.0,-1.1733,-1.1268,-1.109,-1.1636,-1.1669,-1.1959,0.0,0.0,0.0,0.0,0.0,0.0,0.0,0.0,0.0,0.0,0.0,0.0,0.0,0.0,-1.9733,-2.0861,-2.0925,-2.0925,-2.0925,-2.0925,-2.0925,-2.0925,-2.0925,-2.0925,-2.0925,-2.0925,-2.0925,-2.0925,-2.0925,-2.0925,-2.0925,-2.0925,-2.0281,0.0,-2.0456,-2.0257,-1.9352,-2.048,-2.0925,-2.0925,-2.0925,-2.0925,-2.0925,0.0,0.0,0.0,0.0,0.0,0.0,-0.582,-0.5973,-0.5917,-0.5311,-0.5553,-0.5913,-0.6241,-0.6809,-0.7488,-0.8264,0.0,0.0,0.0,0.0,0.0,0.0,0.0,0.0,0.0,0.0,0.0,0.0,0.0,0.0,0.0,0.0,0.0,0.0,0.0,0.0,0.0,0.0,0.0,0.0,0.0,0.0,0.0,0.0,0.0,0.0,0.0,0.0,0.0,0.0,0.0,0.0,0.0,0.0,0.0,0.0,-1.1833,-1.2554,-1.2101,-1.2772,-1.3689,-1.383,-1.3516,-1.2956,0.0,0.0,0.0,-1.1107,-1.0906,-1.0898,-1.115,-1.0981,-1.1183,-1.2197,0.0,0.0,0.0,0.0,0.0,0.0,0.0,0.0,0.0,0.0,0.0,0.0,0.0,-1.971,-2.0812,-2.0869,-2.0925,-2.0925,-2.0925,-2.0925,-2.0925,-2.0925,-2.0925,-2.0925,-2.0925,-2.0813,-2.0615,-2.1127,-2.1306,-2.1119,-2.1626,-2.1015,0.0,-2.0915,-2.0704,-1.9719,-2.0948,-2.1615,-2.1818,-2.1818,-2.1615,-2.1318,0.0,0.0,0.0,0.0,0.0,0.0,0.0,-0.5884,-0.5578,-0.5773,-0.5624,-0.5559,-0.5691,-0.6535,-0.7261,-0.7677,0.0,0.0,0.0,0.0,0.0,0.0,0.0,0.0,0.0,0.0,0.0,-0.8013,-0.788,-0.7392,0.0,0.0,0.0,0.0,0.0,0.0,0.0,0.0,0.0,0.0,0.0,0.0,0.0,0.0,0.0,0.0,0.0,0.0,0.0,0.0,0.0,0.0,0.0,0.0,0.0,0.0,-1.0893,-1.2004,-1.2387,-1.2482,-1.2668,-1.3266,-1.2634,-1.1783,0.0,0.0,0.0,-1.0327,-1.0238,-1.0344,-1.0805,-1.0524,-1.0631,-1.199,-1.2223,0.0,0.0,0.0,0.0,0.0,0.0,0.0,0.0,0.0,0.0,0.0,0.0,0.0,-2.0808,-2.0844,-2.0925,-2.0925,-2.0925,-2.0925,-2.0925,-2.0925,-2.0925,-2.0925,-2.0925,-2.0551,-1.9997,-2.1686,-2.2115,-2.1631,-2.3358,-2.3046,0.0,-2.221,-2.2073,-2.1552,-2.2227,-2.3111,-2.4088,-2.4088,-2.3411,-2.2526,0.0,0.0,0.0,0.0,0.0,0.0,0.0,-0.5889,-0.5815,-0.5924,-0.5919,-0.5965,-0.6089,-0.6623,-0.6949,-0.6878,0.0,0.0,0.0,0.0,0.0,0.0,0.0,0.0,0.0,0.0,-0.8541,-0.7738,-0.7259,-0.6648,-0.5859,-0.5948,0.0,0.0,0.0,0.0,0.0,0.0,0.0,0.0,0.0,0.0,0.0,0.0,0.0,0.0,0.0,0.0,0.0,0.0,0.0,0.0,0.0,0.0,0.0,0.0,0.0,0.0,-1.1056,-1.1457,-1.1949,-1.2578,-1.2297,-1.1724,-1.1138,0.0,-1.0597,-1.0279,-0.989,-0.9739,-1.0336,-1.0205,-1.0358,-1.1172,-1.1566,0.0,0.0,0.0,0.0,0.0,0.0,0.0,0.0,0.0,0.0,0.0,0.0,-1.9563,-2.0444,-2.0504,-2.067,-2.0909,-2.0925,-2.0925,-2.0925,-2.0925,-2.1224,-2.2021,-2.2021,-2.179,-2.1386,-2.2912,-2.292,-2.1964,-2.3426,-2.3532,-2.2573,-2.3278,-2.3134,-2.26,-2.3287,-2.38,-2.4088,-2.4088,-2.3899,-2.3601,0.0,0.0,0.0,0.0,0.0,0.0,0.0,-0.5911,-0.5959,-0.6002,-0.5995,-0.605,-0.6201,-0.6401,-0.6502,-0.6456,0.0,0.0,0.0,0.0,0.0,0.0,0.0,0.0,0.0,-0.8881,-0.811,-0.7327,-0.6556,-0.5834,-0.5168,-0.5274,-0.5524,-0.5877,0.0,0.0,0.0,0.0,0.0,0.0,0.0,0.0,-0.7136,0.0,0.0,0.0,0.0,0.0,0.0,0.0,0.0,0.0,0.0,0.0,0.0,0.0,-0.9267,0.0,0.0,-1.074,-1.1195,-1.147,-1.1207,0.0,0.0,0.0,-0.9666,-0.9541,-0.9447,-0.9407,-0.9724,-0.9905,-1.0132,-1.049,-1.1384,0.0,0.0,0.0,0.0,0.0,0.0,0.0,0.0,0.0,0.0,0.0,-1.9244,-1.937,-2.0151,-2.0221,-2.0353,-2.071,-2.0853,-2.0925,-2.0925,-2.1087,-2.1686,-2.2526,-2.2772,-2.2645,-2.2227,-2.3923,-2.4002,-2.2784,-2.4517,-2.4784,0.0,-2.4482,-2.4388,-2.407,-2.4491,-2.4982,-2.5275,-2.5275,-2.508,-2.4688,0.0,0.0,0.0,0.0,0.0,0.0,0.0,0.0,0.0,0.0,-0.5867,-0.5867,-0.605,-0.5966,-0.6007,0.0,0.0,0.0,0.0,0.0,0.0,0.0,0.0,0.0,0.0,-0.8175,-0.7416,-0.6836,-0.5806,-0.5034,-0.4572,-0.495,-0.5153,-0.528,-0.5716,-0.6178,-0.6595,-0.6712,-0.6996,-0.7306,-0.6915,-0.6915,0.0,0.0,0.0,0.0,0.0,0.0,0.0,0.0,0.0,0.0,0.0,0.0,0.0,0.0,0.0,0.0,0.0,0.0,0.0,0.0,0.0,0.0,0.0,0.0,0.0,-0.8475,-0.8917,-0.9302,-0.9173,-0.9669,-1.0064,-1.0024,0.0,0.0,0.0,0.0,0.0,0.0,0.0,0.0,0.0,0.0,0.0,0.0,-1.9495,-1.9698,-1.9636,-1.9846,-1.9995,-2.0345,-2.0772,-2.0955,-2.0979,-2.1545,-2.209,-2.2555,-2.3241,-2.31,-2.2453,-2.4755,-2.5149,0.0,-2.6351,-2.6764,-2.579,-2.579,-2.579,-2.579,-2.579,-2.638,-2.7262,-2.7262,-2.6668,-2.579,0.0,0.0,0.0,0.0,0.0,0.0,0.0,0.0,0.0,0.0,0.0,-0.5793,-0.5804,-0.5811,0.0,0.0,0.0,0.0,0.0,0.0,0.0,0.0,0.0,0.0,0.0,-0.8046,-0.7308,-0.6362,-0.5492,-0.4804,-0.4285,-0.4285,-0.4452,-0.479,-0.5144,-0.5744,-0.6443,-0.6429,-0.6513,-0.6617,-0.6535,-0.6513,0.0,0.0,0.0,0.0,-0.5606,-0.548,0.0,0.0,0.0,0.0,0.0,0.0,0.0,0.0,-0.8845,-0.9033,-0.9358,0.0,-0.9951,-1.0335,0.0,0.0,0.0,0.0,0.0,0.0,0.0,0.0,0.0,0.0,0.0,0.0,0.0,0.0,0.0,0.0,0.0,0.0,0.0,0.0,0.0,0.0,0.0,0.0,-1.9269,-1.9346,-1.9447,-1.9542,-1.9638,-1.9979,-2.0931,-2.1497,-2.1594,-2.1708,-2.2136,-2.2909,-2.4049,-2.3896,-2.2563,-2.5534,-2.5941,-2.4431,-2.6414,-2.7156,-2.6965,-2.6965,-2.6965,-2.6965,-2.6965,-2.7061,-2.7262,-2.7262,-2.7156,-2.6965,0.0,0.0,0.0,0.0,0.0,0.0,0.0,0.0,0.0,0.0,0.0,0.0,0.0,0.0,0.0,0.0,0.0,0.0,0.0,0.0,0.0,0.0,0.0,0.0,-0.8116,-0.7485,-0.6766,-0.5968,-0.5076,-0.4455,-0.4104,-0.4001,-0.4176,-0.4572,-0.5122,-0.5632,-0.6083,-0.6243,-0.6337,-0.6413,-0.6413,0.0,0.0,0.0,0.0,0.0,-0.5536,-0.541,0.0,-0.5442,-0.5584,-0.5837,0.0,0.0,0.0,0.0,-0.8654,-0.9065,-0.9261,-0.9455,-0.9663,-0.9946,-0.9799,-0.9509,0.0,0.0,0.0,0.0,0.0,0.0,0.0,0.0,0.0,0.0,0.0,0.0,0.0,0.0,0.0,0.0,0.0,0.0,0.0,0.0,0.0,-1.9004,-1.9004,-1.9092,-1.9113,-1.9121,-1.9555,-2.045,-2.1019,-2.1484,-2.1687,-2.2464,-2.2889,-2.3115,-2.4486,-2.4429,-2.3215,-2.5554,-2.5978,-2.4902,-2.5678,-2.6372,-2.691,-2.6496,-2.6693,-2.7262,-2.7262,-2.7262,-2.7262,-2.7262,-2.7127,-2.6941,0.0,0.0,0.0,0.0,0.0,0.0,0.0,0.0,0.0,0.0,0.0,0.0,0.0,0.0,0.0,0.0,0.0,0.0,0.0,0.0,0.0,0.0,0.0,-0.7721,-0.7563,-0.6809,-0.611,-0.5526,-0.4628,-0.4125,-0.398,-0.3918,-0.4141,-0.4616,-0.5293,-0.5667,-0.5813,-0.6157,-0.6337,-0.639,-0.639,0.0,0.0,0.0,0.0,0.0,0.0,0.0,0.0,-0.546,-0.5467,-0.5529,-0.6186,0.0,0.0,0.0,0.0,0.0,-0.9152,-0.9357,-0.9511,-0.9508,-0.9293,-0.9124,0.0,0.0,0.0,0.0,0.0,0.0,0.0,0.0,0.0,0.0,0.0,0.0,0.0,0.0,0.0,0.0,0.0,0.0,0.0,0.0,-1.8924,-1.8924,-1.8924,-1.9015,-1.919,-1.9155,-1.9762,-2.1248,-2.144,-2.1692,-2.1937,-2.3334,-2.3821,-2.3428,-2.4661,-2.4716,-2.3909,-2.5306,-2.5751,-2.5316,0.0,0.0,-2.661,-2.5782,-2.6154,-2.7262,-2.7262,-2.722,-2.7148,-2.7148,-2.6868,-2.6455,0.0,0.0,0.0,0.0,0.0,0.0,0.0,0.0,0.0,0.0,0.0,0.0,0.0,0.0,0.0,0.0,0.0,0.0,0.0,0.0,0.0,0.0,-0.7424,-0.7407,-0.6558,-0.6436,-0.5869,-0.4758,-0.433,-0.4055,-0.3911,-0.3842,-0.4208,-0.4917,-0.5049,-0.5517,-0.6204,-0.6291,-0.6307,-0.6307,-0.6307,0.0,0.0,0.0,0.0,0.0,0.0,0.0,0.0,-0.5467,-0.5498,-0.5578,-0.6212,0.0,0.0,0.0,0.0,0.0,-0.8838,-0.8936,-0.9249,-0.9838,-0.9387,-0.8904,0.0,0.0,0.0,0.0,0.0,0.0,0.0,0.0,0.0,0.0,0.0,0.0,0.0,0.0,0.0,0.0,0.0,0.0,0.0,0.0,-1.9512,-1.9512,-1.9512,-1.9858,-2.0902,-2.0508,-2.0881,-2.2176,-2.3164,-2.365,-2.372,-2.4028,-2.413,-2.3787,-2.4965,-2.4882,-2.3604,-2.5581,-2.6216,-2.5792,0.0,-2.6599,-2.7117,-2.6579,-2.6724,-2.7262,-2.7262,-2.7024,-2.6672,-2.6672,-2.6382,-2.5937,0.0,0.0,0.0,0.0,0.0,0.0,0.0,0.0,0.0,0.0,0.0,0.0,0.0,0.0,0.0,0.0,0.0,0.0,0.0,0.0,0.0,-0.6249,-0.6545,-0.6395,-0.5675,-0.5545,-0.5102,-0.4317,-0.4076,-0.3897,-0.3842,-0.4002,-0.4287,-0.4704,-0.5083,-0.5528,-0.5992,-0.6204,-0.6315,-0.6315,0.0,0.0,0.0,0.0,0.0,0.0,0.0,0.0,0.0,0.0,-0.5491,-0.5582,-0.5948,0.0,0.0,0.0,0.0,0.0,-0.8687,-0.8747,-0.904,-1.0002,-0.9357,-0.8783,0.0,0.0,0.0,0.0,0.0,0.0,0.0,0.0,0.0,0.0,0.0,0.0,0.0,0.0,0.0,0.0,0.0,0.0,0.0,-1.8482,-1.9479,-1.998,-1.998,-2.0238,-2.075,-2.058,-2.1016,-2.2204,-2.273,-2.3327,-2.3908,-2.4044,-2.4001,-2.4057,-2.4977,-2.4745,-2.3699,-2.5102,-2.5659,-2.567,0.0,-2.5554,-2.6796,-2.5606,-2.5813,-2.6868,-2.661,-2.6382,-2.6165,-2.5937,-2.5709,-2.5461,0.0,0.0,0.0,0.0,0.0,0.0,0.0,0.0,0.0,0.0,0.0,0.0,0.0,0.0,0.0,0.0,0.0,0.0,0.0,0.0,-0.597,-0.5759,-0.5677,-0.5473,-0.5109,-0.4855,-0.4498,-0.4048,-0.3856,-0.3759,-0.3745,-0.4109,-0.4359,-0.4519,-0.5169,-0.5571,-0.5794,-0.6142,-0.6284,-0.6284,0.0,0.0,0.0,0.0,0.0,0.0,0.0,0.0,0.0,0.0,0.0,0.0,0.0,0.0,0.0,-0.6644,-0.7434,-0.8305,-0.8529,-0.854,-0.8717,-0.9733,0.0,-0.8707,-1.0226,0.0,0.0,0.0,0.0,0.0,0.0,0.0,0.0,0.0,0.0,0.0,0.0,0.0,0.0,0.0,0.0,0.0,-1.7785,-1.8742,-1.9592,-2.0504,-2.0504,-2.0588,-2.0827,-2.0754,-2.1301,-2.2462,-2.2462,-2.296,-2.3775,-2.3785,-2.3945,-2.4126,-2.4612,-2.4416,-2.3737,-2.4419,-2.4817,-2.51,-2.3888,-2.4457,-2.6144,-2.4654,-2.4974,-2.6372,-2.602,-2.5813,-2.5668,-2.5233,-2.5068,-2.5016,0.0,0.0,0.0,0.0,0.0,0.0,0.0,0.0,0.0,0.0,0.0,0.0,0.0,0.0,0.0,0.0,0.0,0.0,0.0,0.0,-0.5595,-0.5271,-0.518,-0.5126,-0.51,-0.4909,-0.4498,-0.3911,-0.3765,-0.3647,-0.3534,-0.3988,-0.4395,-0.4785,-0.5164,-0.5546,-0.5991,-0.6129,-0.6207,-0.6207,-0.606,0.0,0.0,0.0,0.0,0.0,0.0,0.0,0.0,0.0,0.0,0.0,0.0,0.0,-0.6072,-0.6697,-0.7294,-0.7837,-0.8226,-0.8045,-0.7967,-0.8896,0.0,0.0,-1.0235,0.0,0.0,0.0,0.0,0.0,0.0,0.0,0.0,0.0,0.0,0.0,0.0,0.0,0.0,0.0,0.0,-1.7695,-1.8997,-1.9461,-2.0161,-2.124,-2.117,-2.149,-2.2532,-2.217,-2.2462,-2.3615,-2.3695,-2.3695,-2.3775,-2.3876,-2.3876,-2.3865,-2.372,-2.357,-2.3517,-2.3867,-2.4023,-2.4054,-2.3867,-2.4405,-2.5285,-2.4726,-2.5057,-2.5927,-2.5885,-2.5627,-2.5223,-2.4757,-2.4592,-2.4592,0.0,0.0,0.0,0.0,0.0,0.0,0.0,0.0,0.0,0.0,0.0,0.0,0.0,0.0,0.0,0.0,0.0,0.0,0.0,0.0,-0.5057,-0.4607,-0.4591,-0.4548,-0.4428,-0.4291,-0.4101,-0.3842,-0.3668,-0.3707,-0.3937,-0.4291,-0.4677,-0.5122,-0.5517,-0.5793,-0.599,-0.606,-0.6036,-0.6013,-0.5943,-0.5842,0.0,0.0,0.0,0.0,0.0,0.0,0.0,0.0,-0.5366,-0.5291,0.0,-0.5837,-0.6063,-0.646,-0.7018,-0.7596,-0.8041,-0.8117,-0.8386,-0.9695,0.0,0.0,0.0,0.0,0.0,0.0,0.0,0.0,0.0,0.0,0.0,0.0,0.0,0.0,0.0,0.0,0.0,0.0,-1.8674,-1.9414,-2.0289,-2.0526,-2.0997,-2.1968,-2.1968,-2.2056,-2.2373,-2.2211,-2.2216,-2.2537,-2.2537,-2.2537,-2.2537,-2.2548,-2.2548,-2.2548,-2.3361,-2.3716,-2.3727,-2.3675,-2.3845,-2.4023,-2.3659,-2.396,-2.4747,-2.4012,-2.4229,-2.5047,-2.5047,-2.4943,-2.4778,-2.4602,-2.454,-2.454,0.0,0.0,0.0,0.0,0.0,0.0,0.0,0.0,0.0,0.0,0.0,0.0,0.0,0.0,0.0,0.0,0.0,0.0,0.0,-0.4726,-0.4555,-0.4215,-0.4219,-0.4158,-0.4009,-0.3918,-0.3835,-0.3808,-0.3569,-0.3696,-0.4141,-0.4466,-0.4848,-0.5276,-0.5702,-0.5912,-0.5967,-0.5936,-0.5912,-0.5888,-0.5819,-0.5655,0.0,0.0,0.0,0.0,0.0,0.0,0.0,0.0,-0.5212,0.0,0.0,0.0,0.0,0.0,-0.6809,-0.7468,-0.7948,-0.816,-0.8546,0.0,0.0,0.0,0.0,0.0,0.0,0.0,0.0,0.0,0.0,0.0,0.0,0.0,0.0,0.0,0.0,0.0,0.0,0.0,-1.9487,-2.0207,-2.1201,-2.1211,-2.1451,-2.2402,-2.2402,-2.2327,-2.2176,-2.2176,-2.2101,-2.1949,-2.1949,-2.1883,-2.1883,-2.1807,-2.1807,-2.1818,-2.273,-2.3192,-2.3192,-2.3056,-2.3154,-2.3447,-2.2964,-2.3184,-2.3857,-2.3533,-2.4042,-2.4967,-2.4967,-2.4967,-2.4967,-2.4967,-2.4967,-2.4967,0.0,0.0,0.0,0.0,0.0,0.0,0.0,0.0,0.0,0.0,0.0,0.0,0.0,0.0,0.0,0.0,0.0,0.0,-0.448,-0.4262,-0.4145,-0.4194,-0.4138,-0.4076,-0.4009,-0.3863,-0.3808,-0.3808,-0.3541,-0.3608,-0.4005,-0.4422,-0.4821,-0.5211,-0.5641,-0.5857,-0.5888,-0.5826,-0.5826,-0.5857,-0.5592,-0.5491,-0.5491,0.0,0.0,0.0,0.0,0.0,0.0,0.0,-0.4814,-0.4743,0.0,0.0,0.0,-0.6149,-0.6751,-0.7346,-0.7955,-0.8031,0.0,0.0,0.0,0.0,0.0,0.0,0.0,0.0,0.0,0.0,0.0,0.0,0.0,0.0,0.0,0.0,0.0,0.0,0.0,-1.9541,-1.9312,-1.9659,-2.1628,-2.1364,-2.1517,-2.2617,-2.2478,-2.2402,-2.2402,-2.2402,-2.2402,-2.2402,-2.2176,-2.2111,-2.2101,-2.1883,-2.1807,-2.1807,-2.1807,-2.1807,-2.1807,-2.1807,-2.1818,-2.1818,-2.1818,-2.2076,-2.261,-2.3446,-2.4675,-2.5895,-2.5895,-2.5895,-2.5895,-2.5895,-2.5895,-2.5895,0.0,0.0,0.0,0.0,0.0,0.0,0.0,0.0,0.0,0.0,0.0,0.0,0.0,0.0,0.0,0.0,0.0,0.0,-0.4371,-0.4496,-0.4474,-0.4207,-0.423,-0.4075,-0.3723,-0.3577,-0.352,-0.352,-0.3734,-0.4029,-0.4429,-0.4835,-0.5233,-0.5625,-0.6077,-0.6077,-0.5792,-0.6093,-0.5962,-0.5543,-0.5474,-0.541,-0.534,0.0,0.0,0.0,0.0,0.0,0.0,0.0,0.0,0.0,0.0,0.0,0.0,-0.6943,-0.7294,-0.756,-0.8373,0.0,0.0,0.0,0.0,0.0,0.0,0.0,0.0,0.0,0.0,0.0,0.0,0.0,0.0,0.0,0.0,0.0,0.0,0.0,0.0,-2.0201,-2.0398,-2.0586,-2.1165,-2.1544,-2.1892,-2.2196,-2.2583,-2.2777,-2.2628,-2.2628,-2.2628,-2.2628,-2.2553,-2.2628,-2.2703,-2.3037,-2.2885,-2.2262,-2.2579,-2.2415,-2.1818,-2.2149,-2.2294,-2.2304,-2.2635,-2.3002,-2.3467,-2.4427,-2.5039,-2.5426,-2.5764,-2.5895,-2.5895,-2.5895,-2.5895,-2.5906,0.0,0.0,0.0,0.0,0.0,0.0,0.0,0.0,0.0,0.0,0.0,0.0,0.0,0.0,0.0,0.0,0.0,0.0,0.0,0.0,-0.4846,-0.4602,-0.435,-0.4012,-0.3563,-0.345,-0.3467,-0.3605,-0.3851,-0.4164,-0.4579,-0.4969,-0.5377,-0.5771,-0.6063,-0.5994,-0.5705,-0.5935,-0.5772,-0.5442,-0.5347,-0.5252,-0.5182,0.0,0.0,0.0,0.0,0.0,0.0,0.0,0.0,0.0,0.0,0.0,0.0,-0.7267,-0.7727,-0.8192,-0.891,0.0,0.0,0.0,0.0,0.0,0.0,0.0,0.0,0.0,0.0,0.0,0.0,0.0,0.0,0.0,0.0,-1.911,-1.932,-1.9292,0.0,-2.0364,-2.0621,-2.0796,-2.0966,-2.1386,-2.1629,-2.1629,-2.2215,-2.2559,-2.2422,-2.2669,-2.2852,-2.2927,-2.2852,-2.2927,-2.315,-2.336,-2.321,-2.2628,-2.3177,-2.3176,-2.2613,-2.2522,-2.2673,-2.3008,-2.353,-2.4073,-2.4647,-2.5275,-2.5691,-2.6065,-2.6284,-2.6396,-2.6396,-2.6396,-2.6396,-2.6396,0.0,0.0,0.0,0.0,0.0,0.0,0.0,0.0,0.0,0.0,0.0,0.0,0.0,0.0,0.0,0.0,0.0,0.0,0.0,0.0,-0.5231,-0.5207,-0.4465,-0.389,-0.3491,-0.3415,-0.3551,-0.389,-0.394,-0.4166,-0.4568,-0.4963,-0.536,-0.5708,-0.5734,-0.5734,-0.5676,-0.5543,-0.5458,-0.546,-0.5271,-0.5112,-0.4992,-0.4992,0.0,0.0,0.0,0.0,0.0,0.0,0.0,0.0,0.0,-0.6275,-0.7399,-0.726,-0.8017,-0.8931,0.0,0.0,0.0,0.0,0.0,0.0,0.0,0.0,0.0,0.0,0.0,0.0,0.0,0.0,0.0,0.0,-1.9044,-1.932,-1.9868,-1.9341,-1.923,-2.0133,-2.0254,-2.0413,-2.0818,-2.0903,-2.0924,-2.0924,-2.1503,-2.1916,-2.1916,-2.26,-2.301,-2.3231,-2.3128,-2.315,-2.3372,-2.3268,-2.3119,-2.3075,-2.3514,-2.3722,-2.3722,-2.297,-2.3108,-2.3929,-2.4462,-2.5145,-2.5959,-2.6039,-2.6483,-2.7231,-2.7231,-2.7231,-2.7231,-2.7231,-2.7231,-2.7149,0.0,0.0,0.0,0.0,0.0,0.0,0.0,0.0,0.0,0.0,0.0,0.0,0.0,0.0,0.0,0.0,0.0,0.0,0.0,0.0,-0.5436,-0.5279,-0.4318,-0.3637,-0.3345,-0.3336,-0.3519,-0.389,-0.4207,-0.4582,-0.4977,-0.5389,-0.5605,-0.5698,-0.602,-0.5896,-0.5483,-0.5882,-0.5732,-0.5271,-0.5207,-0.5112,-0.4992,-0.4953,-0.4922,0.0,0.0,0.0,0.0,0.0,0.0,0.0,-0.6006,-0.6461,-0.6831,-0.7406,-0.8286,-0.9131,0.0,0.0,0.0,0.0,0.0,0.0,0.0,0.0,0.0,0.0,0.0,0.0,0.0,0.0,0.0,0.0,-1.9868,-1.9933,-2.0009,-1.9802,-1.9768,-1.9942,-1.9831,-1.973,-1.9691,-2.0107,-2.0387,-2.0318,-2.0871,-2.1208,-2.1208,-2.2017,-2.2578,-2.2723,-2.3391,-2.3824,-2.397,-2.4346,-2.4112,-2.3446,-2.3557,-2.3442,-2.3079,-2.3374,-2.3811,-2.4442,-2.5546,-2.6188,-2.6371,-2.6814,-2.7046,-2.7231,-2.7231,-2.7231,-2.7231,-2.7231,-2.7231,-2.7231,0.0,0.0,0.0,0.0,0.0,0.0,0.0,0.0,0.0,0.0,0.0,0.0,0.0,0.0,0.0,0.0,0.0,0.0,0.0,0.0,0.0,-0.4754,-0.4179,-0.3705,-0.3302,-0.3485,-0.3788,-0.4187,-0.4516,0.0,0.0,0.0,0.0,-0.5564,-0.5779,-0.5678,-0.5368,-0.5638,-0.5524,-0.5112,-0.5112,-0.5023,-0.4914,-0.5012,-0.5055,-0.504,-0.5066,0.0,0.0,0.0,0.0,0.0,0.0,0.0,-0.7214,-0.7426,-0.8074,-0.884,0.0,0.0,0.0,0.0,0.0,0.0,0.0,0.0,0.0,0.0,0.0,0.0,0.0,0.0,0.0,0.0,-2.0085,-2.0085,-2.0085,-2.0009,-1.9933,-1.9933,-1.9802,-1.9671,-1.9473,-1.9772,-1.991,-1.9843,-2.0471,-2.0973,-2.1269,-2.18,-2.2324,-2.2853,-2.3255,-2.3618,-2.3833,-2.4326,-2.4368,-2.3897,-2.4124,-2.3891,-2.3235,-2.3678,-2.4067,-2.4339,-2.5369,-2.5833,-2.5833,-2.6086,-2.6177,-2.6177,-2.6257,-2.6337,-2.6337,-2.6428,-2.6496,-2.6496,0.0,0.0,0.0,0.0,0.0,0.0,0.0,0.0,0.0,0.0,0.0,0.0,0.0,0.0,0.0,0.0,0.0,0.0,0.0,0.0,0.0,-0.4129,-0.4041,-0.3799,-0.3302,-0.3687,-0.4077,-0.4494,0.0,0.0,0.0,0.0,0.0,-0.5542,0.0,-0.5449,-0.5309,-0.5309,-0.5182,-0.503,-0.5042,-0.5003,-0.4909,-0.5136,-0.5239,-0.5228,-0.5449,-0.5521,-0.5527,-0.5657,0.0,0.0,0.0,0.0,-0.7682,-0.734,-0.7708,-0.8454,0.0,0.0,0.0,0.0,0.0,0.0,0.0,0.0,0.0,0.0,0.0,0.0,0.0,0.0,0.0,-2.0009,-2.0085,-2.0085,-2.0085,-2.0085,-2.0074,-1.9944,-1.9933,-1.9868,-1.9671,-1.9671,-1.9615,-1.9605,-2.0167,-2.0769,-2.1308,-2.168,-2.2235,-2.2942,-2.3194,-2.3356,-2.3569,-2.3982,-2.42,-2.42,-2.451,-2.4249,-2.343,-2.3713,-2.386,-2.3818,-2.4702,-2.5026,-2.5037,-2.5038,-2.5083,-2.5161,-2.5317,-2.5394,-2.5394,-2.5561,-2.5638,-2.5716,0.0,0.0,0.0,0.0,0.0,0.0,0.0,0.0,0.0,0.0,0.0,0.0,0.0,0.0,0.0,0.0,0.0,0.0,-0.6961,0.0,0.0,-0.4037,-0.3798,-0.3553,-0.3302,-0.3635,-0.3997,-0.4402,0.0,0.0,0.0,0.0,0.0,-0.6161,0.0,0.0,-0.5309,-0.5309,-0.5246,-0.5195,-0.5284,-0.5283,-0.5258,-0.5347,-0.5331,-0.5294,-0.5179,-0.5114,-0.5148,-0.5634,-0.5887,0.0,0.0,0.0,-0.7026,-0.6986,-0.7649,0.0,0.0,0.0,0.0,0.0,0.0,0.0,0.0,0.0,0.0,0.0,0.0,0.0,0.0,0.0,0.0,0.0,-2.0085,-2.0085,-2.0085,-2.0085,-2.0074,-2.0074,-2.0074,-2.0009,-1.9868,-1.9868,-1.9802,-1.9605,-1.9976,-2.0227,-2.0293,-2.1576,-2.2354,-2.2491,-2.3495,-2.4097,-2.4097,-2.4166,-2.42,-2.4189,-2.3821,-2.3303,-2.2823,-2.3126,-2.3138,-2.3039,-2.4265,-2.4737,-2.4771,-2.4981,-2.5083,-2.5083,-2.5161,-2.5239,-2.5394,-2.5394,-2.5549,-2.5716,0.0,0.0,0.0,0.0,0.0,0.0,0.0,0.0,0.0,0.0,0.0,0.0,0.0,0.0,0.0,-0.752,-0.7412,-0.6918,-0.6006,-0.5103,-0.4391,-0.3844,-0.3863,-0.3774,-0.3524,-0.4031,-0.4401,0.0,0.0,0.0,0.0,-0.6726,-0.6551,0.0,0.0,0.0,0.0,0.0,-0.572,-0.5284,-0.5493,-0.567,-0.5782,-0.5597,-0.5687,-0.5925,-0.5688,-0.5647,-0.5699,-0.6026,-0.6186,-0.6323,-0.6664,0.0,0.0,0.0,-0.7101,0.0,0.0,0.0,0.0,0.0,0.0,0.0,0.0,0.0,0.0,0.0,0.0,0.0,0.0,0.0,0.0,0.0,-2.0085,-2.0085,-2.0085,-2.0085,-2.0085,-2.0085,-2.0085,-2.0074,-2.0009,-2.0009,-2.0009,-1.9878,-2.0183,-2.0553,-2.0962,-2.1524,-2.2004,-2.237,-2.2889,-2.3259,-2.3468,-2.3768,-2.3985,-2.4189,-2.3684,-2.3258,-2.311,-2.2971,-2.2888,-2.2958,-2.3469,-2.3661,-2.361,-2.3687,-2.3713,-2.3735,-2.3991,-2.4243,-2.4405,-2.4555,-2.4705,-2.4866,0.0,0.0,0.0,0.0,0.0,0.0,0.0,0.0,0.0,0.0,0.0,0.0,0.0,0.0,0.0,0.0,-0.7116,-0.6488,-0.5338,-0.4756,-0.4291,-0.3943,-0.4041,-0.4017,-0.3842,-0.4377,0.0,0.0,0.0,0.0,-0.6902,-0.6961,-0.6794,0.0,-0.6827,0.0,0.0,0.0,0.0,-0.5795,-0.6336,-0.6437,-0.6288,-0.6294,-0.6471,-0.6674,-0.6308,-0.6241,-0.6359,-0.6306,-0.6404,-0.6526,-0.6617,-0.6708,0.0,0.0,0.0,0.0,0.0,0.0,0.0,0.0,0.0,0.0,0.0,0.0,0.0,0.0,0.0,0.0,0.0,0.0,0.0,0.0,-2.0085,-2.0085,-2.0085,-2.0085,-2.0085,-2.0085,-2.0085,-2.0085,-2.0085,-2.0085,-2.0151,-2.0151,-2.0518,-2.0933,-2.1567,-2.1608,-2.1836,-2.2297,-2.2437,-2.2616,-2.2854,-2.3387,-2.3779,-2.4005,-2.3752,-2.3638,-2.3626,-2.3236,-2.32,-2.3341,-2.2992,-2.2865,-2.2876,-2.2878,-2.285,-2.2895,-2.3239,-2.3519,-2.3677,-2.3824,-2.4055,-2.42,0.0,0.0,0.0,0.0,0.0,0.0,0.0,0.0,0.0,0.0,0.0,0.0,-0.7549,-0.7608,-0.7451,-0.679,-0.6837,-0.6513,-0.5554,-0.4877,-0.451,-0.4562,-0.4254,0.0,-0.4178,-0.4401,0.0,0.0,0.0,0.0,-0.6076,-0.6686,-0.6965,-0.6981,-0.7007,-0.7264,-0.7709,0.0,0.0,0.0,0.0,-0.7881,0.0,0.0,0.0,0.0,0.0,-0.6639,-0.6699,-0.6191,-0.6233,-0.652,-0.6526,-0.6526,-0.6526,0.0,0.0,0.0,0.0,0.0,0.0,0.0,0.0,0.0,0.0,0.0,0.0,0.0,0.0,0.0,0.0,0.0,0.0,0.0,-2.0085,-2.0085,-2.0085,-2.0085,-2.0085,-2.0085,-2.0085,-2.0085,-2.0085,-2.0085,-2.0151,-2.0346,-2.0711,-2.0978,-2.1204,-2.1835,-2.2166,-2.2201,-2.2532,-2.2718,-2.2673,-2.319,-2.3383,-2.3418,-2.3936,-2.4154,-2.4154,-2.4131,-2.4131,-2.4131,-2.3364,-2.3078,-2.3123,-2.3441,-2.3559,-2.3559,-2.3593,-2.3677,-2.3897,-2.3897,-2.4055,-2.42,0.0,0.0,0.0,0.0,0.0,0.0,0.0,0.0,0.0,0.0,0.0,0.0,0.0,-0.7565,-0.759,-0.7182,-0.6747,-0.6129,-0.5239,-0.4877,-0.4633,-0.4545,-0.4537,-0.4514,-0.4401,-0.4635,0.0,0.0,0.0,-0.5377,-0.6024,-0.6335,-0.6726,-0.7209,-0.8054,-0.7841,-0.7019,-0.8214,0.0,0.0,0.0,0.0,0.0,0.0,0.0,0.0,0.0,0.0,0.0,-0.7388,-0.6922,-0.6447,-0.6447,-0.6483,-0.6526,-0.6568,-0.6526,-0.6954,0.0,0.0,0.0,0.0,0.0,0.0,0.0,0.0,0.0,0.0,0.0,0.0,0.0,0.0,0.0,0.0,0.0,-2.0085,-2.0085,-2.0085,-2.0085,-2.0085,-2.0085,-2.0151,-2.0281,-2.0281,-2.041,-2.0604,-2.024,-2.0396,-2.1187,-2.1043,-2.1225,-2.1893,-2.2028,-2.2143,-2.2402,-2.2764,-2.2949,-2.296,-2.3465,-2.3718,-2.3718,-2.4051,-2.42,-2.4189,-2.3933,-2.3598,-2.3313,-2.3281,-2.3277,-2.33,-2.3554,-2.3751,-2.3897,-2.3897,-2.4055,-2.42,0.0,0.0,0.0,0.0,0.0,0.0,0.0,0.0,0.0,0.0,0.0,0.0,0.0,0.0,-0.7894,-0.734,-0.6738,-0.6121,-0.5515,-0.544,-0.5348,-0.5223,-0.5319,-0.5319,-0.5194,-0.5087,0.0,0.0,0.0,0.0,0.0,-0.6092,-0.6587,-0.7235,-0.8305,-0.84,0.0,0.0,0.0,-0.7693,0.0,0.0,-0.7967,0.0,0.0,0.0,0.0,0.0,0.0,0.0,-0.8543,-0.7797,-0.7392,-0.6929,-0.6477,-0.6483,-0.6526,-0.6847,-0.8215,0.0,0.0,0.0,0.0,0.0,0.0,0.0,0.0,0.0,0.0,0.0,0.0,0.0,0.0,0.0,0.0,-2.0205,-2.049,-2.0512,-2.0567,-2.0919,-2.0731,-2.0643,-2.0839,-2.0694,-2.0658,-2.0862,-2.0465,0.0,-2.1239,-2.0833,-2.0909,-2.1537,-2.1498,-2.1661,-2.1869,-2.2235,-2.2421,-2.2432,-2.2949,-2.3282,-2.3383,-2.3787,-2.4039,-2.42,-2.42,-2.4005,-2.3624,-2.3553,-2.3481,-2.3504,-2.3688,-2.3897,-2.397,-2.397,-2.4127,-2.42,0.0,0.0,0.0,0.0,0.0,0.0,0.0,0.0,0.0,-0.8859,0.0,0.0,0.0,0.0,0.0,-0.7223,-0.676,-0.6488,-0.6413,-0.654,-0.6584,-0.6584,-0.6548,-0.6518,-0.6584,-0.5757,0.0,0.0,0.0,0.0,0.0,0.0,-0.6625,-0.7005,-0.7711,-0.8917,-1.0407,0.0,-1.0113,-1.079,0.0,-1.0825,-0.9088,0.0,0.0,0.0,-1.0137,-1.0295,0.0,-1.0998,0.0,0.0,0.0,-0.7825,-0.6483,-0.6453,-0.6568,-0.6725,0.0,0.0,0.0,0.0,0.0,0.0,0.0,0.0,0.0,0.0,0.0,0.0,0.0,0.0,0.0,0.0,0.0,-2.0435,-2.1219,-2.1308,-2.1554,-2.2536,-2.1912,-2.1496,-2.1695,-2.1187,-2.0967,-2.1158,-2.1302,-2.1353,-2.1388,-2.1388,-2.1336,-2.1221,-2.1221,-2.1221,-2.1221,-2.1652,-2.1904,-2.1916,-2.2488,-2.2983,-2.3397,-2.3408,-2.3755,-2.4215,-2.4215,-2.4227,-2.4227,-2.4177,-2.42,-2.42,-2.42,-2.42,-2.42,-2.42,-2.42,-2.42,0.0,0.0,0.0,0.0,0.0,0.0,0.0,0.0,0.0,0.0,0.0,0.0,-0.8168,-0.8196,-0.8089,-0.766,-0.7281,-0.694,-0.6639,-0.6661,-0.6579,-0.6382,-0.6498,-0.641,-0.6098,-0.6009,-0.6097,0.0,0.0,0.0,0.0,0.0,0.0,0.0,-0.772,-0.8837,-0.9703,-0.9697,0.0,0.0,-1.0802,-1.0696,0.0,0.0,0.0,0.0,0.0,-1.2475,-1.2032,0.0,-1.1483,-0.9802,0.0,0.0,0.0,-0.6787,0.0,0.0,-0.6937,0.0,0.0,0.0,0.0,0.0,0.0,0.0,0.0,0.0,0.0,0.0,0.0,0.0,0.0,0.0,0.0,-2.026,-2.0642,-2.103,-2.1296,-2.128,-2.145,-2.1504,-2.1141,-2.0982,-2.0967,0.0,-2.0565,-2.0461,-2.1239,-2.1285,-2.1221,-2.1221,-2.1221,-2.1221,-2.1221,-2.1307,-2.1684,-2.2303,-2.2743,-2.3377,-2.4038,-2.4369,-2.4575,-2.4657,-2.4657,-2.4602,-2.4463,-2.4307,-2.42,-2.42,-2.42,-2.42,-2.42,-2.42,-2.42,-2.42,0.0,0.0,0.0,0.0,0.0,0.0,0.0,0.0,0.0,0.0,0.0,0.0,-0.8715,-0.848,-0.8289,-0.809,-0.7989,-0.7741,-0.735,-0.7548,-0.7657,-0.7516,-0.7589,-0.7531,-0.7274,-0.7024,-0.6966,0.0,0.0,0.0,0.0,0.0,0.0,0.0,0.0,0.0,0.0,0.0,0.0,0.0,-1.1233,0.0,0.0,-1.2562,-1.294,0.0,0.0,0.0,-1.3616,-1.4468,-1.3185,0.0,0.0,0.0,0.0,0.0,0.0,0.0,0.0,0.0,0.0,0.0,0.0,0.0,-1.1748,-1.3728,-1.5517,0.0,0.0,0.0,0.0,0.0,0.0,0.0,0.0,0.0,-2.0805,-2.1273,-2.1563,-2.1758,-2.1804,-2.167,-2.1449,-2.1209,-2.1146,-2.1273,-2.0827,-2.0746,-2.125,-2.1221,-2.1221,-2.1221,-2.1221,-2.1221,-2.1221,-2.1221,-2.1588,-2.2372,-2.2676,-2.3356,-2.4323,-2.4593,-2.4747,-2.4912,-2.4848,-2.4796,-2.4653,-2.4442,-2.4374,-2.4386,-2.4331,-2.4272,-2.4307,-2.4253,-2.42,-2.42,0.0,0.0,0.0,0.0,0.0,0.0,0.0,0.0,0.0,0.0,-0.9126,-0.9255,-0.968,-0.914,-0.8673,-0.8548,-0.8668,-0.868,-0.8364,-0.8885,-0.9233,-0.9253,-0.9249,-0.9214,-0.9219,-0.8499,-0.8063,0.0,0.0,0.0,0.0,0.0,0.0,0.0,0.0,0.0,0.0,0.0,0.0,-1.2752,-1.2378,-1.2727,0.0,0.0,-1.3873,-1.3354,-1.4627,-1.4888,-1.4873,-1.626,-1.5255,0.0,0.0,0.0,0.0,0.0,-0.941,0.0,0.0,0.0,0.0,0.0,0.0,0.0,-1.1522,-1.3897,-1.617,-1.6697,-1.8278,0.0,0.0,0.0,0.0,0.0,0.0,0.0,-2.1187,-2.1627,-2.2053,-2.2796,-2.2298,-2.197,-2.2055,-2.1678,-2.1388,-2.1388,-2.1549,-2.1561,-2.14,-2.1336,-2.1348,-2.1348,-2.14,-2.1463,-2.1463,-2.1463,-2.1827,-2.2543,-2.2604,-2.3265,-2.433,-2.4464,-2.4674,-2.5088,-2.4975,-2.4849,-2.4798,-2.4683,-2.4618,-2.4601,-2.4481,-2.4414,-2.4405,-2.4281,-2.42,-2.42,-1.019,0.0,0.0,0.0,0.0,0.0,0.0,0.0,0.0,-0.9312,-0.9208,-0.9179,-0.9171,-0.9046,-0.886,-0.8674,-0.8692,-0.8896,-0.9301,-0.9685,-0.9823,-0.9691,-0.9844,-0.9742,-0.9466,-0.945,-0.9583,0.0,0.0,0.0,0.0,0.0,0.0,0.0,0.0,0.0,0.0,0.0,0.0,-1.2161,-1.2223,0.0,-1.3835,-1.4935,-1.5022,-1.4733,-1.5782,-1.5838,-1.543,-1.529,-1.4948,-1.4209,0.0,0.0,0.0,0.0,0.0,0.0,0.0,0.0,0.0,0.0,0.0,0.0,-1.2278,-1.3155,-1.4296,0.0,-1.6245,0.0,0.0,0.0,0.0,0.0,0.0,0.0,-1.9689,-2.1083,-2.1578,-2.0534,-2.1452,-2.1962,-2.1417,-2.1279,-2.1221,-2.1221,-2.1296,-2.1296,-2.1221,-2.1827,-2.2199,-2.2199,-2.2774,-2.3062,-2.3062,-2.3062,-2.3122,-2.3301,-2.3936,-2.4394,-2.4629,-2.5297,-2.5604,-2.5545,-2.5545,-2.5374,-2.5128,-2.4977,-2.482,-2.4601,-2.4481,-2.4414,-2.4405,-2.4281,-2.42,-2.42,-1.0137,0.0,0.0,0.0,0.0,0.0,0.0,0.0,0.0,-0.8958,-0.8997,-0.9224,-0.9623,-0.9576,-0.9432,-0.9298,-0.9456,-0.9611,-0.9746,-1.0154,-1.0389,-1.0362,-1.0644,-1.0625,-1.0203,-1.0736,-1.0734,0.0,0.0,0.0,0.0,0.0,0.0,0.0,0.0,0.0,0.0,0.0,-1.0769,-1.1797,-1.2319,0.0,-1.4541,-1.5588,-1.5861,-1.5742,-1.6208,-1.6374,-1.626,-1.5512,-1.5212,0.0,0.0,-1.2273,-1.1272,0.0,-1.0274,-1.0,0.0,0.0,0.0,-1.0775,0.0,0.0,0.0,-1.3273,-1.4082,-1.5423,-1.6103,-1.6493,0.0,0.0,0.0,0.0,0.0,0.0,0.0,-1.9618,-2.0772,-2.0458,-2.1215,-2.1574,-2.1256,-2.1221,-2.1221,-2.1221,-2.1221,-2.1221,-2.1221,-2.1951,-2.2372,-2.2372,-2.3135,-2.3479,-2.3479,-2.3479,-2.3702,-2.4111,-2.4513,-2.4924,-2.5287,-2.5715,-2.5839,-2.5784,-2.5729,-2.5619,-2.5411,-2.4874,-2.4732,-2.4772,-2.4493,-2.4414,-2.4405,-2.4281,-2.42,-2.42,-1.0134,0.0,0.0,0.0,0.0,0.0,0.0,0.0,0.0,-0.8882,-0.915,-0.9739,-1.0625,0.0,0.0,0.0,-1.0752,-1.0752,0.0,0.0,-1.1323,-1.1274,-1.1549,-1.158,-1.1235,-1.1975,-1.1723,-1.0439,0.0,0.0,0.0,0.0,0.0,0.0,0.0,0.0,0.0,0.0,0.0,-1.2039,0.0,-1.3932,-1.4976,-1.5991,-1.6431,-1.6452,-1.6686,-1.6929,-1.7036,-1.6182,-1.5698,-1.5478,-1.4986,-1.3614,0.0,0.0,0.0,0.0,0.0,0.0,0.0,0.0,0.0,-1.1548,0.0,0.0,0.0,-1.5239,-1.6123,0.0,0.0,0.0,0.0,0.0,0.0,0.0,0.0,-1.7881,0.0,-2.0194,-2.0469,-2.0584,-2.0584,-2.0768,-2.1014,-2.121,-2.1285,-2.1336,-2.1221,-2.2249,-2.2725,-2.2604,-2.3479,-2.3949,-2.3949,-2.3949,-2.4226,-2.4684,-2.4867,-2.5161,-2.5646,-2.5839,-2.5893,-2.5893,-2.5784,-2.5729,-2.5619,-2.4872,-2.478,-2.5132,-2.4509,-2.433,-2.4405,-2.4281,-2.42,-2.42,-1.1495,-1.0804,0.0,0.0,0.0,0.0,0.0,0.0,0.0,0.0,0.0,0.0,0.0,0.0,0.0,0.0,0.0,0.0,-1.1158,0.0,0.0,-1.2614,-1.2499,-1.2457,-1.2393,-1.2815,-1.2826,-1.2488,0.0,0.0,0.0,0.0,0.0,0.0,-1.2152,0.0,0.0,0.0,-1.2858,0.0,-1.4842,-1.486,0.0,-1.5877,-1.6477,-1.6686,-1.7673,-1.7962,-1.7746,0.0,-1.6123,-1.5535,0.0,-1.3403,-1.2254,0.0,0.0,0.0,0.0,0.0,0.0,0.0,-1.1682,0.0,0.0,0.0,-1.4406,-1.4678,0.0,0.0,0.0,0.0,0.0,0.0,0.0,0.0,-1.5708,-1.6443,-1.7014,-1.7128,-1.789,-1.8428,-1.8428,-1.9321,-2.0217,-2.1164,-2.1702,-2.1753,-2.1221,-2.3148,-2.3975,-2.342,-2.4824,-2.566,-2.566,-2.566,-2.53,-2.4684,-2.5412,-2.5467,-2.4867,-2.5591,-2.5893,-2.5893,-2.5893,-2.5784,-2.5661,-2.549,-2.5508,-2.568,-2.4251,-2.4006,-2.4405,-2.4281,-2.42,-2.42,-1.1819,-1.097,0.0,0.0,0.0,0.0,0.0,0.0,0.0,0.0,0.0,0.0,0.0,0.0,0.0,0.0,0.0,-1.4525,0.0,0.0,0.0,0.0,-1.2838,-1.2354,-1.2354,-1.2733,-1.2626,-1.1977,-1.2542,0.0,0.0,0.0,0.0,0.0,-1.252,0.0,-1.3716,0.0,0.0,0.0,0.0,0.0,0.0,-1.6911,-1.7497,-1.7567,-1.7743,-1.8027,-1.808,0.0,-1.6761,0.0,0.0,0.0,0.0,0.0,0.0,0.0,0.0,0.0,0.0,0.0,0.0,0.0,-1.4142,0.0,-1.3954,0.0,0.0,0.0,0.0,0.0,0.0,0.0,-1.479,0.0,0.0,0.0,-1.6187,0.0,0.0,0.0,-1.8988,-1.8885,-1.9206,-2.024,-2.0962,-2.1234,-2.095,-2.3283,-2.4469,-2.4226,-2.53,-2.5893,-2.5893,-2.5839,-2.5605,-2.53,-2.5605,-2.5605,-2.53,-2.5715,-2.5893,-2.5893,-2.5893,-2.5893,-2.5798,-2.5279,-2.5261,-2.5593,-2.4734,-2.4678,-2.5019,-2.4897,-2.4625,-2.4331,-1.213,0.0,0.0,0.0,0.0,0.0,0.0,0.0,0.0,0.0,0.0,0.0,-1.363,-1.3563,0.0,0.0,-1.6041,-1.617,0.0,0.0,-1.4622,0.0,0.0,0.0,0.0,-1.2815,-1.2386,-1.1567,-1.2165,0.0,0.0,0.0,0.0,0.0,0.0,-1.3318,-1.3889,0.0,0.0,-1.5754,-1.6048,-1.6581,-1.7299,-1.8083,-1.8459,-1.8545,-1.8462,-1.8577,-1.8637,-1.7416,-1.7478,0.0,-1.6809,0.0,0.0,0.0,0.0,0.0,-1.4058,0.0,0.0,0.0,0.0,0.0,0.0,0.0,0.0,0.0,0.0,0.0,0.0,0.0,0.0,0.0,0.0,-1.5152,0.0,0.0,0.0,0.0,0.0,0.0,0.0,-1.8426,-1.8393,-1.9206,-2.0199,-2.0787,-2.0787,-2.3197,-2.4584,-2.4641,-2.537,-2.5798,-2.5798,-2.5688,-2.5674,-2.5729,-2.5729,-2.5729,-2.5784,-2.5839,-2.5893,-2.5893,-2.5893,-2.5893,-2.5839,-2.5287,-2.5361,-2.5797,-2.5551,-2.5521,-2.564,-2.5438,-2.4941,-2.4461,-1.2817,-1.2117,0.0,0.0,0.0,0.0,0.0,0.0,0.0,0.0,0.0,0.0,0.0,0.0,0.0,0.0,0.0,-1.6997,-1.5137,0.0,-1.6418,0.0,0.0,-1.2949,0.0,0.0,-1.2578,-1.2081,0.0,0.0,0.0,0.0,0.0,0.0,0.0,-1.2967,-1.4236,-1.5038,-1.6169,-1.749,-1.8498,-1.9414,-2.0125,0.0,-1.8993,-1.9452,-2.0295,0.0,0.0,-1.9099,-1.8264,0.0,0.0,0.0,0.0,0.0,0.0,0.0,0.0,0.0,0.0,-1.4419,0.0,0.0,0.0,0.0,-1.3456,0.0,0.0,0.0,0.0,0.0,0.0,-1.4302,0.0,0.0,0.0,0.0,0.0,0.0,0.0,0.0,0.0,-1.7535,-1.8096,-1.813,-1.9681,-2.0685,-2.0787,-2.3051,-2.4394,-2.4509,-2.5188,-2.5494,-2.5494,-2.5494,-2.5592,-2.5729,-2.5729,-2.5784,-2.5893,-2.5893,-2.5893,-2.5893,-2.5893,-2.5893,-2.5893,-2.5893,-2.6162,-2.6564,-2.6535,-2.6362,-2.6018,-2.5627,-2.5103,-2.4576,0.0,0.0,0.0,0.0,0.0,0.0,0.0,-1.2135,0.0,0.0,0.0,0.0,0.0,-1.6971,-1.71,0.0,0.0,-1.9454,-1.8449,-1.8208,0.0,0.0,0.0,-1.5325,0.0,0.0,0.0,0.0,0.0,0.0,0.0,0.0,0.0,0.0,0.0,-1.2977,0.0,0.0,0.0,0.0,0.0,-1.9445,-1.9532,0.0,-2.0023,-2.0306,-2.0602,-2.0621,0.0,-1.9569,-1.9381,-1.9499,-1.9219,-1.8585,-1.8121,-1.9226,-1.8427,-1.7233,0.0,0.0,-1.799,-1.7389,0.0,0.0,0.0,0.0,0.0,0.0,0.0,0.0,0.0,0.0,-1.5164,-1.4946,-1.5196,0.0,0.0,0.0,0.0,0.0,0.0,0.0,0.0,0.0,0.0,-1.7642,-1.9032,-1.9863,-1.9924,-2.2647,-2.4199,-2.4238,-2.5202,-2.5743,-2.5743,-2.5688,-2.5633,-2.5592,-2.5688,-2.5619,-2.5453,-2.5784,-2.5839,-2.5784,-2.5839,-2.5893,-2.5893,-2.5893,-2.5965,-2.6148,-2.6468,-2.63,-2.5894,-2.6235,-2.5691,-2.4695,-1.4406,0.0,0.0,0.0,0.0,0.0,0.0,0.0,0.0,0.0,-1.5218,0.0,-1.8475,0.0,-1.8373,0.0,-1.9807,-2.0093,-2.0204,-1.8646,0.0,-2.0222,-1.7474,0.0,0.0,0.0,0.0,0.0,0.0,-1.1793,0.0,0.0,0.0,0.0,0.0,0.0,0.0,0.0,-1.7005,0.0,0.0,-1.9743,0.0,0.0,-2.0781,-2.1091,0.0,-2.1447,-2.1441,-2.0546,-2.0631,-2.0963,-2.0408,-2.0011,-1.9868,-2.0572,-1.9984,-1.9122,-1.9537,-1.9778,0.0,-1.9159,-1.865,0.0,-1.7567,0.0,-1.5023,0.0,0.0,0.0,0.0,0.0,0.0,-1.5482,-1.539,-1.5312,0.0,-1.5165,0.0,0.0,0.0,0.0,0.0,0.0,-1.6681,-1.7183,-1.8331,-1.9158,0.0,-2.2081,-2.3682,-2.3951,-2.5154,-2.5743,-2.5743,-2.5688,-2.5592,-2.5592,-2.5688,-2.5619,-2.5453,-2.5729,-2.5784,-2.5784,-2.5784,-2.5839,-2.5893,-2.5893,-2.5893,-2.5936,-2.6246,-2.6092,-2.5786,-2.6331,-2.586,-2.4839,0.0,0.0,0.0,0.0,-1.3154,0.0,0.0,0.0,-1.5879,0.0,-1.796,-1.7987,-1.9424,-1.8363,-1.7967,-1.9008,-1.8703,-1.903,-2.022,-1.7419,0.0,0.0,-1.7143,-1.6159,-1.9121,0.0,0.0,0.0,0.0,0.0,0.0,0.0,0.0,0.0,-1.1518,0.0,-1.302,-1.498,-1.6501,-1.77,-1.9253,-2.0456,-2.1351,-2.1043,-2.1277,-2.1888,-2.2456,-2.2685,-2.2604,-2.2122,-2.1962,-2.187,-2.1365,-2.1256,-2.1256,-2.1233,-2.1221,-2.1221,-2.1221,-2.0903,-2.0411,-1.9603,-1.9164,0.0,0.0,0.0,-1.7148,0.0,0.0,0.0,0.0,0.0,0.0,-1.5984,-1.5582,-1.5312,0.0,0.0,0.0,0.0,0.0,0.0,0.0,-1.6656,-1.707,-1.6713,-1.7612,0.0,0.0,-2.1402,-2.2894,-2.3747,-2.4789,-2.537,-2.5453,-2.5425,-2.5522,-2.5632,-2.5715,-2.5784,-2.5893,-2.5784,-2.5784,-2.5893,-2.5784,-2.5784,-2.5893,-2.5948,-2.5948,-2.5893,-2.5893,-2.5839,-2.5744,-2.5988,-2.5636,-2.5007,-1.444,-1.4124,-1.4092,0.0,-1.4088,-1.4619,0.0,0.0,0.0,0.0,-1.9397,-1.972,-2.0189,-2.0849,-2.0526,-1.8839,-1.9365,0.0,0.0,0.0,0.0,-2.1705,-2.1192,-2.0816,-2.0741,-1.965,0.0,-1.8153,0.0,0.0,-1.4079,0.0,0.0,0.0,0.0,0.0,-1.3042,-1.5378,-1.7311,-1.889,-1.8729,-1.9516,-2.0935,0.0,-2.2093,-2.296,-2.2777,-2.2685,-2.2662,-2.2524,-2.2478,-2.2398,-2.1893,-2.1732,-2.1652,-2.1273,-2.1221,-2.1221,-2.1221,-2.1094,-2.0962,-2.0774,-2.0424,-2.0063,0.0,0.0,0.0,0.0,0.0,0.0,0.0,0.0,0.0,0.0,0.0,0.0,0.0,0.0,0.0,-1.5153,0.0,0.0,0.0,-1.5918,-1.6458,-1.6693,-1.732,0.0,0.0,0.0,-2.1609,-2.3742,-2.3192,-2.3539,-2.4952,-2.4507,-2.4507,-2.4898,-2.556,-2.5743,-2.5592,-2.5853,-2.5948,-2.5893,-2.6204,-2.6258,-2.6233,-2.6312,-2.6258,-2.6233,-2.6233,-2.6056,-2.5798,-2.5507,-2.545,-2.545,-1.4639,0.0,0.0,-1.4144,0.0,0.0,-1.6718,0.0,0.0,-2.0489,-2.0873,0.0,-2.2623,-2.3444,-2.3409,-2.2204,-2.1519,0.0,-2.1606,0.0,0.0,-2.2664,-2.2513,-2.2158,-2.1554,-2.1402,0.0,-1.9865,0.0,0.0,-1.573,0.0,0.0,0.0,0.0,-1.28,0.0,-1.6019,-1.8245,-2.0061,-1.9738,-2.0603,0.0,-2.2355,-2.3092,-2.399,-2.3651,-2.3478,-2.3305,-2.3087,-2.3018,-2.2926,-2.2421,-2.2111,-2.1935,-2.1958,-2.1764,-2.1639,-2.1939,-2.2002,-2.2002,-2.2002,-2.1957,-2.1844,-2.1786,-2.1461,-2.1311,0.0,-2.1532,-2.1195,0.0,0.0,0.0,0.0,0.0,0.0,0.0,0.0,0.0,0.0,-1.5994,0.0,0.0,-1.6207,-1.6552,-1.668,-1.7131,0.0,0.0,0.0,-2.0972,-2.2124,-2.2477,-2.2845,-2.3153,-2.2818,-2.3034,-2.382,-2.4361,-2.4822,-2.5149,-2.5631,-2.5658,-2.5338,-2.5983,-2.6204,-2.6165,-2.6418,-2.6418,-2.6286,-2.6286,-2.6179,-2.5976,-2.6022,-2.6038,-2.6089,0.0,0.0,0.0,0.0,0.0,0.0,0.0,-1.8137,0.0,-2.2489,0.0,-2.3136,-2.5275,-2.5633,-2.5915,-2.6377,0.0,-2.3197,-2.482,-2.1575,-2.0882,-2.3774,-2.2635,-2.2074,-2.2286,-2.2612,0.0,0.0,0.0,0.0,0.0,0.0,0.0,0.0,0.0,0.0,0.0,-1.6688,-1.8965,-2.098,-2.1169,-2.2274,-2.3715,-2.3498,-2.4014,-2.479,-2.482,-2.4553,-2.4204,-2.3814,-2.3629,-2.3479,-2.3096,-2.2585,-2.222,-2.2795,-2.2611,-2.2347,-2.2967,-2.3088,-2.31,-2.3223,-2.3424,-2.3623,-2.3628,-2.38,-2.4097,-2.4509,-2.415,-2.3778,-2.3914,0.0,0.0,0.0,0.0,0.0,0.0,0.0,0.0,0.0,0.0,0.0,0.0,0.0,0.0,0.0,0.0,0.0,0.0,0.0,-2.0549,-2.0216,-2.2152,-2.2533,-2.1125,-2.0996,-2.1605,-2.292,-2.2936,-2.3534,-2.4623,-2.5259,-2.5217,-2.4579,-2.5598,-2.596,-2.5889,-2.6375,-2.6486,-2.634,-2.634,-2.6272,-2.6236,-2.693,-2.7032,-2.6902,0.0,0.0,0.0,0.0,0.0,-1.844,-2.0996,-2.2133,-2.3098,-2.4431,-2.4913,-2.5094,-2.4862,-2.5873,-2.6022,-2.4694,-2.42,0.0,0.0,0.0,0.0,-2.4494,-2.4425,-2.4321,-2.4206,-2.4428,-2.4512,0.0,0.0,0.0,0.0,0.0,0.0,0.0,0.0,0.0,-1.707,-1.6945,0.0,-2.1272,-2.0822,-2.1762,-2.3429,-2.3707,-2.4292,-2.5059,-2.5595,-2.5164,-2.4539,-2.4956,-2.4704,-2.4261,-2.4505,-2.4089,-2.3392,-2.312,-2.2982,-2.2967,-2.3088,-2.3088,-2.3308,-2.4042,-2.4196,-2.434,-2.5095,-2.5216,-2.5188,-2.5313,-2.5244,-2.5189,-2.5149,0.0,0.0,0.0,0.0,0.0,0.0,0.0,0.0,0.0,0.0,-1.8035,0.0,0.0,0.0,0.0,0.0,0.0,0.0,0.0,-1.935,0.0,-2.0748,-2.0776,0.0,0.0,-2.1712,-2.3389,-2.2995,-2.3432,-2.4623,-2.5558,-2.5289,-2.4124,-2.6012,-2.6303,-2.5569,-2.6495,-2.6832,-2.6674,-2.6525,-2.6457,-2.649,-2.719,-2.7709,-2.8126,0.0,0.0,0.0,0.0,0.0,0.0,0.0,-2.4169,-2.5617,-2.5394,-2.6088,-2.6585,-2.663,-2.7635,-2.7878,-2.7045,-2.6444,-2.6226,-2.654,-2.5693,-2.5377,-2.5761,-2.589,0.0,-2.4433,-2.5122,-2.497,-2.4014,0.0,0.0,-1.9746,0.0,0.0,0.0,0.0,-1.7075,0.0,0.0,0.0,-2.2639,-2.2687,-2.3427,-2.4545,-2.4816,-2.5279,-2.5845,-2.6074,-2.6047,-2.5906,-2.6133,-2.5959,-2.5697,-2.5902,-2.5627,-2.5192,-2.5221,-2.5179,-2.5123,-2.5434,-2.5566,-2.5633,-2.6094,-2.5976,-2.585,-2.6224,-2.6064,-2.5812,-2.5702,-2.5702,-2.5507,-2.4813,-2.3444,0.0,0.0,0.0,0.0,0.0,0.0,0.0,0.0,0.0,0.0,0.0,0.0,0.0,0.0,0.0,0.0,0.0,0.0,-1.9145,0.0,0.0,0.0,-2.0647,0.0,-2.1233,-2.2392,-2.2267,-2.2812,-2.3875,-2.4482,-2.4406,-2.3854,-2.5388,-2.5997,-2.5921,-2.6582,-2.6846,-2.6779,-2.6712,-2.6645,-2.6732,-2.7368,-2.8018,-2.8611,0.0,-1.6959,0.0,0.0,-1.9824,0.0,-2.2887,-2.548,-2.7037,-2.6385,-2.6963,-2.774,-2.8586,-2.9246,-2.9504,-2.9237,-2.8577,-2.8141,-2.8099,-2.7537,-2.7031,-2.6638,-2.6736,-2.6062,-2.454,-2.5402,-2.5187,0.0,0.0,0.0,-2.0743,0.0,0.0,0.0,0.0,0.0,0.0,0.0,-2.2919,-2.4086,-2.4588,-2.5205,-2.5892,-2.5961,-2.6331,-2.6817,-2.687,-2.7153,-2.7486,-2.7446,-2.7207,-2.6971,-2.7236,-2.6973,-2.6767,-2.7269,-2.725,-2.712,-2.7647,-2.7792,-2.7792,-2.785,-2.7442,-2.706,-2.6962,-2.6468,-2.6002,-2.5893,-2.5893,-2.5544,-2.4473,-2.403,0.0,0.0,0.0,0.0,0.0,0.0,0.0,0.0,0.0,0.0,-1.9905,0.0,0.0,0.0,0.0,0.0,-1.7734,0.0,0.0,0.0,0.0,-2.0441,-1.9714,0.0,-2.084,-2.1803,-2.1903,-2.236,-2.3189,-2.371,-2.3771,-2.3557,-2.4859,-2.5788,-2.6418,-2.6712,-2.6779,-2.6712,-2.6779,-2.6779,-2.6785,-2.7345,-2.8013,-2.8724,0.0,0.0,0.0,0.0,0.0,0.0,-2.6309,-2.6715,-2.7009,-2.7996,-2.8246,-2.8614,-2.9386,-2.956,-2.9167,-2.8043,-2.8872,-2.8507,-2.6301,-2.7636,-2.7762,-2.6062,-2.6512,-2.6469,-2.5739,-2.5837,-2.5837,0.0,0.0,-2.3027,0.0,0.0,0.0,0.0,0.0,0.0,0.0,-2.2256,-2.3402,-2.4875,-2.484,-2.5579,-2.6648,-2.6617,-2.7069,-2.7739,-2.8302,-2.8554,-2.8661,-2.9157,-2.837,-2.7264,-2.8243,-2.8038,-2.7537,-2.7687,-2.7703,-2.772,-2.7778,-2.7792,-2.785,-2.7967,-2.747,-2.6962,-2.706,-2.6509,-2.5893,-2.5893,-2.5893,-2.5797,-2.5576,-2.4707,-2.3546,0.0,0.0,0.0,0.0,0.0,0.0,0.0,0.0,0.0,0.0,-1.8809,0.0,0.0,-1.7855,0.0,0.0,0.0,0.0,-1.9659,-1.9179,-1.9152,-1.97,-1.9935,-2.1041,-2.3013,-2.2825,-2.2857,-2.3229,-2.4655,-2.4364,-2.2825,-2.518,-2.6414,-2.6779,-2.6779,-2.6712,-2.6578,-2.6712,-2.6712,-2.6578,-2.6785,-2.7636,-2.8608,0.0,0.0,0.0,0.0,0.0,0.0,0.0,-2.7917,-2.8707,-2.9153,-2.8976,-2.9011,-2.9449,-2.954,-2.942,-2.8914,-2.9321,-2.9181,-2.8183,-2.883,-2.8745,-2.7621,-2.7453,-2.7102,-2.6455,-2.609,-2.5893,0.0,0.0,0.0,0.0,0.0,0.0,0.0,0.0,-2.2995,-2.3319,-2.4176,-2.4943,-2.5522,-2.5463,-2.6005,-2.6778,-2.6801,-2.7415,-2.8352,-2.8605,-2.8928,-2.9279,-2.9532,-2.9171,-2.8699,-2.91,-2.9116,-2.8904,-2.9011,-2.9132,-2.9326,-2.9326,-2.9054,-2.8754,-2.8827,-2.7897,-2.706,-2.7102,-2.6509,-2.5893,-2.5893,-2.5893,-2.5893,-2.5839,-2.5378,-2.4651,-2.3406,0.0,0.0,0.0,0.0,0.0,0.0,0.0,0.0,0.0,0.0,0.0,0.0,0.0,0.0,0.0,0.0,0.0,-2.069,0.0,-2.0636,-2.2633,-2.1904,-2.2484,-2.4288,-2.3626,-2.3616,-2.4024,-2.3961,-2.4044,-2.438,-2.5812,-2.6578,-2.6779,-2.6568,-2.6553,-2.6712,-2.6645,-2.6645,-2.6712,-2.6779,-2.7592,-2.8594,-2.6129,0.0,-2.4546,0.0,-2.6515,-2.7341,-2.706,-2.8632,-2.9685,-2.9072,-2.9175,-2.9401,-2.9602,-2.9665,-2.9586,-2.9205,-2.9515,-2.9355,-2.8623,-2.9195,-2.9167,-2.8183,-2.7902,0.0,-2.6821,-2.6217,-2.5893,-2.5893,-2.4137,0.0,0.0,0.0,-2.1931,-2.2788,-2.4089,-2.4653,-2.4709,-2.5528,-2.5893,-2.5893,-2.5893,-2.6259,-2.6807,-2.6807,-2.7481,-2.8422,-2.8422,-2.8703,-2.9069,-2.9069,-2.9069,-2.9125,-2.9538,-2.9775,-2.9856,-2.9671,-2.9797,-2.9995,-2.9748,-2.9375,-2.9001,-2.8756,-2.7926,-2.7045,-2.6805,-2.6313,-2.5893,-2.5893,-2.5893,-2.5893,-2.5893,-2.5839,-2.5378,-2.4212,0.0,0.0,0.0,-2.2184,0.0,0.0,-2.2409,-2.2081,-2.328,-2.1319,0.0,0.0,0.0,0.0,0.0,0.0,0.0,0.0,0.0,0.0,-2.3289,-2.2429,-2.2986,-2.498,-2.4661,-2.457,-2.4674,-2.3877,-2.4287,-2.5707,-2.6256,-2.663,-2.6779,-2.6553,-2.6553,-2.6712,-2.6645,-2.6645,-2.6741,-2.6982,-2.7752,-2.8608,-2.8717,-2.8831,-2.9001,-2.9624,-2.9903,-2.932,-2.703,-2.8647,-2.938,-2.7315,-2.8615,-2.9884,-3.005,-3.0111,-2.9611,-2.834,-2.9174,-2.8774,-2.6323,-2.8299,-2.8774,0.0,0.0,-2.7481,-2.6821,-2.6217,-2.5893,-2.5893,0.0,0.0,-2.4089,-2.4075,-2.4075,-2.4146,-2.5331,-2.5879,-2.5879,-2.5879,-2.5893,-2.5893,-2.5893,-2.6259,-2.6807,-2.6807,-2.7214,-2.779,-2.779,-2.7804,-2.7804,-2.7804,-2.7804,-2.806,-2.9379,-2.996,-2.9997,-2.9383,-2.9287,-2.9246,-2.8455,-2.8211,-2.8068,-2.7328,-2.7102,-2.6876,-2.6103,-2.5893,-2.5893,-2.5893,-2.5893,-2.5893,-2.5893,-2.5893,-2.5432,-2.411,0.0,0.0,0.0,-2.2137,0.0,-2.2198,-2.1027,-2.0762,-2.2086,-2.0851,0.0,0.0,0.0,0.0,0.0,0.0,0.0,-1.8904,-1.7131,0.0,-2.0213,-2.0443,-2.2041,-2.498,-2.5877,-2.5795,-2.498,-2.5123,-2.5607,-2.6283,-2.6457,-2.663,-2.6779,-2.6779,-2.6712,-2.651,-2.6712,-2.6712,-2.6582,-2.7422,-2.8129,-2.8681,-2.6688,-2.9011,-3.085,-2.9746,-3.0773,-3.1449,-3.0568,-3.0812,-3.0758,-3.0047,-3.0165,-3.0387,-3.0462,-3.0233,-2.9954,0.0,-2.9009,-2.8767,0.0,-2.8722,-2.8748,-2.9018,-2.7698,-2.6731,-2.6353,-2.5388,-2.4812,-2.4695,0.0,0.0,-2.4118,-2.4118,-2.4568,-2.5331,-2.5725,-2.5893,-2.5893,-2.5893,-2.5893,-2.5893,-2.5893,-2.6259,-2.6807,-2.6807,-2.7214,-2.7776,-2.7776,-2.7776,-2.7776,-2.7776,-2.7776,-2.7846,-2.8285,-2.8471,-2.8502,-2.8304,-2.8337,-2.8396,-2.8139,-2.7769,-2.7399,-2.7144,-2.6664,-2.6187,-2.5936,-2.5893,-2.5893,-2.5893,-2.5893,-2.5893,-2.5893,-2.5893,-2.5486,-2.4264,-2.4769,0.0,-2.3582,0.0,-2.3512,-2.3512,-2.2353,-2.2086,-2.3385,-2.2183,0.0,0.0,0.0,0.0,0.0,0.0,0.0,0.0,-2.1074,0.0,-2.421,-2.3003,-2.3692,-2.6199,-2.5888,-2.5554,-2.528,-2.5759,-2.6179,-2.6659,-2.6525,-2.663,-2.6779,-2.6553,-2.6553,-2.6712,-2.6645,-2.6645,-2.6785,-2.7436,-2.8129,-2.8739,-2.804,-3.028,-3.2009,-3.0733,-3.1589,-3.2202,-3.1305,-3.1575,-3.1478,-3.0355,-3.0621,-3.0843,-3.0597,-3.0401,0.0,-3.028,-2.9488,-2.9299,-3.0101,-2.9354,-2.9283,-3.0083,-2.8484,-2.7338,-2.6819,-2.5934,0.0,-2.4755,-2.4755,-2.4755,-2.4755,-2.4755,-2.5163,-2.5893,-2.5893,-2.5893,-2.5893,-2.5893,-2.5893,-2.5893,-2.5893,-2.6132,-2.6469,-2.6469,-2.6722,-2.7074,-2.7074,-2.7074,-2.7074,-2.7074,-2.7074,-2.7074,-2.7074,-2.7074,-2.7116,-2.7355,-2.7512,-2.7627,-2.7272,-2.6933,-2.6636,-2.6636,-2.6284,-2.5893,-2.5893,-2.5893,-2.5893,-2.5893,-2.5893,-2.5893,-2.5893,-2.5893,-2.564,-2.4882,-2.5402,-2.5626,-2.4854,0.0,-2.4118,0.0,0.0,-2.2724,0.0,-2.3301,-2.279,0.0,0.0,0.0,0.0,0.0,-2.1505,-2.2594,-2.2235,-2.3049,-2.5166,-2.4013,-2.4568,-2.6779,-2.6202,-2.5949,-2.5949,-2.6299,-2.6592,-2.6779,-2.6659,-2.6712,-2.6779,-2.6568,-2.6621,-2.6779,-2.6645,-2.6857,-2.7215,-2.7853,-2.8492,-2.9131,-3.1747,-3.2234,-3.2535,-3.2277,-3.2492,-3.1985,-3.0024,-3.1344,-3.1652,-2.9015,-3.0346,-3.1293,-3.0698,-3.0611,-3.0568,-3.0568,0.0,0.0,-3.0312,-3.0133,-3.0025,-3.0111,-2.959,-2.8842,-2.7911,-2.7398,-2.6759,-2.5893,-2.5893,-2.5893,-2.5893,-2.5893,-2.5893,-2.5893,-2.5893,-2.5893,-2.5893,-2.5893,-2.5893,-2.5893,-2.5893,-2.5893,-2.5893,-2.5893,-2.5893,-2.5893,-2.5893,-2.5893,-2.5893,-2.5893,-2.5893,-2.5893,-2.5893,-2.5893,-2.6006,-2.6582,-2.6863,-2.6847,-2.6103,-2.5893,-2.5893,-2.5893,-2.5893,-2.5893,-2.5893,-2.5893,-2.5893,-2.5893,-2.5893,-2.5893,-2.5893,-2.5893,-2.5893,-2.5893,-2.5893,-2.5865,-2.5781,-2.4783,-2.4025,0.0,0.0,0.0,-2.3991,-2.4202,-2.4151,0.0,0.0,0.0,0.0,0.0,-2.064,-2.1384,-2.1443,-2.2203,-2.3774,-2.3789,-2.4811,-2.6779,-2.6779,-2.6779,-2.6779,-2.6779,-2.6779,-2.6779,-2.6779,-2.6779,-2.6779,-2.6779,-2.6779,-2.6779,-2.6837,-2.7215,-2.781,-2.8492,-2.9116,-2.9726,-2.8973,0.0,-3.3499,-3.1942,-3.2912,-3.3686,-3.2987,-3.3071,-3.289,-3.1947,-3.1656,-3.1467,-3.1308,-3.0872,-3.0568,-3.0568,-2.9682,-2.9479,-3.045,-2.9609,-2.945,-3.0418,-2.9044,-2.7828,-2.696,-2.6246,-2.5877,-2.5729,-2.5839,-2.5839,-2.5729,-2.5839,-2.5893,-2.5893,-2.5893,-2.5893,-2.5893,-2.5893,-2.5893,-2.5893,-2.5893,-2.5893,-2.5893,-2.5893,-2.5893,-2.5893,-2.5893,-2.5893,-2.5893,-2.5893,-2.5893,-2.5893,-2.5784,-2.5729,-2.5812,-2.6062,-2.6173,-2.6131,-2.5826,-2.5729,-2.5729,-2.5647,-2.5688,-2.5784,-2.5893,-2.5893,-2.5893,-2.5784,-2.5839,-2.5893,-2.5784,-2.5839,-2.5893,-2.5893,-2.5893,-2.557,-2.4681,-2.4147,-2.3551,0.0,-2.3112,-2.3579,-2.4039,-2.491,-2.5078,0.0,0.0,-2.3589,-2.414,-2.3505,-2.3574,-2.4598,-2.4693,-2.499,-2.5512,-2.5616,-2.6055,-2.6779,-2.6779,-2.6779,-2.6779,-2.6779,-2.6779,-2.6779,-2.6779,-2.6779,-2.6779,-2.6779,-2.6779,-2.6837,-2.7316,-2.7592,-2.7868,-2.8985,-2.9493,-2.9726,-3.0928,-3.2745,-3.408,-3.3021,-3.3636,-3.421,-3.4005,-3.3854,-3.359,-3.3087,-3.2638,-3.2179,-3.1584,-3.1221,-3.0887,-3.0597,-2.9943,-2.9842,-3.0524,-2.9929,-2.9856,-3.0539,-2.9711,-2.865,-2.7501,-2.7126,-2.6608,-2.5893,-2.5948,-2.5893,-2.5784,-2.5893,-2.5893,-2.5893,-2.5893,-2.5893,-2.5893,-2.5893,-2.5893,-2.5893,-2.5893,-2.5893,-2.5893,-2.5893,-2.5893,-2.5893,-2.5893,-2.5839,-2.5839,-2.5893,-2.5839,-2.5784,-2.5784,-2.5729,-2.5729,-2.5784,-2.5743,-2.5688,-2.5647,-2.5592,-2.5592,-2.5494,-2.5536,-2.5647,-2.5702,-2.5743,-2.5784,-2.5729,-2.5784,-2.5893,-2.5784,-2.5839,-2.5893,-2.5893,-2.543,-2.4826,-2.4202,-2.3511,-2.307,-2.3055,-2.3596,-2.4189,-2.484,-2.5514,-2.5626,-2.4952,-2.4109,0.0,-2.5076,-2.4196,-2.432,-2.5851,-2.5893,-2.5948,-2.6111,-2.6272,-2.6539,-2.6779,-2.6779,-2.6779,-2.6779,-2.6779,-2.6779,-2.6779,-2.6779,-2.6779,-2.6779,-2.6779,-2.6953,-2.7244,-2.7592,-2.8086,-2.8681,-2.9363,-2.9813,-3.0103,-3.4346,-3.4346,-3.4346,-3.4346,-3.421,-3.4059,-3.3991,-3.4059,-3.3941,-3.3408,-3.3396,-3.305,-3.1932,-3.1642,-3.1293,-3.0756,-3.0626,-3.0568,-3.0568,-3.0568,-3.0568,-3.0568,-3.0702,-3.0089,-2.8727,-2.8581,-2.772,-2.6111,-2.6111,-2.6056,-2.5948,-2.5893,-2.5893,-2.5948,-2.5893,-2.5893,-2.5948,-2.5893,-2.5893,-2.5893,-2.5893,-2.5893,-2.5893,-2.5893,-2.5893,-2.5893,-2.5893,-2.5784,-2.5729,-2.5839,-2.5784,-2.5729,-2.5784,-2.5729,-2.5688,-2.5688,-2.5592,-2.5439,-2.5439,-2.5439,-2.5439,-2.5494,-2.555,-2.555,-2.555,-2.5633,-2.5729,-2.5619,-2.5729,-2.5853,-2.5853,-2.5839,-2.5837,-2.564,-2.4741,-2.4047,-2.385,0.0,-2.2859,-2.3991,-2.4221,-2.4755,-2.5795,-2.5893,-2.5893,-2.5893,-2.4418,-2.4272,-2.604,-2.4441,-2.4301,-2.6068,-2.5948,-2.5948,-2.6111,-2.6365,-2.6578,-2.6779,-2.6779,-2.6779,-2.6779,-2.6779,-2.6779,-2.6779,-2.6779,-2.6779,-2.6779,-2.6779,-2.7157,-2.7683,-2.7839,-2.8594,-2.9639,-2.9726,-3.0103,-3.0568,-3.4264,-3.4088,-3.3965,-3.3965,-3.3951,-3.3882,-3.3675,-3.3937,-3.4031,-3.3822,-3.3604,-3.3383,-3.3195,-3.2179,-3.1482,-3.138,-3.0872,-3.0568,-3.0568,-3.0568,-3.0568,-3.0568,-3.0642,-3.0219,-2.9435,-2.8307,-2.7219,-2.6297,-2.6165,-2.6111,-2.6056,-2.5948,-2.5948,-2.6056,-2.5948,-2.5948,-2.6056,-2.5948,-2.5893,-2.5893,-2.5893,-2.5893,-2.5893,-2.5893,-2.5839,-2.5729,-2.5839,-2.5784,-2.5729,-2.5729,-2.5729,-2.5674,-2.5592,-2.555,-2.555,-2.555,-2.5425,-2.5244,-2.5244,-2.5174,-2.5174,-2.5578,-2.5688,-2.5688,-2.5784,-2.5839,-2.5784,-2.5342,-2.5425,-2.555,-2.555,-2.5633,-2.5448,-2.4517,-2.423,-2.3737,-2.2667,0.0,-2.3713,-2.4039,-2.4927,-2.5574,-2.5879,-2.5893,-2.5893,-2.5893,-2.5626,-2.5638,-2.6096,-2.568,-2.5652,-2.6111,-2.5948,-2.6002,-2.6286,-2.6418,-2.6578,-2.6779,-2.6779,-2.6779,-2.6779,-2.6779,-2.6779,-2.6779,-2.6779,-2.6779,-2.6779,-2.6779,-2.7157,-2.7781,-2.8318,-2.8985,-2.9682,-3.0234,-3.0495,-3.0568,-3.5285,-3.4773,-3.4452,-3.4452,-3.4074,-3.3744,-3.3744,-3.3813,-3.3868,-3.4005,-3.3883,-3.3584,-3.289,-3.2347,-3.171,-3.0939,-3.0681,-3.0568,-3.0568,-3.0568,-3.0568,-3.0568,-3.0568,-3.0118,-2.9131,-2.8187,-2.7267,-2.6404,-2.6433,-2.634,-2.6111,-2.6056,-2.6111,-2.6204,-2.6136,-2.6258,-2.6418,-2.619,-2.615,-2.6096,-2.5948,-2.5893,-2.5893,-2.5839,-2.5729,-2.5729,-2.5839,-2.5729,-2.5508,-2.5784,-2.5798,-2.5592,-2.5702,-2.5702,-2.5592,-2.5592,-2.5411,-2.5174,-2.5118,-2.5188,-2.5313,-2.5536,-2.5688,-2.5784,-2.5688,-2.5743,-2.5674,-2.5286,-2.5369,-2.5494,-2.5592,-2.5688,-2.5548,-2.5135,-2.454,-2.3906,-2.3329,-2.3638,-2.4002,-2.4118,-2.5096,-2.5839,-2.5893,-2.5893,-2.5893,-2.5893,-2.5893,-2.5948,-2.6111,-2.5948,-2.6002,-2.6233,-2.6056,-2.6165,-2.6418,-2.6457,-2.6578,-2.6779,-2.6779,-2.6779,-2.6779,-2.6779,-2.6779,-2.6779,-2.6779,-2.6779,-2.6808,-2.7089,-2.761,-2.8303,-2.8885,-2.9522,-3.0176,-3.0466,-3.0568,-3.0568,-3.607,-3.5479,-3.5008,-3.5008,-3.4303,-3.3854,-3.421,-3.3991,-3.3865,-3.398,-3.4033,-3.3613,-3.2371,-3.219,-3.1763,-3.0643,-3.0534,-3.0568,-3.0568,-3.0568,-3.0568,-3.0568,-3.0568,-3.0046,-2.8766,-2.8298,-2.7588,-2.6563,-2.6659,-2.65,-2.6111,-2.6111,-2.6218,-2.6336,-2.6336,-2.651,-2.6736,-2.651,-2.6336,-2.6283,-2.6096,-2.5948,-2.5893,-2.5784,-2.5729,-2.5784,-2.5893,-2.5674,-2.5397,-2.5893,-2.5812,-2.555,-2.5798,-2.5784,-2.5729,-2.5729,-2.5564,-2.5342,-2.5174,-2.5313,-2.555,-2.5647,-2.5839,-2.5948,-2.5743,-2.5743,-2.5674,-2.5355,-2.5313,-2.5425,-2.5564,-2.5619,-2.5591,-2.546,-2.4671,-2.4118,-2.4118,-2.4118,-2.4216,-2.4512,-2.5331,-2.5893,-2.5893,-2.5893,-2.5893,-2.5893,-2.5893,-2.5948,-2.6056,-2.5948,-2.6002,-2.6286,-2.6218,-2.6312,-2.651,-2.6578,-2.6645,-2.6779,-2.6779,-2.6779,-2.6779,-2.6779,-2.6779,-2.6779,-2.6779,-2.6779,-2.6837,-2.7299,-2.7989,-2.8739,-2.9189,-2.9883,-3.0568,-3.0568,-3.0568,-3.0568,-3.5879,-3.5544,-3.5335,-3.5335,-3.4728,-3.4447,-3.5204,-3.4876,-3.4324,-3.3791,-3.3862,-3.3484,-3.2184,-3.1532,-3.1209,-3.1248,-3.0672,-3.0387,-3.0568,-3.0568,-3.0568,-3.0568,-3.0568,-3.0046,-2.8878,-2.8749,-2.7984,-2.6683,-2.6433,-2.6286,-2.6111,-2.6111,-2.6272,-2.651,-2.651,-2.6698,-2.6937,-2.675,-2.651,-2.6283,-2.6297,-2.6136,-2.5893,-2.5893,-2.5893,-2.5893,-2.6056,-2.5893,-2.5674,-2.5839,-2.5743,-2.555,-2.5688,-2.5729,-2.5729,-2.5839,-2.5893,-2.5839,-2.5674,-2.5592,-2.5592,-2.615,-2.6244,-2.6297,-2.6244,-2.6042,-2.5798,-2.555,-2.5244,-2.5061,-2.523,-2.5369,-2.5176,-2.4118,-2.4021,0.0,-2.4118,-2.4118,-2.4526,-2.5626,-2.5837,-2.5893,-2.5893,-2.5893,-2.5893,-2.5893,-2.5893,-2.5893,-2.5893,-2.5893,-2.6002,-2.6286,-2.6418,-2.6457,-2.651,-2.6712,-2.6779,-2.6779,-2.6779,-2.6779,-2.6779,-2.6779,-2.6779,-2.6779,-2.6779,-2.6779,-2.6837,-2.7299,-2.7989,-2.8739,-2.9189,-2.9883,-3.0568,-3.0568,-3.0568,-3.0568,-3.7013,-3.643,-3.6039,-3.6039,-3.5044,-3.438,-3.4647,-3.4206,-3.3754,-3.3647,-3.3355,-3.2867,-3.1909,-3.1361,-3.096,-3.0573,-3.0797,-3.082,-3.0597,-3.0945,-3.0988,-3.0597,-3.0568,-3.022,-2.9348,-2.8997,-2.8356,-2.7292,-2.6915,-2.6606,-2.6365,-2.6365,-2.6486,-2.6712,-2.6712,-2.687,-2.7093,-2.687,-2.6712,-2.6592,-2.6379,-2.6218,-2.6111,-2.6056,-2.6002,-2.6056,-2.6204,-2.6042,-2.5839,-2.6056,-2.5962,-2.5743,-2.5784,-2.5893,-2.5948,-2.6111,-2.6111,-2.6056,-2.6136,-2.6096,-2.6042,-2.6244,-2.6472,-2.6539,-2.6351,-2.6096,-2.5839,-2.5743,-2.5411,-2.5328,-2.6014,-2.5879,-2.5644,-2.5578,-2.5649,-2.5701,-2.5701,-2.5995,-2.6272,-2.6361,-2.6418,-2.6258,-2.5948,-2.5893,-2.5893,-2.5893,-2.5893,-2.5893,-2.5893,-2.6002,-2.6165,-2.6418,-2.6457,-2.6578,-2.6712,-2.6779,-2.6779,-2.6779,-2.6779,-2.6779,-2.6779,-2.6779,-2.6779,-2.6779,-2.6779,-2.6958,-2.7256,-2.7765,-2.8326,-2.903,-2.9617,-3.0064,-3.0447,-3.0568,-3.0568,-3.0568,-3.7642,-3.715,-3.6754,-3.6754,-3.577,-3.4978,-3.4978,-3.4595,-3.4095,-3.3568,-3.3197,-3.2565,-3.1415,-3.0935,-3.0444,-3.0017,-3.0745,-3.1032,-3.0551,-3.0974,-3.1032,-3.0597,-3.0568,-3.0337,-2.9682,-2.9114,-2.8432,-2.7614,-2.7084,-2.6698,-2.6365,-2.6457,-2.6592,-2.6779,-2.6846,-2.6989,-2.7181,-2.6974,-2.6884,-2.6779,-2.6553,-2.6394,-2.6286,-2.6233,-2.6165,-2.6258,-2.6351,-2.6244,-2.6042,-2.6272,-2.6165,-2.5948,-2.6002,-2.6111,-2.6179,-2.6326,-2.6326,-2.6258,-2.6525,-2.6616,-2.6654,-2.651,-2.6659,-2.6727,-2.6525,-2.615,-2.5948,-2.615,-2.5811,-2.5728,-2.6678,-2.6481,-2.6336,-2.6811,-2.6774,-2.6683,-2.6683,-2.6916,-2.6967,-2.6616,-2.6563,-2.6472,-2.6096,-2.6002,-2.5948,-2.5948,-2.5893,-2.5893,-2.5893,-2.6002,-2.6165,-2.6365,-2.6365,-2.6472,-2.6621,-2.6727,-2.6779,-2.6779,-2.6779,-2.6779,-2.6779,-2.6779,-2.6779,-2.6779,-2.6779,-2.7089,-2.7547,-2.8011,-2.8568,-2.9197,-2.9854,-3.0158,-3.0312,-3.0507,-3.0568,-3.0568,-3.748,-3.748,-3.748,-3.748,-3.6892,-3.643,-3.643,-3.6368,-3.567,-3.3652,-3.3439,-3.2727,-3.0715,-2.9982,-2.9665,-2.9822,-3.0606,-3.0907,-3.0369,-3.0507,-3.0568,-3.0568,-3.0568,-3.0322,-2.9841,-2.9114,-2.832,-2.7504,-2.6841,-2.6365,-2.6111,-2.6365,-2.6592,-2.6779,-2.6951,-2.7093,-2.7181,-2.7181,-2.7026,-2.6779,-2.6779,-2.6621,-2.6286,-2.6286,-2.6379,-2.651,-2.651,-2.6404,-2.6336,-2.6457,-2.6312,-2.6111,-2.6286,-2.6286,-2.634,-2.6457,-2.651,-2.6563,-2.6765,-2.7152,-2.7378,-2.6922,-2.6779,-2.6832,-2.6832,-2.634,-2.6096,-2.6745,-2.64,-2.6226,-2.696,-2.7181,-2.7297,-2.7297,-2.6967,-2.6683,-2.6683,-2.6365,-2.615,-2.6297,-2.6312,-2.6379,-2.651,-2.6258,-2.6111,-2.6111,-2.6002,-2.5893,-2.5893,-2.5893,-2.5948,-2.6111,-2.6111,-2.6165,-2.6286,-2.6621,-2.6779,-2.6779,-2.6779,-2.6779,-2.6779,-2.6779,-2.6779,-2.6779,-2.6779,-2.7089,-2.7561,-2.8011,-2.8568,-2.9152,-2.9868,-3.0158,-3.0312,-3.0507,-3.0568,-3.0568,-3.748,-3.748,-3.748,-3.748,-3.6892,-3.643,-3.643,-3.5976,-3.5454,-3.4857,-3.3608,-3.2591,-3.1974,-3.0537,-2.9834,-3.046,-3.1276,-3.1754,-3.1821,-3.1076,-3.0568,-3.0568,-3.0568,-3.054,-3.0337,-2.9668,-2.9029,-2.8335,-2.7683,-2.7093,-2.6621,-2.6659,-2.6712,-2.6779,-2.6846,-2.6884,-2.6937,-2.6937,-2.6884,-2.6779,-2.6779,-2.6727,-2.6674,-2.6674,-2.6674,-2.6712,-2.6712,-2.6659,-2.6659,-2.651,-2.6457,-2.6418,-2.6418,-2.6418,-2.651,-2.7056,-2.721,-2.721,-2.7276,-2.7363,-2.7464,-2.7327,-2.758,-2.7879,-2.7879,-2.7565,-2.7265,-2.7063,-2.6637,-2.6385,-2.6753,-2.6439,-2.6336,-2.6811,-2.6864,-2.6864,-2.6864,-2.7159,-2.7261,-2.6916,-2.6864,-2.6811,-2.6811,-2.6901,-2.6849,-2.6654,-2.6258,-2.6056,-2.6179,-2.6002,-2.6002,-2.6233,-2.6165,-2.6165,-2.6286,-2.6486,-2.6578,-2.6578,-2.6712,-2.6779,-2.6779,-2.6779,-2.6779,-2.6779,-2.6779,-2.7227,-2.7997,-2.8126,-2.8722,-2.9459,-2.9917,-3.0111,-3.0233,-3.0522,-3.0568,-3.0568,-3.748,-3.748,-3.748,-3.748,-3.715,-3.6754,-3.643,-3.6305,-3.5948,-3.5138,-3.4068,-3.3183,-3.267,-3.1362,-3.0744,-3.1183,-3.1699,-3.222,-3.2807,-3.1783,-3.1131,-3.097,-3.097,-3.0851,-3.0628,-2.9943,-2.9305,-2.8681,-2.8042,-2.7403,-2.6779,-2.6779,-2.6779,-2.6779,-2.6779,-2.6779,-2.6779,-2.6779,-2.6779,-2.6779,-2.6779,-2.6779,-2.6779,-2.6779,-2.6779,-2.6779,-2.6779,-2.6779,-2.6779,-2.6645,-2.6645,-2.6645,-2.6645,-2.6645,-2.6698,-2.7086,-2.724,-2.724,-2.724,-2.7378,-2.7565,-2.775,-2.7765,-2.773,-2.773,-2.7464,-2.722,-2.7063,-2.6787,-2.6652,-2.6937,-2.6766,-2.6797,-2.7464,-2.7449,-2.7384,-2.7384,-2.7769,-2.7917,-2.7399,-2.755,-2.77,-2.77,-2.75,-2.721,-2.6721,-2.6365,-2.6233,-2.6286,-2.6111,-2.6056,-2.6233,-2.6111,-2.6056,-2.6111,-2.6258,-2.6365,-2.6418,-2.6553,-2.6621,-2.6621,-2.6621,-2.6621,-2.6621,-2.6621,-2.7164,-2.8111,-2.8111,-2.8732,-2.9602,-2.9913,-3.0036,-3.0219,-3.0522,-3.0702,-3.0866,-3.748,-3.748,-3.7449,-3.746,-3.7445,-3.716,-3.6445,-3.6901,-3.6711,-3.4835,-3.4632,-3.4176,-3.2996,-3.2285,-3.1905,-3.1966,-3.1966,-3.2338,-3.3249,-3.2553,-3.1921,-3.1537,-3.148,-3.1204,-3.0628,-3.0001,-2.9363,-2.8681,-2.81,-2.7461,-2.6779,-2.6779,-2.6779,-2.6779,-2.6779,-2.6779,-2.6779,-2.6779,-2.6779,-2.6779,-2.6779,-2.6779,-2.6779,-2.6779,-2.6779,-2.6779,-2.6779,-2.6779,-2.6779,-2.6779,-2.6779,-2.6779,-2.6779,-2.6779,-2.6779,-2.6832,-2.6884,-2.6884,-2.6922,-2.7255,-2.77,-2.8192,-2.7595,-2.6974,-2.7078,-2.6826,-2.6711,-2.7031,-2.7051,-2.719,-2.7473,-2.7747,-2.8094,-2.8748,-2.8432,-2.8128,-2.8128,-2.829,-2.8275,-2.7834,-2.8288,-2.8685,-2.8811,-2.8012,-2.7174,-2.6486,-2.6379,-2.634,-2.634,-2.6179,-2.6111,-2.6111,-2.6002,-2.5948,-2.5948,-2.6056,-2.6179,-2.6286,-2.6286,-2.6326,-2.6286,-2.6326,-2.6326,-2.6286,-2.6397,-2.7001,-2.8009,-2.8066,-2.8729,-2.9665,-2.9822,-3.0068,-3.0326,-3.0568,-3.0866,-3.1278,-3.748,-3.748,-3.7365,-3.6854,-3.6816,-3.6568,-3.5998,-3.6047,-3.5983,-3.5568,-3.4642,-3.3877,-3.3593,-3.2568,-3.2088,-3.2546,-3.2591,-3.2783,-3.3123,-3.2497,-3.1921,-3.1537,-3.148,-3.1204,-3.0628,-3.0437,-2.9813,-2.8681,-2.8536,-2.7897,-2.6779,-2.6779,-2.6779,-2.6779,-2.6779,-2.6779,-2.6779,-2.6779,-2.6779,-2.6779,-2.6779,-2.6779,-2.6779,-2.6779,-2.6779,-2.6779,-2.6779,-2.6779,-2.6779,-2.6779,-2.6779,-2.6779,-2.6779,-2.6779,-2.6884,-2.724,-2.7327,-2.7429,-2.7864,-2.8061,-2.8143,-2.824,-2.8158,-2.8207,-2.9044,-2.9182,-2.8976,-2.8471,-2.837,-2.8311,-2.7931,-2.7922,-2.8082,-2.8307,-2.8355,-2.8323,-2.8323,-2.8497,-2.8575,-2.848,-2.8128,-2.803,-2.84,-2.7795,-2.7408,-2.7399,-2.6811,-2.6472,-2.6472,-2.6326,-2.6286,-2.6286,-2.6233,-2.6233,-2.6233,-2.6233,-2.6233,-2.6165,-2.6365,-2.6418,-2.6272,-2.6418,-2.6418,-2.6315,-2.6963,-2.7567,-2.8197,-2.8871,-2.9471,-2.9988,-3.0144,-3.0312,-3.0568,-3.0702,-3.094,-3.1132,-3.7091,-3.688,-3.6587,-3.6262,-3.6198,-3.6127,-3.5815,-3.5822,-3.571,-3.5428,-3.4829,-3.427,-3.3974,-3.3329,-3.302,-3.3271,-3.3263,-3.3318,-3.3497,-3.2827,-3.2296,-3.1936,-3.1936,-3.1652,-3.1029,-3.1029,-3.0382,-2.9131,-2.8826,-2.8187,-2.7229,-2.6924,-2.6779,-2.6779,-2.6779,-2.6779,-2.6779,-2.6779,-2.6779,-2.6779,-2.6779,-2.6779,-2.6779,-2.6779,-2.6779,-2.6779,-2.6779,-2.6779,-2.6832,-2.7063,-2.6974,-2.6779,-2.6779,-2.6779,-2.6832,-2.71,-2.7152,-2.7291,-2.7765,-2.7898,-2.8046,-2.8543,-2.8685,-2.8779,-2.9074,-2.9136,-2.8976,-2.8515,-2.8568,-2.8529,-2.817,-2.8232,-2.8434,-2.8794,-2.8933,-2.8979,-2.8979,-2.9057,-2.9042,-2.8732,-2.8384,-2.824,-2.8496,-2.8448,-2.8384,-2.8176,-2.7769,-2.7535,-2.755,-2.7384,-2.7318,-2.7318,-2.7217,-2.7217,-2.7217,-2.7217,-2.7166,-2.7115,-2.6654,-2.6379,-2.6272,-2.6418,-2.6457,-2.6461,-2.7511,-2.8042,-2.8369,-2.9334,-2.9869,-3.0111,-3.0158,-3.0401,-3.0702,-3.0762,-3.1073,-3.1439,-3.6492,-3.6111,-3.5774,-3.57,-3.5684,-3.5652,-3.5578,-3.5562,-3.5407,-3.4949,-3.4884,-3.4694,-3.4165,-3.4101,-3.4,-3.3899,-3.3745,-3.3694,-3.3797,-3.3245,-3.2803,-3.2492,-3.2492,-3.2216,-3.1652,-3.1652,-3.1049,-2.9723,-2.9139,-2.844,-2.7642,-2.717,-2.6884,-2.6779,-2.6779,-2.6779,-2.6779,-2.6779,-2.6779,-2.6779,-2.6779,-2.6779,-2.6779,-2.6779,-2.6779,-2.6779,-2.6779,-2.6779,-2.6884,-2.724,-2.71,-2.6779,-2.6779,-2.6779,-2.6832,-2.6922,-2.6974,-2.7063,-2.7515,-2.7765,-2.8046,-2.8889,-2.9136,-2.9044,-2.8638,-2.8591,-2.8561,-2.8421,-2.8618,-2.8793,-2.861,-2.8799,-2.918,-2.9673,-2.9761,-2.9761,-2.9761,-2.9761,-2.9585,-2.9058,-2.8919,-2.8779,-2.8701,-2.9134,-2.918,-2.8685,-2.8607,-2.8607,-2.8638,-2.8497,-2.8418,-2.8466,-2.834,-2.8292,-2.8307,-2.8307,-2.8307,-2.8244,-2.7299,-2.677,-2.6616,-2.6861,-2.6957,-2.7001,-2.833,-2.8877,-2.8953,-2.9938,-3.0353,-3.0341,-3.0233,-3.0476,-3.0821,-3.0881,-3.1249,-3.1784,-3.6078,-3.5831,-3.5668,-3.5255,-3.5195,-3.5104,-3.4741,-3.4693,-3.466,-3.4562,-3.4447,-3.4364,-3.425,-3.405,-3.3848,-3.3745,-3.3591,-3.3555,-3.3555,-3.3435,-3.3261,-3.2949,-3.2949,-3.2734,-3.2287,-3.2287,-3.1588,-3.0197,-2.9627,-2.8687,-2.7512,-2.7458,-2.7188,-2.6779,-2.6779,-2.6779,-2.6779,-2.6779,-2.6779,-2.6779,-2.6779,-2.6779,-2.6779,-2.6779,-2.6779,-2.6779,-2.6779,-2.6779,-2.6779,-2.6884,-2.6832,-2.6779,-2.6779,-2.6779,-2.6922,-2.7414,-2.76,-2.77,-2.8207,-2.8764,-2.9134,-2.912,-2.9182,-2.935,-2.9621,-2.9754,-2.9793,-2.9886,-3.0021,-3.014,-3.0168,-3.0234,-3.0284,-3.0384,-3.0384,-3.0384,-3.0384,-3.0384,-3.0342,-3.0284,-2.9689,-2.9088,-2.8559,-2.8606,-2.8543,-2.8384,-2.8448,-2.8511,-2.8511,-2.8511,-2.8543,-2.867,-2.8591,-2.8576,-2.8622,-2.8622,-2.8622,-2.8638,-2.8922,-2.8664,-2.7984,-2.8629,-2.8869,-2.8829,-3.0212,-3.0823,-3.0852,-3.1174,-3.1289,-3.1263,-3.0747,-3.0642,-3.0821,-3.1117,-3.1351,-3.1597,-3.5492,-3.5106,-3.4788,-3.467,-3.4672,-3.4608,-3.4497,-3.4497,-3.4497,-3.4497,-3.4399,-3.43,-3.43,-3.405,-3.3813,-3.3607,-3.3555,-3.3503,-3.3503,-3.3261,-3.3071,-3.2986,-3.2986,-3.2949,-3.2749,-3.2749,-3.2185,-3.1126,-3.0022,-2.8866,-2.763,-2.7277,-2.7011,-2.6779,-2.6779,-2.6779,-2.6779,-2.6779,-2.6779,-2.6832,-2.7115,-2.7188,-2.724,-2.7545,-2.7444,-2.7188,-2.7188,-2.7011,-2.6832,-2.71,-2.7011,-2.6832,-2.71,-2.724,-2.7429,-2.7963,-2.8192,-2.8384,-2.8857,-2.8966,-2.9012,-2.9499,-2.9409,-2.9335,-2.977,-2.9946,-3.0017,-3.0076,-3.0162,-3.0231,-3.0401,-3.0443,-3.0443,-3.0443,-3.0485,-3.0485,-3.0443,-3.0199,-2.9821,-2.9422,-2.9348,-2.9227,-2.8951,-2.9273,-2.9438,-2.9393,-2.9393,-2.9454,-2.9454,-2.9454,-2.9483,-2.9661,-2.9601,-2.9645,-2.9689,-3.0048,-3.0076,-2.9799,-3.0322,-2.9969,-2.8974,-2.967,-2.9979,-2.9991,-3.1373,-3.1533,-3.1004,-3.1703,-3.1595,-3.097,-3.0687,-3.0762,-3.1014,-3.1292,-3.1467,-3.1539]},{"header":{"parameterUnit":"m.s-1","parameterCategory":1,"la1":30.6,"la2":28.766,"lo1":-90.7593,"lo2":-88.6598,"dy":0.0162,"dx":0.0183,"nx":116,"ny":114,"refTime":"2023-07-14T12:00:00:Z","depth":0,"parameterNumber":3,"parameterNumberName":"V-component_of_WINDS"},"data":[0.0,0.0,0.0,0.0,0.0,0.0,0.0,0.0,0.0,0.0,0.0,0.0,0.0,0.0,0.0,0.0,0.0,0.0,0.0,0.0,0.0,0.0,0.0,0.0,0.0,0.0,0.0,0.0,0.0,0.0,0.0,0.0,0.0,0.0,0.0,0.0,0.0,0.0,0.0,0.0,0.0,0.0,0.0,0.0,0.0,0.0,0.0,0.0,0.0,0.0,0.0,0.0,0.0,0.0,0.0,0.0,0.0,0.0,0.0,0.0,0.0,0.0,0.0,0.0,0.0,0.0,0.0,0.0,0.0,0.0,0.0,0.0,0.0,0.0,0.0,0.0,0.0,0.0,0.0,0.0,0.0,0.0,0.0,0.0,0.0,0.0,0.0,0.0,0.0,0.0,0.0,0.0,0.0,0.0,0.0,0.0,0.0,0.0,0.0,0.0,0.0,0.0,0.0,0.0,0.0,0.0,0.0,0.0,0.0,0.0,0.0,0.0,0.0,0.0,0.0,0.0,0.0,0.0,0.0,0.0,0.0,0.0,0.0,0.0,0.0,0.0,0.0,0.0,0.0,0.0,0.0,0.0,0.0,0.0,0.0,0.0,0.0,0.0,0.0,0.0,0.0,0.0,0.0,0.0,0.0,0.0,0.0,0.0,0.0,0.0,0.0,0.0,0.0,0.0,0.0,0.0,0.0,0.0,0.0,0.0,0.0,0.0,0.0,0.0,0.0,0.0,0.0,0.0,0.0,0.0,0.0,0.0,0.0,0.0,0.0,0.0,0.0,0.0,0.0,0.0,0.0,0.0,0.0,0.0,0.0,0.0,0.0,0.0,0.0,0.0,0.0,0.0,0.0,0.0,0.0,0.0,0.0,0.0,0.0,0.0,0.0,0.0,0.0,0.0,0.0,0.0,0.0,0.0,0.0,0.0,0.0,0.0,0.0,0.0,0.0,0.0,0.0,0.0,0.0,0.0,0.0,0.0,0.0,0.0,0.0,0.0,0.0,0.0,0.0,0.0,0.0,0.0,0.0,0.0,0.0,0.0,0.0,0.0,0.0,0.0,0.0,0.0,0.0,0.0,0.0,0.0,0.0,0.0,0.0,0.0,0.0,0.0,0.0,0.0,0.0,0.0,0.0,0.0,0.0,0.0,0.0,0.0,0.0,0.0,0.0,0.0,0.0,0.0,0.0,0.0,0.0,0.0,0.0,0.0,0.0,0.0,0.0,0.0,0.0,0.0,0.0,0.0,0.0,0.0,0.0,0.0,0.0,0.0,0.0,0.0,0.0,0.0,0.0,0.0,0.0,0.0,0.0,0.0,0.0,0.0,0.0,0.0,0.0,0.0,0.0,0.0,0.0,0.0,0.0,0.0,0.0,0.0,0.0,0.0,0.0,0.0,0.0,0.0,0.0,0.0,0.0,0.0,0.0,0.0,0.0,0.0,0.0,0.0,0.0,0.0,0.0,0.0,0.0,0.0,0.0,0.0,0.0,0.0,0.0,0.0,0.0,0.0,0.0,0.0,0.0,0.0,0.0,0.0,0.0,0.0,0.0,0.0,0.0,0.0,0.0,0.0,0.0,0.0,0.0,0.0,0.0,0.0,0.0,0.0,0.0,0.0,0.0,0.0,0.0,0.0,0.0,0.0,0.0,0.0,0.0,0.0,0.0,0.0,0.0,0.0,0.0,0.0,0.0,0.0,0.0,0.0,0.0,0.0,0.0,0.0,0.0,0.0,0.0,0.0,0.0,0.0,0.0,0.0,0.0,0.0,0.0,0.0,0.0,0.0,0.0,0.0,0.0,0.0,0.0,0.0,0.0,0.0,0.0,0.0,0.0,0.0,0.0,0.0,0.0,0.0,0.0,0.0,0.0,0.0,0.0,0.0,0.0,0.0,0.0,0.0,0.0,0.0,0.0,0.0,0.0,0.0,0.0,0.0,0.0,0.0,0.0,0.0,0.0,0.0,0.0,0.0,0.0,0.0,0.0,0.0,0.0,0.0,0.0,0.0,0.0,0.0,0.0,0.0,0.0,0.0,0.0,0.0,0.0,0.0,0.0,0.0,0.0,0.0,0.0,0.0,0.0,0.0,0.0,0.0,0.0,0.0,0.0,0.0,0.0,0.0,0.0,0.0,0.0,0.0,0.0,0.0,0.0,0.0,0.0,0.0,0.0,0.0,0.0,0.0,0.0,0.0,0.0,0.0,0.0,0.0,0.0,0.0,0.0,0.0,0.0,0.0,0.0,0.0,0.0,0.0,0.0,0.0,0.0,0.0,0.0,0.0,0.0,0.0,0.0,0.0,0.0,0.0,0.0,0.0,0.0,0.0,0.0,0.0,0.0,0.0,0.0,0.0,0.0,0.0,0.0,0.0,0.0,0.0,0.0,0.0,0.0,0.0,0.0,0.0,0.0,0.0,0.0,0.0,0.0,0.0,0.0,0.0,0.0,0.0,0.0,0.0,0.0,0.0,0.0,0.0,0.0,0.0,0.0,0.0,0.0,0.0,0.0,0.0,0.0,0.0,0.0,0.0,0.0,0.0,0.0,0.0,0.0,0.0,0.0,0.0,0.0,0.0,0.0,0.0,0.0,0.0,0.0,0.0,0.0,0.0,0.0,0.0,0.0,0.0,0.0,0.0,0.0,0.0,0.0,0.0,0.0,0.0,0.0,0.0,0.0,0.0,0.0,0.0,0.0,0.0,0.0,0.0,0.0,0.0,0.0,0.0,0.0,0.0,0.0,0.0,0.0,0.0,0.0,0.0,0.0,0.0,0.0,0.0,0.0,0.0,0.0,0.0,0.0,0.0,0.0,0.0,0.0,0.0,0.0,0.0,0.0,0.0,0.0,0.0,0.0,0.0,0.0,0.0,0.0,0.0,0.0,0.0,0.0,0.0,0.0,0.0,0.0,0.0,0.0,0.0,0.0,0.0,0.0,0.0,0.0,0.0,0.0,0.0,0.0,0.0,0.0,0.0,0.0,0.0,0.0,0.0,0.0,0.0,0.0,0.0,0.0,0.0,0.0,0.0,0.0,0.0,0.0,0.0,0.0,0.0,0.0,0.0,0.0,0.0,0.0,0.0,0.0,0.0,0.0,0.0,0.0,0.0,0.0,0.0,0.0,0.0,0.0,0.0,0.0,0.0,0.0,0.0,0.0,0.0,0.0,0.0,0.0,0.0,0.0,0.0,0.0,0.0,0.0,0.0,0.0,0.0,0.0,0.0,0.0,0.0,0.0,0.0,0.0,0.0,0.0,0.0,0.0,0.0,0.0,0.0,0.0,0.0,0.0,0.0,0.0,0.0,0.0,0.0,0.0,0.0,0.0,0.0,0.0,0.0,0.0,0.0,0.0,0.0,0.0,0.0,0.0,0.0,0.0,0.0,0.0,0.0,0.0,0.0,0.0,0.0,0.0,0.0,0.0,0.0,0.0,0.0,0.0,0.0,0.0,0.0,0.0,0.0,0.0,0.0,0.0,0.0,0.0,0.0,0.0,0.0,0.0,0.0,0.0,0.0,0.0,0.0,0.0,0.0,0.0,0.0,0.0,0.0,0.0,0.0,0.0,0.0,0.0,0.0,0.0,0.0,0.0,0.0,0.0,0.0,0.0,0.0,0.0,0.0,0.0,0.0,0.0,0.0,0.0,0.0,0.0,0.0,0.0,0.0,0.0,0.0,0.0,0.0,0.0,0.0,0.0,0.0,0.0,0.0,0.0,0.0,0.0,0.0,0.0,0.0,0.0,0.0,0.0,0.0,0.0,0.0,0.0,0.0,0.0,0.0,0.0,0.0,0.0,0.0,0.0,0.0,0.0,0.0,0.0,0.0,0.0,0.0,0.0,0.0,0.0,0.0,0.0,0.0,0.0,0.0,0.0,0.0,0.0,0.0,0.0,0.0,0.0,0.0,0.0,0.0,0.0,0.0,0.0,0.0,0.0,0.0,0.0,0.0,0.0,0.0,0.0,0.0,0.0,0.0,0.0,0.0,0.0,0.0,0.0,0.0,0.0,0.0,0.0,0.0,0.0,0.0,0.0,0.0,0.0,0.0,0.0,0.0,0.0,0.0,0.0,0.0,0.0,0.0,0.0,0.0,0.0,0.0,0.0,0.0,0.0,0.0,0.0,0.0,0.0,0.0,0.0,0.0,0.0,0.0,0.0,0.0,0.0,0.0,0.0,0.0,0.0,0.0,0.0,0.0,0.0,0.0,0.0,0.0,0.0,0.0,0.0,0.0,0.0,0.0,0.0,0.0,0.0,0.0,0.0,0.0,0.0,0.0,0.0,0.0,0.0,0.0,0.0,0.0,0.0,0.0,0.0,0.0,0.0,0.0,0.0,0.0,0.0,0.0,0.0,0.0,0.0,0.0,0.0,0.0,0.0,0.0,0.0,0.0,0.0,0.0,0.0,0.0,0.0,0.0,0.0,0.0,0.0,0.0,0.0,0.0,0.0,0.0,0.0,0.0,0.0,0.0,0.0,0.0,0.0,0.0,0.0,0.0,0.0,0.0,0.0,0.0,0.0,0.0,0.0,0.0,0.0,0.0,0.0,0.0,0.0,0.0,0.0,0.0,0.0,0.0,0.0,0.0,0.0,0.0,0.0,0.0,0.0,0.0,0.0,0.0,0.0,0.0,0.0,0.0,0.0,0.0,0.0,0.0,0.0,0.0,0.0,0.0,0.0,0.0,0.0,0.0,0.0,0.0,0.0,0.0,0.0,0.0,0.0,0.0,0.0,0.0,0.0,0.0,0.0,0.0,0.0,0.0,0.0,0.0,0.0,0.0,0.0,0.0,0.0,0.0,0.0,0.0,0.0,0.0,0.0,0.0,0.0,0.0,0.0,0.0,0.0,0.0,0.0,0.0,0.0,0.0,0.0,0.0,0.0,0.0,0.0,0.0,0.0,0.0,0.0,0.0,0.0,0.0,0.0,0.0,0.0,0.0,0.0,0.0,0.0,0.0,0.0,0.0,0.0,0.0,0.0,0.0,0.0,0.0,0.0,0.0,0.0,0.0,0.0,0.0,0.0,0.0,0.0,0.0,0.0,0.0,0.0,0.0,0.0,0.0,0.0,0.0,0.0,0.0,0.0,0.0,0.0,0.0,0.0,0.0,0.0,0.0,0.0,0.0,0.0,0.0,0.0,0.0,0.0,0.0,0.0,0.0,0.0,0.0,0.0,0.0,0.0,0.0,0.0,0.0,0.0,0.0,0.0,0.0,0.0,0.0,0.0,0.0,0.0,0.0,0.0,0.0,0.0,0.0,0.0,0.0,0.0,0.0,0.0,0.0,0.0,0.0,0.0,0.0,0.0,0.0,0.0,0.0,0.0,0.0,0.0,0.0,0.0,0.0,0.0,0.0,0.0,0.0,0.0,0.0,0.0,0.0,0.0,0.0,0.0,0.0,0.0,0.0,0.0,0.0,0.0,0.0,0.0,0.0,0.0,0.0,0.0,0.0,0.0,0.0,0.0,0.0,0.0,0.0,0.0,0.0,0.0,0.0,0.0,0.0,0.0,0.0,0.0,0.0,0.0,0.0,0.0,0.0,0.0,0.0,0.0,0.0,0.0,0.0,0.0,0.0,0.0,0.0,0.0,0.0,0.0,0.0,0.0,0.0,0.0,0.0,0.0,0.0,0.0,0.0,0.0,0.0,0.0,0.0,0.0,0.0,0.0,0.0,0.0,0.0,0.0,0.0,0.0,0.0,0.0,0.0,0.0,0.0,0.0,0.0,0.0,0.0,0.0,0.0,0.0,0.0,0.0,0.0,0.0,0.0,0.0,0.0,0.0,0.0,0.0,0.0,0.0,0.0,0.0,0.0,0.0,0.0,0.0,0.0,0.0,0.0,0.0,0.0,0.0,0.0,0.0,0.0,0.0,0.0,0.0,0.0,0.0,0.0,0.0,0.0,0.0,0.0,0.0,0.0,0.0,0.0,0.0,0.0,0.0,0.0,0.0,0.0,0.0,0.0,0.0,0.0,0.0,0.0,0.0,0.0,0.0,0.0,0.0,0.0,0.0,0.0,0.0,0.0,0.0,0.0,0.0,0.0,0.0,0.0,0.0,0.0,0.0,0.0,0.0,0.0,0.0,0.0,0.0,0.0,0.0,0.0,-2.2691,0.0,0.0,0.0,0.0,0.0,0.0,0.0,0.0,0.0,0.0,0.0,0.0,0.0,0.0,0.0,0.0,0.0,0.0,0.0,0.0,0.0,0.0,0.0,0.0,0.0,0.0,0.0,0.0,0.0,0.0,0.0,0.0,0.0,0.0,0.0,0.0,0.0,0.0,0.0,0.0,0.0,0.0,0.0,0.0,0.0,0.0,0.0,0.0,0.0,0.0,0.0,0.0,0.0,0.0,0.0,0.0,0.0,0.0,0.0,0.0,0.0,0.0,0.0,0.0,0.0,0.0,0.0,0.0,0.0,0.0,0.0,0.0,0.0,0.0,0.0,0.0,0.0,0.0,0.0,0.0,0.0,0.0,0.0,0.0,0.0,0.0,0.0,0.0,0.0,0.0,0.0,0.0,0.0,0.0,0.0,0.0,0.0,0.0,0.0,0.0,0.0,0.0,0.0,0.0,0.0,0.0,0.0,0.0,0.0,0.0,0.0,0.0,0.0,0.0,0.0,0.0,-2.2621,0.0,0.0,0.0,0.0,0.0,0.0,0.0,0.0,0.0,0.0,0.0,0.0,0.0,0.0,0.0,0.0,0.0,0.0,0.0,0.0,0.0,0.0,0.0,0.0,0.0,0.0,0.0,0.0,0.0,0.0,0.0,0.0,0.0,0.0,0.0,0.0,0.0,0.0,0.0,0.0,0.0,0.0,0.0,0.0,0.0,0.0,0.0,0.0,0.0,0.0,0.0,0.0,0.0,0.0,0.0,0.0,0.0,0.0,0.0,0.0,0.0,0.0,0.0,0.0,0.0,0.0,0.0,0.0,0.0,0.0,0.0,0.0,0.0,0.0,0.0,0.0,0.0,0.0,0.0,0.0,0.0,0.0,0.0,0.0,0.0,0.0,0.0,0.0,0.0,0.0,0.0,0.0,0.0,0.0,0.0,0.0,0.0,0.0,0.0,0.0,0.0,0.0,0.0,0.0,0.0,0.0,0.0,0.0,-2.5797,-2.6372,-2.5866,-2.5813,-2.5471,-2.4979,-2.5183,-2.4983,-2.4474,-2.3998,0.0,0.0,0.0,0.0,0.0,0.0,0.0,0.0,0.0,0.0,0.0,0.0,0.0,0.0,0.0,0.0,0.0,0.0,0.0,0.0,0.0,0.0,0.0,0.0,0.0,0.0,0.0,0.0,0.0,0.0,0.0,0.0,0.0,0.0,0.0,0.0,0.0,0.0,-1.984,-2.0497,-2.1132,-2.1661,-1.9464,0.0,0.0,0.0,0.0,0.0,0.0,0.0,0.0,0.0,0.0,0.0,0.0,0.0,0.0,0.0,0.0,0.0,0.0,0.0,0.0,0.0,0.0,0.0,0.0,0.0,0.0,0.0,0.0,0.0,0.0,0.0,0.0,0.0,0.0,0.0,0.0,0.0,0.0,0.0,0.0,0.0,0.0,0.0,-2.1206,-2.3287,0.0,0.0,0.0,0.0,0.0,0.0,0.0,0.0,0.0,0.0,0.0,0.0,0.0,-2.4384,-2.4362,-2.5961,-2.6953,-2.7392,-2.8913,-2.9931,-3.052,-3.0496,-3.0465,-3.0304,-2.8975,0.0,-2.4652,-2.5408,0.0,0.0,0.0,0.0,0.0,0.0,0.0,0.0,0.0,0.0,0.0,0.0,0.0,0.0,0.0,0.0,0.0,0.0,0.0,0.0,0.0,0.0,0.0,0.0,0.0,0.0,0.0,0.0,0.0,0.0,0.0,0.0,0.0,0.0,0.0,0.0,-2.0437,-2.1771,-2.2531,-2.2896,-2.3419,-2.4014,-2.3099,-2.218,-2.1288,-2.0823,0.0,0.0,0.0,0.0,0.0,0.0,0.0,0.0,0.0,0.0,0.0,0.0,0.0,0.0,0.0,0.0,0.0,0.0,0.0,0.0,0.0,0.0,0.0,0.0,0.0,0.0,0.0,0.0,0.0,0.0,0.0,0.0,0.0,0.0,0.0,0.0,0.0,0.0,0.0,-2.1336,-2.2884,-2.3528,-2.3764,-2.3388,0.0,0.0,0.0,0.0,0.0,0.0,0.0,0.0,0.0,-2.6643,-2.7437,-2.7771,-2.7622,-2.8758,-2.9485,-2.9871,-3.054,-3.1072,-3.147,-3.147,-3.147,-3.1458,-3.0741,-2.9664,-2.8387,-2.7917,-2.7716,-2.768,0.0,0.0,0.0,0.0,-2.3864,-2.4052,0.0,0.0,0.0,0.0,0.0,0.0,0.0,0.0,0.0,0.0,0.0,0.0,0.0,0.0,0.0,-1.55,0.0,0.0,0.0,0.0,0.0,0.0,0.0,0.0,0.0,0.0,0.0,0.0,-2.2253,-2.3601,-2.4807,-2.4821,-2.5179,-2.5853,-2.5906,-2.5065,-2.3567,-2.3023,-2.2838,0.0,0.0,0.0,0.0,0.0,0.0,0.0,0.0,0.0,0.0,0.0,0.0,0.0,0.0,0.0,0.0,0.0,0.0,0.0,0.0,0.0,0.0,0.0,0.0,0.0,0.0,0.0,0.0,0.0,0.0,0.0,0.0,0.0,0.0,0.0,0.0,0.0,0.0,-2.2893,-2.4153,-2.4482,-2.5021,-2.4834,0.0,0.0,0.0,0.0,0.0,0.0,-2.7848,-2.7811,-2.8106,-2.892,-3.0017,-3.0496,-3.0254,-3.0932,-3.1386,-3.1613,-3.1657,-3.1818,-3.2027,-3.2027,-3.2052,-3.2095,-3.2052,-3.2001,-3.184,-3.0283,-2.9724,-2.9805,-2.9644,-2.8779,-2.7512,-2.6599,-2.6377,-2.6468,0.0,0.0,0.0,0.0,0.0,0.0,0.0,0.0,0.0,0.0,0.0,0.0,0.0,0.0,-1.6328,-1.6348,-1.7178,-1.6996,0.0,0.0,0.0,0.0,0.0,0.0,0.0,0.0,0.0,-2.3229,-2.4064,-2.4882,-2.563,-2.5508,-2.5906,-2.6719,-2.6599,-2.5764,-2.4453,-2.4406,-2.4455,-2.4444,0.0,0.0,0.0,0.0,0.0,0.0,0.0,0.0,0.0,0.0,0.0,0.0,0.0,0.0,0.0,0.0,0.0,0.0,0.0,0.0,0.0,0.0,0.0,0.0,0.0,0.0,0.0,0.0,0.0,0.0,0.0,0.0,0.0,0.0,0.0,0.0,0.0,0.0,0.0,-2.7389,-2.7738,0.0,0.0,0.0,0.0,-2.6519,-2.729,-2.8382,-2.9783,-2.9971,-3.0326,-3.0919,-3.1217,-3.1304,-3.1247,-3.1359,-3.1737,-3.2428,-3.2428,-3.2803,-3.3505,-3.3505,-3.3505,-3.3505,-3.3505,-3.3478,-3.3378,-3.1946,-3.1311,-3.1144,-3.0567,-2.9714,-2.8723,-2.8033,-2.815,-2.8638,0.0,0.0,0.0,0.0,0.0,0.0,0.0,0.0,0.0,0.0,0.0,0.0,0.0,-1.6351,-1.738,-1.7897,-1.9146,-1.9432,-1.8378,0.0,0.0,0.0,0.0,0.0,0.0,0.0,-2.1732,-2.3336,-2.4655,-2.5906,-2.7063,-2.6989,-2.7683,-2.8903,-2.8934,-2.8646,-2.8094,-2.7116,-2.6136,-2.5171,-2.4622,-2.3236,0.0,0.0,0.0,0.0,0.0,0.0,0.0,0.0,0.0,0.0,0.0,0.0,0.0,0.0,0.0,0.0,0.0,0.0,0.0,0.0,0.0,0.0,0.0,0.0,0.0,0.0,0.0,0.0,0.0,0.0,0.0,0.0,0.0,0.0,0.0,0.0,0.0,-2.7081,-2.811,0.0,-2.7611,-2.8371,-2.8668,-2.8027,-2.9205,-3.0209,-3.0814,-3.1235,-3.1628,-3.1981,-3.2502,-3.2748,-3.2721,-3.2776,-3.3205,-3.398,-3.398,-3.4371,-3.5126,-3.5126,-3.5126,-3.5084,-3.5084,-3.4793,-3.4266,-3.3788,-3.2931,-3.2046,-3.236,-3.1602,-3.0355,-3.0119,-3.0143,-3.0341,0.0,0.0,0.0,0.0,0.0,0.0,0.0,0.0,0.0,0.0,0.0,-1.5566,-1.5978,-1.7203,-1.8324,-1.9127,-2.0376,-2.0555,-1.9272,0.0,0.0,0.0,0.0,0.0,0.0,-2.1286,-2.2841,-2.4448,-2.5747,-2.701,-2.8253,-2.8476,-2.9132,-3.0184,-3.0198,-3.0229,-3.0159,-2.9135,-2.7935,-2.6692,-2.6242,-2.4353,-2.1728,0.0,0.0,0.0,0.0,0.0,0.0,0.0,0.0,0.0,0.0,0.0,0.0,0.0,0.0,0.0,0.0,0.0,0.0,0.0,0.0,0.0,0.0,0.0,0.0,0.0,0.0,0.0,0.0,0.0,0.0,0.0,0.0,0.0,0.0,0.0,-2.6668,-2.7544,-2.8909,-2.9609,-2.9144,-2.9881,-3.0287,-2.9937,-3.0884,-3.162,-3.1964,-3.2401,-3.2791,-3.3158,-3.3676,-3.4066,-3.4327,-3.4379,-3.471,-3.5239,-3.5287,-3.5579,-3.609,-3.609,-3.5914,-3.5617,-3.6194,-3.5976,-3.5283,-3.583,-3.5276,-3.4053,-3.3715,-3.2949,-3.2019,-3.2019,-3.2019,-3.2019,0.0,0.0,0.0,0.0,0.0,0.0,0.0,0.0,0.0,0.0,-1.5693,-1.6553,-1.7471,-1.8289,-1.9145,-1.9966,-2.0697,-2.0127,-1.786,-1.8396,0.0,0.0,0.0,0.0,-2.1966,-2.2113,-2.365,-2.6725,-2.7425,-2.8229,-2.9177,-2.9818,-3.0219,-3.0358,-3.03,-3.0331,-3.0358,-3.03,-2.9902,-2.9154,-2.77,-2.5618,-2.3248,0.0,0.0,0.0,0.0,0.0,0.0,0.0,0.0,0.0,0.0,0.0,0.0,0.0,0.0,0.0,0.0,0.0,0.0,0.0,0.0,0.0,0.0,0.0,0.0,0.0,0.0,0.0,0.0,0.0,0.0,0.0,0.0,0.0,-2.3362,-2.5921,-2.8158,-2.9048,-3.0387,-3.1279,-3.1407,-3.1271,-3.1502,-3.2282,-3.2299,-3.2586,-3.3292,-3.3459,-3.3851,-3.4483,-3.4709,-3.5132,-3.5872,-3.6024,-3.6113,-3.615,-3.6274,-3.634,-3.6376,-3.6376,-3.5917,-3.5192,-3.6817,-3.7074,-3.645,-3.8046,-3.8181,-3.7168,-3.4702,-3.3696,-3.3678,-3.366,-3.3623,-3.3605,0.0,0.0,0.0,0.0,0.0,0.0,0.0,0.0,0.0,0.0,-1.5409,-1.6375,-1.6704,-1.7968,-1.934,-2.0672,-2.098,-2.082,-2.0119,0.0,0.0,0.0,0.0,0.0,-2.2823,-2.4557,-2.6063,-2.7414,-2.8235,-2.9308,-3.0627,-3.0823,-3.1228,-3.1806,-3.1839,-3.1872,-3.1888,-3.2036,-3.1639,-3.0853,-2.9828,-2.7961,-2.5808,0.0,0.0,0.0,0.0,0.0,0.0,0.0,0.0,0.0,0.0,0.0,0.0,0.0,0.0,0.0,0.0,0.0,0.0,0.0,0.0,0.0,0.0,0.0,0.0,0.0,0.0,0.0,0.0,0.0,0.0,0.0,0.0,-2.6863,-2.7313,-2.805,-2.9064,-3.0528,-3.1472,-3.201,-3.2038,-3.2482,-3.2861,-3.3078,-3.361,-3.4045,-3.4232,-3.4382,-3.4502,-3.4649,-3.4838,-3.5005,-3.5096,-3.5857,-3.6454,-3.69,-3.6961,-3.732,-3.7807,-3.7807,-3.7679,-3.7478,-3.7966,-3.771,-3.7113,-3.8138,-3.8132,-3.7393,-3.6655,-3.5926,-3.5264,-3.4681,-3.4097,-3.3514,0.0,0.0,0.0,0.0,0.0,0.0,0.0,0.0,0.0,0.0,-1.5479,-1.641,-1.6861,-1.8039,-1.9411,-2.0954,-2.1105,-2.08,-2.0038,0.0,0.0,0.0,0.0,-2.2406,-2.4627,-2.6274,-2.7507,-2.8282,-2.9378,-3.0381,-3.1228,-3.1595,-3.1999,-3.2457,-3.2523,-3.2557,-3.2557,-3.2657,-3.2456,-3.1962,-3.1582,-2.9757,-2.7368,-2.746,-2.6239,-2.445,-2.4415,-2.4462,-2.4384,-2.3477,0.0,0.0,0.0,0.0,0.0,0.0,0.0,0.0,0.0,0.0,0.0,0.0,0.0,0.0,0.0,0.0,0.0,0.0,0.0,0.0,0.0,0.0,0.0,0.0,-2.7305,-2.9059,-3.0283,-3.0399,-3.0695,-3.1652,-3.2393,-3.2974,-3.3263,-3.3687,-3.4075,-3.4389,-3.4842,-3.5113,-3.5113,-3.5187,-3.5218,-3.5157,-3.5587,-3.5811,-3.5751,-3.6723,-3.7375,-3.7771,-3.7833,-3.812,-3.8546,-3.8546,-3.8345,-3.8071,-3.8747,-3.8583,-3.7937,-3.8755,-3.886,0.0,0.0,0.0,0.0,0.0,-3.615,-3.5692,0.0,0.0,0.0,0.0,0.0,0.0,0.0,0.0,0.0,0.0,0.0,-1.6552,-1.7487,-1.8307,-1.9411,-2.0954,-2.0924,-2.0192,0.0,0.0,0.0,-2.1831,-2.2189,-2.3686,-2.6743,-2.7496,-2.8352,-2.9354,-3.0592,-3.128,-3.1434,-3.2172,-3.2507,-3.2523,-3.2573,-3.2606,-3.2606,-3.2606,-3.2639,-3.2639,-3.2852,-3.1123,-2.8482,-2.8574,-2.7665,-2.6312,-2.6328,-2.6336,-2.63,-2.619,0.0,0.0,0.0,0.0,0.0,0.0,0.0,0.0,0.0,0.0,0.0,0.0,0.0,0.0,0.0,0.0,0.0,0.0,0.0,0.0,0.0,0.0,0.0,0.0,-2.9253,-3.0755,-3.2409,-3.2729,-3.2757,-3.2693,-3.3285,-3.4004,-3.4733,-3.4836,-3.5115,-3.5747,-3.5892,-3.5946,-3.5946,0.0,0.0,0.0,0.0,-3.7076,-3.7121,-3.8091,-3.8593,-3.8656,-3.8878,-3.8982,-3.8982,-3.8982,-3.8524,-3.7826,-3.9276,-3.9441,-3.8762,-3.957,-3.9937,-3.9955,-3.9148,-3.8836,-3.8817,-3.8726,-3.8707,-3.8689,0.0,0.0,0.0,0.0,0.0,0.0,0.0,0.0,0.0,-1.4808,-1.5677,-1.6536,-1.7436,-1.8288,-1.9391,-2.0891,-1.9868,-1.8998,0.0,0.0,-1.9403,-2.1884,-2.33,-2.5112,-2.7449,-2.8323,-2.9413,-3.0803,-3.112,-3.161,-3.2278,-3.2386,-3.2473,-3.2573,-3.2557,-3.259,-3.2773,-3.2773,-3.2787,-3.2852,-3.2884,-3.2121,-3.0937,-3.107,-3.0481,-2.959,-2.9601,-2.9601,-2.9405,-2.8174,-2.7763,-2.779,-2.7905,0.0,0.0,0.0,0.0,0.0,0.0,0.0,0.0,0.0,0.0,0.0,0.0,0.0,0.0,0.0,0.0,0.0,0.0,0.0,0.0,-3.038,-3.1378,-3.2328,-3.3332,-3.4055,-3.4476,-3.4353,-3.4441,-3.477,-3.5525,-3.5641,-3.5696,-3.5802,-3.6445,-3.684,-3.684,-3.6947,-3.7009,-3.7009,-3.7326,-3.7399,-3.7259,-3.8816,-3.9598,-3.9571,0.0,0.0,-4.0653,-4.0653,-4.0194,-3.9441,-3.9753,-3.9441,-3.8762,-3.957,-4.0286,-4.0799,-3.9974,-3.9662,-3.9588,-3.8946,-3.8707,-3.8615,0.0,0.0,0.0,0.0,0.0,0.0,0.0,0.0,0.0,0.0,-1.5065,-1.5937,-1.6799,-1.7294,-1.8145,-1.9664,-1.9061,0.0,0.0,-1.977,-2.0986,-2.3633,-2.4564,-2.6037,-2.8305,-2.9193,-3.0162,-3.126,-3.1698,-3.2119,-3.2507,-3.2473,-3.2489,-3.2606,-3.2573,-3.2623,-3.269,-3.2805,-3.2852,-3.2916,-3.2948,-3.2684,-3.2295,-3.234,-3.2059,-3.1689,-3.1689,-3.1689,-3.1581,-3.0814,-3.0547,-3.0547,-3.0635,-3.0098,-2.8989,0.0,0.0,0.0,0.0,0.0,0.0,0.0,0.0,0.0,0.0,0.0,0.0,0.0,0.0,-2.7323,0.0,0.0,-2.9712,-3.0998,-3.1846,-3.2794,-3.4119,-3.4621,-3.4867,-3.4848,-3.5184,-3.569,-3.6479,-3.6521,-3.6653,-3.7071,-3.7471,-3.7721,-3.7735,-3.7831,-3.7679,-3.7277,-3.8125,-3.8578,-3.8546,-3.9818,-4.0643,-4.1046,-4.1079,-4.1111,-4.1111,-4.1111,-4.0891,-4.0506,-4.0506,-4.0203,-3.9758,-4.0093,-4.0664,-4.1338,-4.0972,-4.0672,-4.0506,-4.0506,-4.0506,-4.0506,0.0,0.0,0.0,0.0,0.0,0.0,0.0,0.0,0.0,0.0,-1.4371,-1.5148,-1.6147,-1.6128,-1.6552,0.0,0.0,0.0,0.0,-2.0859,-2.2447,-2.5385,-2.5535,-2.6629,-2.8964,-2.9867,-3.0645,-3.1344,-3.2153,-3.2523,-3.2574,-3.2523,-3.259,-3.2672,-3.2606,-3.2639,-3.2672,-3.2852,-3.2916,-3.293,-3.3011,-3.3011,-3.3011,-3.2948,-3.2916,-3.2916,-3.2916,-3.2916,-3.2916,-3.2916,-3.2916,-3.2916,-3.2916,-3.2916,-3.217,-2.853,-2.8933,0.0,0.0,0.0,0.0,0.0,0.0,0.0,0.0,0.0,-2.7068,-2.8746,-2.8354,-2.8149,-2.9544,-2.9745,-3.0161,-3.1511,-3.2244,-3.3143,-3.4619,-3.5005,-3.5163,-3.5276,-3.5871,-3.6632,-3.7436,-3.7434,-3.7644,-3.8346,-3.8368,-3.8336,-3.8415,-3.8415,-3.8196,-3.7721,-3.8994,-3.9794,-4.0042,-4.0848,-4.1669,-4.2525,-4.2029,-4.1901,-4.2047,-4.198,-4.1889,-4.1742,-4.1525,-4.135,-4.1159,-4.0872,-4.1125,-4.1668,-4.1523,-4.1286,-4.1089,-4.2075,-4.2422,-4.2514,0.0,0.0,0.0,0.0,0.0,0.0,0.0,0.0,0.0,0.0,0.0,0.0,0.0,0.0,0.0,0.0,0.0,0.0,-1.8808,-2.0939,-2.3244,-2.5499,-2.5717,-2.6819,-2.9036,-2.988,-3.0694,-3.1458,-3.2201,-3.2657,-3.2773,-3.2639,-3.2672,-3.2852,-3.2672,-3.2737,-3.2948,-3.2916,-3.2979,-3.3086,-3.3086,-3.3086,-3.3086,-3.3086,-3.2993,-3.2916,-3.2948,-3.2948,-3.2916,-3.2979,-3.2948,-3.2916,-3.2916,-3.2916,-3.2384,-2.9869,0.0,-2.9621,-2.5638,-2.4038,-2.372,-2.4486,-2.6167,-2.7594,0.0,0.0,-3.0973,-3.0635,-3.1528,-3.2625,-3.3525,-3.3656,-3.3741,-3.3996,-3.4104,-3.4243,-3.4498,-3.5765,-3.6671,-3.6653,-3.6858,-3.7335,-3.8214,-3.8319,-3.8355,-3.8415,-3.8446,-3.8478,-3.8478,-3.851,-3.8834,-3.9557,-3.9758,-4.0217,-4.095,-4.1739,-4.2561,-4.3369,-4.4011,-4.4672,-4.5369,-4.5187,-4.4729,-4.398,-4.3012,-4.2611,-4.2519,-4.1867,-4.1632,-4.165,-4.0926,-4.0601,-4.0763,-4.2286,-4.283,-4.2848,0.0,0.0,0.0,0.0,0.0,0.0,0.0,0.0,0.0,0.0,0.0,0.0,0.0,0.0,0.0,0.0,0.0,0.0,-1.8544,-2.0901,-2.3097,-2.4938,-2.5529,-2.6641,-2.8428,-2.9331,-3.0112,-3.0787,-3.1611,-3.2048,-3.2097,-3.2426,-3.2705,-3.2884,-3.2755,-3.2773,-3.2902,-3.2934,-3.2979,-3.2993,-3.3055,-3.2847,-3.2469,-3.2469,-3.2122,-3.1697,-3.1667,-3.1571,0.0,0.0,-3.1237,-3.1011,-3.192,-3.1581,-3.0553,-2.9109,-2.8856,0.0,-2.6507,-2.6391,0.0,0.0,-2.8264,-2.9779,-2.996,-3.1314,-3.2606,-3.2798,-3.3728,-3.4483,-3.4339,-3.388,-3.375,0.0,-3.397,-3.4181,-3.5698,-3.6429,-3.6991,-3.7525,-3.7133,-3.7022,-3.7511,-3.7932,-3.799,-3.7616,-3.7965,-3.8219,-3.8267,-3.8722,-3.9358,-4.0229,-4.1158,-4.2268,-4.3542,-4.3888,-4.4452,-4.5217,-4.5108,-4.5235,-4.5544,-4.5467,-4.5246,-4.488,-4.4285,-4.4003,-4.3985,-4.3558,-4.3409,-4.3373,-4.3032,-4.2907,-4.2817,-4.2371,-4.2212,-4.2266,0.0,0.0,0.0,0.0,0.0,0.0,0.0,0.0,0.0,0.0,0.0,0.0,0.0,0.0,0.0,0.0,0.0,0.0,0.0,-2.0792,-2.2881,-2.4502,-2.5123,-2.6046,-2.7368,-2.8492,-2.9294,-2.9715,-3.0782,-3.1293,-3.1311,-3.1799,-3.2097,-3.2224,-3.2228,-3.2353,-3.2581,-3.2706,-3.2719,-3.2719,-3.2793,-3.2373,-3.1708,-3.1708,-3.1175,-3.0445,-3.0417,-3.0198,0.0,0.0,-2.9512,-2.928,-3.0356,-2.9917,-2.8874,-2.8304,-2.7609,-2.7085,-2.7201,0.0,0.0,-2.8801,-3.004,-3.1361,-3.2373,-3.3131,-3.3831,-3.4422,-3.5175,-3.548,-3.4691,-3.4031,-3.3763,-3.4249,-3.3966,-3.4325,-3.6149,-3.673,-3.7109,-3.7571,-3.6984,-3.6446,-3.6182,-3.7032,-3.7517,-3.7323,-3.7727,-3.8142,-3.8427,-3.9206,-4.0094,-4.1125,-4.2482,-4.3876,-4.5287,-4.5287,-4.5685,-4.6504,-4.5924,-4.5739,-4.5956,-4.5897,-4.5815,-4.5773,-4.5551,-4.5466,-4.5448,-4.5061,-4.4946,-4.4928,-4.4714,-4.4624,-4.4453,-4.3023,-4.251,-4.2546,0.0,0.0,0.0,0.0,0.0,0.0,0.0,0.0,0.0,0.0,0.0,0.0,0.0,0.0,0.0,0.0,0.0,0.0,0.0,-2.0675,-2.2735,-2.4428,-2.4541,-2.4963,-2.5847,-2.7415,-2.8235,-2.8253,-2.9797,-3.0547,-3.0547,-3.0564,-3.0582,-3.0582,-3.0713,-3.1231,-3.2031,-3.2108,-3.2148,-3.2234,-3.2234,-3.1707,-3.0928,-3.0928,-3.0358,-2.9546,-2.9611,0.0,0.0,0.0,-2.8245,-2.8235,-2.8131,-2.817,0.0,-2.8042,-2.6402,0.0,0.0,0.0,-2.5646,-2.9308,-3.0973,-3.2081,-3.3669,-3.4615,-3.515,-3.5168,-3.581,-3.6114,-3.5328,-3.515,-3.4918,-3.4222,-3.4686,-3.5168,-3.5239,-3.6577,-3.7309,-3.6559,-3.6399,-3.5757,0.0,-3.5711,-3.7169,-3.8011,-3.8101,-3.8445,-3.9224,-4.0022,-4.1198,-4.2772,-4.3568,-4.44,-4.5287,-4.5287,-4.5685,-4.6504,-4.6486,-4.6884,-4.7645,-4.7335,-4.7115,-4.6972,-4.6926,-4.6926,-4.6855,-4.6088,-4.5766,-4.5695,-4.491,-4.4624,-4.4607,-4.4535,-4.45,-4.441,0.0,0.0,0.0,0.0,0.0,0.0,0.0,0.0,0.0,0.0,0.0,0.0,0.0,0.0,0.0,0.0,0.0,0.0,0.0,-1.9412,-2.118,-2.277,-2.3859,-2.458,-2.4928,-2.6027,-2.6605,-2.6621,-2.7701,-2.834,-2.8529,-2.9407,-2.9941,-3.0127,-3.0439,-3.0612,-3.0672,-3.0703,-3.0734,-3.0764,-3.0903,-3.0575,-2.9926,-2.8943,-2.8059,-2.7083,0.0,0.0,0.0,0.0,0.0,0.0,-2.5433,-2.5042,-2.42,-2.4067,-2.5314,-2.6692,0.0,0.0,-2.8841,-3.0698,-3.225,-3.3562,-3.4597,-3.5435,-3.5846,-3.5328,-3.4991,-3.4565,-3.3764,-3.2716,-3.2222,-3.3123,-3.3413,-3.4106,-3.574,-3.5919,-3.6381,-3.7807,-3.6968,0.0,0.0,0.0,0.0,-3.6916,-3.8384,-3.9406,-3.9675,-4.0966,-4.2185,-4.3261,-4.4534,-4.5592,-4.6416,-4.6434,-4.656,-4.6811,-4.6811,-4.6954,-4.7205,-4.716,-4.707,-4.6998,-4.6998,-4.6998,-4.6962,-4.6712,-4.6587,-4.6569,-4.6302,-4.6195,-4.6195,-4.6195,-4.6195,-4.5998,0.0,0.0,0.0,0.0,0.0,0.0,0.0,0.0,0.0,0.0,0.0,0.0,0.0,0.0,0.0,0.0,0.0,0.0,0.0,0.0,-1.907,-2.0488,-2.1528,-2.2124,-2.2218,-2.3726,-2.4515,-2.4504,-2.5933,-2.6721,-2.6908,-2.7688,-2.8127,-2.8303,-2.8482,-2.867,-2.8876,-2.9188,-2.9372,-2.9444,-2.9323,-2.8881,-2.8164,-2.6621,-2.5523,0.0,0.0,0.0,0.0,0.0,0.0,0.0,-2.3271,-2.3136,-2.2629,-2.32,-2.4933,-2.6763,-2.7179,-2.8599,-3.0308,-3.1702,-3.3247,-3.4561,-3.4775,-3.5632,-3.6167,-3.5382,-3.4795,-3.4013,-3.2627,-3.1493,-3.1018,-3.1862,-3.2154,-3.3182,-3.565,-3.5687,-3.6203,-3.8148,-3.736,-3.7305,0.0,0.0,0.0,-3.718,-3.8572,-3.9676,-4.0267,-4.1533,-4.287,-4.4285,-4.557,-4.648,-4.698,-4.6998,-4.6998,-4.6998,-4.6998,-4.6998,-4.6998,-4.6998,-4.6676,-4.6177,-4.6748,-4.6659,-4.6195,-4.6748,-4.6998,-4.6998,-4.6998,-4.6998,-4.6998,-4.6998,-4.6998,-4.6801,0.0,0.0,0.0,0.0,0.0,0.0,0.0,0.0,0.0,0.0,0.0,0.0,0.0,0.0,0.0,0.0,0.0,0.0,0.0,0.0,0.0,-1.7778,-1.7919,-1.7984,-1.8059,-2.0613,-2.1972,-2.1972,-2.4284,-2.5412,-2.5405,-2.52,-2.5112,-2.5094,-2.4941,-2.548,-2.649,-2.7334,-2.7835,-2.8008,-2.7373,-2.6579,-2.5649,-2.4096,0.0,0.0,0.0,0.0,0.0,0.0,0.0,0.0,0.0,0.0,-2.3573,-2.5265,-2.5301,-2.5578,-2.9219,-2.9894,-3.0089,-3.2307,-3.3995,-3.4989,-3.4311,-3.5293,-3.6078,-3.5221,-3.4938,-3.4171,0.0,0.0,-3.1097,-3.0528,-3.1062,-3.236,-3.4777,-3.581,-3.6613,0.0,0.0,0.0,0.0,0.0,0.0,-3.878,0.0,-3.9455,-4.1042,-4.1819,-4.3319,-4.5731,-4.6569,-4.6998,-4.6998,-4.6998,-4.6998,-4.6998,-4.6998,-4.6998,-4.6998,-4.6998,-4.6159,-4.4821,-4.6337,-4.6123,-4.4856,-4.6373,-4.6998,-4.6998,-4.6998,-4.6998,-4.6998,-4.6998,-4.6998,-4.6873,0.0,0.0,0.0,0.0,0.0,0.0,0.0,0.0,0.0,0.0,0.0,0.0,0.0,0.0,0.0,0.0,0.0,0.0,0.0,0.0,0.0,0.0,0.0,0.0,0.0,0.0,0.0,0.0,0.0,-2.0216,-2.0238,-2.0848,-2.1179,-2.125,-2.1547,-2.1725,-2.1823,-2.2055,-2.2175,-2.2302,0.0,-2.3165,-2.3079,0.0,0.0,0.0,0.0,0.0,0.0,0.0,0.0,0.0,0.0,0.0,-2.508,-2.4953,-2.6748,-2.8811,-2.871,-3.0249,-3.225,-3.3476,-3.4064,-3.449,-3.4847,-3.517,-3.4869,-3.2927,-3.1529,-3.0118,0.0,0.0,0.0,-2.9201,-3.0092,0.0,-3.3807,-3.4338,0.0,0.0,0.0,-3.8216,-4.0,-4.0556,0.0,0.0,-4.0976,-4.18,-4.2816,-4.3565,-4.4528,-4.5766,-4.6569,-4.6998,-4.6998,-4.6998,-4.6998,-4.6998,-4.6998,-4.6998,-4.6998,-4.6998,-4.6766,-4.6409,-4.6819,-4.6766,-4.6409,-4.6819,-4.6998,-4.6998,-4.6998,-4.6998,-4.6998,-4.6998,-4.6998,-4.6962,0.0,0.0,0.0,0.0,0.0,0.0,0.0,0.0,0.0,0.0,0.0,0.0,0.0,0.0,0.0,0.0,0.0,0.0,0.0,0.0,0.0,0.0,0.0,0.0,0.0,0.0,0.0,0.0,0.0,0.0,0.0,-1.8562,-1.8779,-1.8801,-1.8995,-1.909,-1.9114,-1.9478,0.0,0.0,0.0,0.0,0.0,0.0,0.0,0.0,0.0,0.0,0.0,0.0,0.0,-2.2038,-2.4764,-2.5895,-2.6446,-2.7442,0.0,-3.0361,-3.0255,-3.1484,-3.2977,-3.3455,-3.3847,-3.3937,-3.328,-3.3372,-3.2879,-3.0516,-2.9284,0.0,0.0,0.0,0.0,0.0,0.0,0.0,-3.3505,-3.4144,-3.5155,0.0,-3.7787,0.0,-4.0913,-4.1413,-4.1627,0.0,-4.1675,-4.2228,-4.3344,-4.3789,-4.4741,-4.6284,-4.6748,-4.6998,-4.6998,-4.6998,-4.6998,-4.6998,-4.6998,-4.6998,-4.6998,-4.6998,-4.6605,-4.5998,0.0,-4.6587,-4.5998,-4.6712,-4.6998,-4.6998,-4.6998,-4.6998,-4.6998,-4.6998,-4.6998,-4.6998,0.0,0.0,0.0,0.0,0.0,0.0,0.0,0.0,0.0,0.0,0.0,0.0,0.0,0.0,0.0,0.0,0.0,0.0,0.0,0.0,0.0,0.0,0.0,0.0,0.0,0.0,0.0,0.0,0.0,0.0,0.0,0.0,0.0,0.0,0.0,0.0,0.0,0.0,0.0,0.0,0.0,0.0,0.0,0.0,0.0,0.0,0.0,0.0,0.0,0.0,-2.2949,-2.2944,-2.6312,-2.7352,-2.784,-3.0695,-3.1194,-3.1075,-3.2259,-3.2755,-3.2916,-3.2916,-3.3419,-3.3369,-3.1288,-3.1062,-3.0658,-2.8439,0.0,-2.7136,-2.5844,0.0,-2.7,-2.7986,0.0,-3.1009,-3.3097,-3.4285,-3.5492,-3.6967,-3.784,-3.9035,-4.0931,-4.1538,-4.1948,-4.2269,-4.1688,-4.1949,-4.3408,-4.3586,-4.468,-4.6926,-4.6998,-4.6998,-4.6998,-4.6998,-4.6998,-4.6998,-4.6998,-4.6998,-4.6998,-4.6998,-4.623,-4.5017,-4.6391,-4.6212,-4.5035,-4.6409,-4.6998,-4.6998,-4.6998,-4.6998,-4.6998,-4.6998,-4.6998,-4.6998,0.0,0.0,0.0,0.0,0.0,0.0,0.0,0.0,0.0,0.0,0.0,0.0,0.0,0.0,0.0,0.0,0.0,0.0,0.0,0.0,0.0,0.0,0.0,0.0,0.0,0.0,0.0,0.0,0.0,0.0,0.0,0.0,0.0,0.0,0.0,0.0,0.0,0.0,0.0,0.0,0.0,0.0,0.0,0.0,0.0,0.0,0.0,0.0,0.0,0.0,-2.3305,-2.3963,-2.8467,-2.9875,-2.9964,-3.0547,-3.1546,-3.2242,-3.1207,-3.1885,-3.2916,-3.2916,-3.2991,-3.2991,-3.2581,-3.0991,0.0,0.0,0.0,-2.5129,-2.5456,-2.6178,0.0,-2.8594,0.0,0.0,0.0,0.0,-3.4497,0.0,0.0,0.0,0.0,0.0,0.0,0.0,0.0,-4.344,-4.4331,-4.4991,-4.5891,-4.6962,-4.6998,-4.6998,-4.6998,-4.6998,-4.6998,-4.6998,-4.6998,-4.6998,-4.6998,-4.6998,-4.6837,-4.6587,-4.6873,0.0,-4.6605,-4.6873,-4.6998,-4.6998,-4.6998,-4.6998,-4.6998,-4.6998,-4.6998,-4.6998,0.0,0.0,0.0,0.0,0.0,0.0,0.0,0.0,0.0,0.0,-0.8937,-0.9818,0.0,0.0,0.0,0.0,0.0,0.0,0.0,0.0,0.0,0.0,0.0,0.0,0.0,0.0,0.0,0.0,0.0,0.0,0.0,0.0,0.0,0.0,0.0,0.0,0.0,0.0,0.0,0.0,0.0,0.0,0.0,0.0,0.0,0.0,0.0,0.0,0.0,0.0,-2.2118,-2.3122,-2.8678,-3.0481,-3.0481,-3.0421,-3.1573,-3.2545,-3.0945,-3.1689,-3.2916,-3.2916,-3.2916,-3.2456,-3.0724,0.0,0.0,0.0,0.0,-2.3837,-2.4206,0.0,0.0,0.0,0.0,0.0,0.0,0.0,0.0,0.0,0.0,0.0,0.0,0.0,0.0,0.0,0.0,-4.3393,-4.4553,-4.5766,-4.6587,-4.698,-4.6998,-4.6998,-4.6998,-4.6998,-4.6998,-4.6998,-4.6998,-4.6998,-4.6998,-4.6998,-4.6998,-4.6998,-4.6998,-4.6516,-4.582,-4.6641,-4.6498,-4.5838,-4.6659,-4.6998,-4.6998,-4.6998,-4.6998,-4.6998,0.0,0.0,0.0,0.0,0.0,0.0,0.0,-0.7445,-0.748,-0.6841,-0.7327,-0.8343,-0.9988,-1.1006,0.0,0.0,0.0,0.0,0.0,0.0,0.0,0.0,0.0,0.0,0.0,0.0,0.0,0.0,0.0,0.0,0.0,0.0,0.0,0.0,0.0,0.0,0.0,0.0,0.0,0.0,0.0,0.0,0.0,0.0,0.0,0.0,0.0,0.0,0.0,0.0,-2.0795,-2.1972,-2.7581,-2.9414,-2.959,-3.0018,-3.1217,-3.2188,-3.1283,-3.1956,-3.2948,-3.2884,-3.2884,-3.2152,-2.9207,-2.8138,0.0,0.0,-2.3207,-2.3014,-2.3506,0.0,0.0,0.0,0.0,0.0,0.0,0.0,0.0,0.0,0.0,0.0,0.0,0.0,0.0,0.0,0.0,0.0,-4.5035,-4.6302,-4.6998,-4.6998,-4.6998,-4.6998,-4.6998,-4.6998,-4.6998,-4.6998,-4.6998,-4.6998,-4.6998,-4.6998,-4.6998,-4.6998,-4.6998,-4.6088,-4.4732,-4.6337,-4.6052,-4.4767,-4.6373,-4.6998,-4.6998,-4.6998,-4.6998,-4.6998,0.0,0.0,0.0,0.0,0.0,0.0,0.0,-0.7396,-0.6972,-0.6665,-0.7299,-0.7857,-0.8049,-0.933,0.0,0.0,0.0,0.0,0.0,0.0,0.0,0.0,0.0,0.0,0.0,0.0,0.0,0.0,0.0,0.0,0.0,0.0,0.0,0.0,0.0,0.0,0.0,0.0,0.0,0.0,0.0,0.0,0.0,0.0,0.0,0.0,0.0,0.0,0.0,0.0,0.0,-2.1494,-2.49,-2.6074,-2.6676,-2.8907,0.0,0.0,-3.2331,-3.2872,-3.3024,-3.287,-3.2902,-3.2501,-3.0701,0.0,0.0,0.0,-2.3633,-2.2716,-2.4822,-2.5243,0.0,0.0,0.0,0.0,0.0,0.0,0.0,0.0,0.0,0.0,0.0,0.0,0.0,0.0,0.0,0.0,-4.6676,-4.6908,-4.6998,-4.6998,-4.6998,-4.6998,-4.6998,-4.6998,-4.6998,-4.6998,-4.6998,-4.6998,-4.6998,-4.6998,-4.6998,-4.6998,-4.6998,-4.6088,0.0,-4.6337,-4.6052,-4.4767,-4.6373,-4.6998,-4.6998,-4.6998,-4.6998,-4.6998,0.0,0.0,0.0,0.0,0.0,0.0,0.0,-0.7509,-0.7262,-0.6297,-0.6738,-0.7339,-0.7869,-0.8804,-1.0,0.0,0.0,0.0,0.0,0.0,0.0,0.0,0.0,0.0,0.0,0.0,0.0,0.0,0.0,0.0,0.0,0.0,0.0,0.0,0.0,0.0,0.0,0.0,0.0,0.0,0.0,0.0,0.0,0.0,0.0,0.0,0.0,0.0,0.0,0.0,0.0,0.0,-2.0819,-2.2023,0.0,0.0,-2.8075,-2.979,-2.9479,-3.1213,-3.3086,-3.3011,-3.2701,-3.1823,-2.9572,0.0,0.0,-2.4461,-2.3362,-2.2992,-2.3857,-2.4058,-2.4655,0.0,0.0,0.0,0.0,0.0,0.0,0.0,0.0,0.0,0.0,0.0,0.0,0.0,0.0,-4.4321,-4.6855,-4.6998,-4.6998,-4.6998,-4.6998,-4.6998,-4.6998,-4.6998,-4.6998,-4.6998,-4.6998,-4.6998,-4.6998,-4.6998,-4.6998,-4.6998,-4.6998,-4.5552,0.0,-4.5945,-4.5499,-4.3465,-4.5998,-4.6998,-4.6998,-4.6998,-4.6998,-4.6998,0.0,0.0,0.0,0.0,0.0,0.0,-0.7449,-0.7577,-0.7372,-0.6329,-0.6559,-0.7047,-0.7638,-0.8484,-0.9541,-1.0818,0.0,0.0,0.0,0.0,0.0,0.0,0.0,0.0,0.0,0.0,0.0,0.0,0.0,0.0,0.0,0.0,0.0,0.0,0.0,0.0,0.0,0.0,0.0,0.0,0.0,0.0,0.0,0.0,0.0,0.0,0.0,0.0,0.0,0.0,0.0,0.0,0.0,0.0,0.0,0.0,-2.6116,-2.8532,-2.7665,-2.9907,-3.2445,-3.2385,-3.1649,-3.0338,0.0,0.0,0.0,-2.3287,-2.2864,-2.2976,-2.3116,-2.3023,-2.3446,-2.5147,0.0,0.0,0.0,0.0,0.0,0.0,0.0,0.0,0.0,0.0,0.0,0.0,0.0,-4.4011,-4.647,-4.6873,-4.6998,-4.6998,-4.6998,-4.6998,-4.6998,-4.6998,-4.6998,-4.6998,-4.6998,-4.6748,-4.6302,-4.6628,-4.6482,-4.6074,-4.6377,-4.5067,0.0,-4.563,-4.5169,-4.302,-4.5701,-4.6619,-4.6525,-4.6525,-4.6619,-4.6778,0.0,0.0,0.0,0.0,0.0,0.0,0.0,-0.7498,-0.7043,-0.691,-0.7007,-0.7083,-0.7028,-0.8253,-0.9421,-1.0234,0.0,0.0,0.0,0.0,0.0,0.0,0.0,0.0,0.0,0.0,0.0,-1.4606,-1.3718,-1.3544,0.0,0.0,0.0,0.0,0.0,0.0,0.0,0.0,0.0,0.0,0.0,0.0,0.0,0.0,0.0,0.0,0.0,0.0,0.0,0.0,0.0,0.0,0.0,0.0,0.0,0.0,-2.4611,-2.7281,-2.7987,-2.9584,-3.0966,-3.0693,-2.9583,-2.8098,0.0,0.0,0.0,-2.2531,-2.2207,-2.2437,-2.3171,-2.2698,-2.2929,-2.5138,-2.5482,0.0,0.0,0.0,0.0,0.0,0.0,0.0,0.0,0.0,0.0,0.0,0.0,0.0,-4.5658,-4.6542,-4.6998,-4.6998,-4.6998,-4.6998,-4.6998,-4.6998,-4.6998,-4.6998,-4.6998,-4.6159,-4.4652,-4.5723,-4.5343,-4.3863,-4.487,-4.4746,0.0,-4.5536,-4.5256,-4.3945,-4.5572,-4.5852,-4.5303,-4.5303,-4.57,-4.6186,0.0,0.0,0.0,0.0,0.0,0.0,0.0,-0.8106,-0.7967,-0.7862,-0.789,-0.788,-0.7759,-0.8631,-0.9653,-1.0694,0.0,0.0,0.0,0.0,0.0,0.0,0.0,0.0,0.0,0.0,-1.2544,-1.269,-1.2701,-1.2569,-1.2353,-1.2332,0.0,0.0,0.0,0.0,0.0,0.0,0.0,0.0,0.0,0.0,0.0,0.0,0.0,0.0,0.0,0.0,0.0,0.0,0.0,0.0,0.0,0.0,0.0,0.0,0.0,0.0,-2.5733,-2.7155,-2.8495,-2.8927,-2.8282,-2.7125,-2.5464,0.0,-2.3524,-2.2424,-2.1829,-2.1747,-2.242,-2.2394,-2.286,-2.4657,-2.5379,0.0,0.0,0.0,0.0,0.0,0.0,0.0,0.0,0.0,0.0,0.0,0.0,-4.3177,-4.5651,-4.6052,-4.6427,-4.6962,-4.6998,-4.6998,-4.6998,-4.6998,-4.6842,-4.6429,-4.6429,-4.5176,-4.2894,-4.4727,-4.4503,-4.2645,-4.4526,-4.4492,-4.3363,-4.4956,-4.4678,-4.3415,-4.4973,-4.5477,-4.5303,-4.5303,-4.5425,-4.558,0.0,0.0,0.0,0.0,0.0,0.0,0.0,-0.8403,-0.8393,-0.8338,-0.8367,-0.8327,-0.8191,-0.8651,-0.9372,-1.0383,0.0,0.0,0.0,0.0,0.0,0.0,0.0,0.0,0.0,-1.2112,-1.2081,-1.1957,-1.1707,-1.1451,-1.121,-1.1182,-1.1582,-1.2322,0.0,0.0,0.0,0.0,0.0,0.0,0.0,0.0,-1.3636,0.0,0.0,0.0,0.0,0.0,0.0,0.0,0.0,0.0,0.0,0.0,0.0,0.0,-2.157,0.0,0.0,-2.5613,-2.6862,-2.7022,-2.6242,0.0,0.0,0.0,-2.2099,-2.1557,-2.1598,-2.1765,-2.1839,-2.2378,-2.3026,-2.37,-2.5419,0.0,0.0,0.0,0.0,0.0,0.0,0.0,0.0,0.0,0.0,0.0,-4.2228,-4.275,-4.4733,-4.5151,-4.5713,-4.6516,-4.6837,-4.6998,-4.6998,-4.6539,-4.6242,-4.6186,-4.5673,-4.4205,-4.2023,-4.4061,-4.3751,-4.1746,-4.3778,-4.4255,0.0,-4.4624,-4.4453,-4.3647,-4.4641,-4.4838,-4.4674,-4.4674,-4.4783,-4.5001,0.0,0.0,0.0,0.0,0.0,0.0,0.0,0.0,0.0,0.0,-0.8457,-0.8457,-0.8327,-0.8364,-0.874,0.0,0.0,0.0,0.0,0.0,0.0,0.0,0.0,0.0,0.0,-1.1895,-1.181,-1.202,-1.0805,-1.0322,-1.0514,-1.032,-1.0742,-1.1653,-1.2398,-1.3174,-1.3906,-1.3915,-1.3731,-1.3457,-1.3793,-1.3793,0.0,0.0,0.0,0.0,0.0,0.0,0.0,0.0,0.0,0.0,0.0,0.0,0.0,0.0,0.0,0.0,0.0,0.0,0.0,0.0,0.0,0.0,0.0,0.0,0.0,-2.0336,-2.1527,-2.2319,-2.161,-2.2779,-2.3566,-2.2646,0.0,0.0,0.0,0.0,0.0,0.0,0.0,0.0,0.0,0.0,0.0,0.0,-4.2779,-4.3223,-4.3337,-4.4057,-4.491,-4.5695,-4.6381,-4.6791,-4.6845,-4.5682,-4.5291,-4.5737,-4.4645,-4.3217,-4.157,-4.3532,-4.3124,0.0,-4.2791,-4.3889,-4.4446,-4.4446,-4.4446,-4.4446,-4.4446,-4.4121,-4.3628,-4.3628,-4.3948,-4.4446,0.0,0.0,0.0,0.0,0.0,0.0,0.0,0.0,0.0,0.0,0.0,-0.8508,-0.8524,-0.8495,0.0,0.0,0.0,0.0,0.0,0.0,0.0,0.0,0.0,0.0,0.0,-1.1652,-1.1253,-1.0281,-1.033,-1.0129,-0.968,-0.968,-1.0118,-1.0887,-1.1692,-1.275,-1.3977,-1.4026,-1.3966,-1.3874,-1.3934,-1.3966,0.0,0.0,0.0,0.0,-1.4417,-1.4465,0.0,0.0,0.0,0.0,0.0,0.0,0.0,0.0,-2.0837,-2.1542,-2.2592,0.0,-2.3444,-2.3768,0.0,0.0,0.0,0.0,0.0,0.0,0.0,0.0,0.0,0.0,0.0,0.0,0.0,0.0,0.0,0.0,0.0,0.0,0.0,0.0,0.0,0.0,0.0,0.0,-4.2281,-4.2697,-4.3422,-4.3636,-4.4107,-4.4874,-4.4632,-4.4818,-4.5529,-4.5258,-4.3916,-4.1543,-4.2943,-4.139,-3.7551,-4.1872,-4.2332,-3.9867,-4.2477,-4.3671,-4.3789,-4.3789,-4.3789,-4.3789,-4.3789,-4.373,-4.3628,-4.3628,-4.3671,-4.3789,0.0,0.0,0.0,0.0,0.0,0.0,0.0,0.0,0.0,0.0,0.0,0.0,0.0,0.0,0.0,0.0,0.0,0.0,0.0,0.0,0.0,0.0,0.0,0.0,-1.1484,-1.1417,-1.088,-0.9835,-0.9908,-0.9775,-0.9439,-0.9483,-0.9897,-1.0705,-1.1851,-1.28,-1.3583,-1.3939,-1.4068,-1.3991,-1.3991,0.0,0.0,0.0,0.0,0.0,-1.4423,-1.4471,0.0,-1.4459,-1.4739,-1.5207,0.0,0.0,0.0,0.0,-2.0388,-2.1486,-2.2357,-2.2826,-2.3184,-2.3574,-2.3084,-2.2401,0.0,0.0,0.0,0.0,0.0,0.0,0.0,0.0,0.0,0.0,0.0,0.0,0.0,0.0,0.0,0.0,0.0,0.0,0.0,0.0,0.0,-4.2187,-4.2187,-4.2383,-4.2929,-4.2947,-4.3159,-4.3607,-4.3335,-4.3565,-4.4466,-4.3617,-4.2156,-4.0037,-4.1362,-4.0258,-3.7152,-4.0895,-4.1574,-3.9852,-4.1094,-4.2204,-4.3065,-4.2402,-4.2717,-4.3628,-4.3628,-4.3628,-4.3628,-4.3628,-4.3413,-4.3115,0.0,0.0,0.0,0.0,0.0,0.0,0.0,0.0,0.0,0.0,0.0,0.0,0.0,0.0,0.0,0.0,0.0,0.0,0.0,0.0,0.0,0.0,0.0,-1.2723,-1.1646,-1.1221,-1.0636,-0.9867,-0.9542,-0.943,-0.9492,-0.9518,-0.9997,-1.0941,-1.2245,-1.2955,-1.3211,-1.3828,-1.4068,-1.4023,-1.4023,0.0,0.0,0.0,0.0,0.0,0.0,0.0,0.0,-1.4411,-1.4429,-1.4593,-1.5216,0.0,0.0,0.0,0.0,0.0,-2.2233,-2.3014,-2.3689,-2.3985,-2.3293,-2.2582,0.0,0.0,0.0,0.0,0.0,0.0,0.0,0.0,0.0,0.0,0.0,0.0,0.0,0.0,0.0,0.0,0.0,0.0,0.0,0.0,-4.2009,-4.2009,-4.2009,-4.1967,-4.1866,-4.2032,-4.2139,-4.2155,-4.2079,-4.2345,-4.3054,-4.1665,-4.0439,-3.9378,-4.0047,-3.9553,-3.8077,-4.0498,-4.121,-4.0514,0.0,0.0,-4.2585,-4.1259,-4.1856,-4.3628,-4.3628,-4.3562,-4.3446,-4.3446,-4.2999,-4.2336,0.0,0.0,0.0,0.0,0.0,0.0,0.0,0.0,0.0,0.0,0.0,0.0,0.0,0.0,0.0,0.0,0.0,0.0,0.0,0.0,0.0,0.0,-1.3056,-1.2638,-1.1302,-1.1147,-1.048,-0.9237,-0.9338,-0.9439,-0.95,-0.957,-1.0349,-1.1726,-1.1967,-1.2765,-1.3935,-1.4046,-1.4082,-1.4082,-1.4082,0.0,0.0,0.0,0.0,0.0,0.0,0.0,0.0,-1.4429,-1.4417,-1.4532,-1.5185,0.0,0.0,0.0,0.0,0.0,-2.1602,-2.2257,-2.3184,-2.4505,-2.3234,-2.2039,0.0,0.0,0.0,0.0,0.0,0.0,0.0,0.0,0.0,0.0,0.0,0.0,0.0,0.0,0.0,0.0,0.0,0.0,0.0,0.0,-4.068,-4.068,-4.068,-4.049,-3.9939,-4.0909,-4.1202,-4.0631,-4.0121,-3.995,-4.0068,-4.0589,-3.9571,-3.7159,-3.9188,-3.9056,-3.723,-4.074,-4.1955,-4.1276,0.0,-4.2568,-4.3396,-4.2535,-4.2767,-4.3628,-4.3628,-4.3247,-4.2684,-4.2684,-4.222,-4.1508,0.0,0.0,0.0,0.0,0.0,0.0,0.0,0.0,0.0,0.0,0.0,0.0,0.0,0.0,0.0,0.0,0.0,0.0,0.0,0.0,0.0,-1.194,-1.2181,-1.184,-1.0786,-1.0765,-1.0289,-0.9258,-0.943,-0.9527,-0.957,-1.0032,-1.0612,-1.1286,-1.2122,-1.2867,-1.3538,-1.3935,-1.41,-1.41,0.0,0.0,0.0,0.0,0.0,0.0,0.0,0.0,0.0,0.0,-1.4399,-1.4447,-1.4723,0.0,0.0,0.0,0.0,0.0,-2.1368,-2.1786,-2.2658,-2.5071,-2.3603,-2.2297,0.0,0.0,0.0,0.0,0.0,0.0,0.0,0.0,0.0,0.0,0.0,0.0,0.0,0.0,0.0,0.0,0.0,0.0,0.0,-3.8531,-3.9719,-3.9425,-3.9425,-3.9294,-3.9026,-3.9534,-3.9526,-3.8848,-3.8588,-3.8253,-3.7892,-3.8292,-3.7857,-3.6519,-3.8461,-3.8471,-3.6845,-3.9402,-4.0668,-4.0684,0.0,-4.0895,-4.2883,-4.0978,-4.1309,-4.2999,-4.2585,-4.222,-4.1872,-4.1508,-4.1143,-4.0746,0.0,0.0,0.0,0.0,0.0,0.0,0.0,0.0,0.0,0.0,0.0,0.0,0.0,0.0,0.0,0.0,0.0,0.0,0.0,0.0,-1.2039,-1.1182,-1.1202,-1.0977,-1.0416,-1.0472,-1.0162,-0.9421,-0.9543,-0.9603,-0.963,-1.0431,-1.0857,-1.1045,-1.2403,-1.3124,-1.3326,-1.3877,-1.4114,-1.4114,0.0,0.0,0.0,0.0,0.0,0.0,0.0,0.0,0.0,0.0,0.0,0.0,0.0,0.0,0.0,-1.6653,-1.8399,-2.0174,-2.1242,-2.1406,-2.1988,-2.5029,0.0,-2.239,-2.664,0.0,0.0,0.0,0.0,0.0,0.0,0.0,0.0,0.0,0.0,0.0,0.0,0.0,0.0,0.0,0.0,0.0,-3.6264,-3.7796,-3.8659,-3.816,-3.816,-3.8116,-3.7963,-3.8225,-3.8035,-3.7384,-3.7384,-3.7103,-3.661,-3.6626,-3.6522,-3.645,-3.7719,-3.7777,-3.6727,-3.8146,-3.9143,-3.9589,-3.8044,-3.9139,-4.1839,-3.9454,-3.9967,-4.2204,-4.164,-4.1309,-4.1077,-4.0382,-4.0117,-4.0034,0.0,0.0,0.0,0.0,0.0,0.0,0.0,0.0,0.0,0.0,0.0,0.0,0.0,0.0,0.0,0.0,0.0,0.0,0.0,0.0,-1.1222,-1.0401,-1.0446,-1.0451,-1.0399,-1.0468,-1.0162,-0.95,-0.9559,-0.9625,-0.9709,-1.0457,-1.1158,-1.1843,-1.2701,-1.3473,-1.4113,-1.4181,-1.419,-1.419,-1.419,0.0,0.0,0.0,0.0,0.0,0.0,0.0,0.0,0.0,0.0,0.0,0.0,0.0,-1.4841,-1.722,-1.8517,-1.9521,-2.1152,-2.1096,-2.1168,-2.3635,0.0,0.0,-2.649,0.0,0.0,0.0,0.0,0.0,0.0,0.0,0.0,0.0,0.0,0.0,0.0,0.0,0.0,0.0,0.0,-3.8383,-3.769,-3.7585,-3.7325,-3.6789,-3.6852,-3.6666,-3.6059,-3.7081,-3.7384,-3.6713,-3.6662,-3.6662,-3.661,-3.6591,-3.6591,-3.6574,-3.6878,-3.6997,-3.6915,-3.7826,-3.8259,-3.8308,-3.8195,-3.9056,-4.0464,-3.957,-4.01,-4.1491,-4.1425,-4.1011,-4.0365,-3.962,-3.9355,-3.9355,0.0,0.0,0.0,0.0,0.0,0.0,0.0,0.0,0.0,0.0,0.0,0.0,0.0,0.0,0.0,0.0,0.0,0.0,0.0,0.0,-1.0485,-0.9769,-0.9733,-0.9753,-0.983,-0.9869,-0.978,-0.957,-0.9617,-0.9916,-1.0392,-1.1177,-1.1949,-1.2676,-1.3485,-1.3984,-1.4198,-1.419,-1.4221,-1.4252,-1.426,-1.4281,0.0,0.0,0.0,0.0,0.0,0.0,0.0,0.0,-1.4258,-1.4057,0.0,-1.4725,-1.5392,-1.683,-1.8164,-1.9532,-2.1223,-2.1424,-2.199,-2.5421,0.0,0.0,0.0,0.0,0.0,0.0,0.0,0.0,0.0,0.0,0.0,0.0,0.0,0.0,0.0,0.0,0.0,0.0,-3.5682,-3.6705,-3.6229,-3.6095,-3.5824,-3.5328,-3.5328,-3.5297,-3.5119,-3.5545,-3.5726,-3.5547,-3.5547,-3.5547,-3.5547,-3.5564,-3.5564,-3.5564,-3.6319,-3.6694,-3.6711,-3.7162,-3.7609,-3.8074,-3.768,-3.8344,-3.9603,-3.8427,-3.8775,-4.0083,-4.0083,-3.9918,-3.9653,-3.9371,-3.9272,-3.9272,0.0,0.0,0.0,0.0,0.0,0.0,0.0,0.0,0.0,0.0,0.0,0.0,0.0,0.0,0.0,0.0,0.0,0.0,0.0,-1.0252,-0.988,-0.9412,-0.9367,-0.9394,-0.9501,-0.9518,-0.9552,-0.9605,-0.9675,-1.0086,-1.0858,-1.1633,-1.2386,-1.3141,-1.3937,-1.4273,-1.4229,-1.4242,-1.4273,-1.4304,-1.4312,-1.4356,0.0,0.0,0.0,0.0,0.0,0.0,0.0,0.0,-1.4128,0.0,0.0,0.0,0.0,0.0,-1.7972,-1.9581,-2.1258,-2.1679,-2.2556,0.0,0.0,0.0,0.0,0.0,0.0,0.0,0.0,0.0,0.0,0.0,0.0,0.0,0.0,0.0,0.0,0.0,0.0,0.0,-3.4619,-3.5355,-3.5111,-3.5128,-3.5005,-3.4497,-3.4497,-3.4546,-3.4643,-3.4643,-3.4691,-3.4787,-3.4787,-3.4851,-3.4851,-3.4899,-3.4899,-3.4916,-3.5679,-3.6056,-3.6056,-3.619,-3.6521,-3.6982,-3.6572,-3.7102,-3.8179,-3.7298,-3.7738,-3.9002,-3.9002,-3.9002,-3.9002,-3.9002,-3.9002,-3.9002,0.0,0.0,0.0,0.0,0.0,0.0,0.0,0.0,0.0,0.0,0.0,0.0,0.0,0.0,0.0,0.0,0.0,0.0,-1.0553,-0.9861,-0.9421,-0.9421,-0.9403,-0.943,-0.9501,-0.9562,-0.9605,-0.9605,-0.9665,-1.0118,-1.093,-1.1671,-1.2396,-1.3145,-1.3962,-1.4317,-1.4304,-1.433,-1.433,-1.4317,-1.4381,-1.4399,-1.4399,0.0,0.0,0.0,0.0,0.0,0.0,0.0,-1.3317,-1.3301,0.0,0.0,0.0,-1.6447,-1.8057,-1.9648,-2.1276,-2.1769,0.0,0.0,0.0,0.0,0.0,0.0,0.0,0.0,0.0,0.0,0.0,0.0,0.0,0.0,0.0,0.0,0.0,0.0,0.0,-3.3009,-3.4134,-3.4925,-3.4781,-3.5035,-3.4941,-3.4333,-3.4448,-3.4497,-3.4497,-3.4497,-3.4497,-3.4497,-3.4643,-3.4707,-3.4691,-3.4851,-3.4899,-3.4899,-3.4899,-3.4899,-3.4899,-3.4899,-3.4916,-3.4916,-3.4916,-3.533,-3.6009,-3.645,-3.728,-3.8391,-3.8391,-3.8391,-3.8391,-3.8391,-3.8391,-3.8391,0.0,0.0,0.0,0.0,0.0,0.0,0.0,0.0,0.0,0.0,0.0,0.0,0.0,0.0,0.0,0.0,0.0,0.0,-1.0683,-1.0991,-1.0937,-1.0413,-1.034,-1.0087,-0.9575,-0.9631,-0.9672,-0.9672,-1.026,-1.0921,-1.1689,-1.2433,-1.32,-1.4011,-1.5428,-1.5428,-1.4427,-1.5569,-1.5431,-1.4441,-1.4447,-1.4471,-1.4476,0.0,0.0,0.0,0.0,0.0,0.0,0.0,0.0,0.0,0.0,0.0,0.0,-1.8819,-1.9772,-2.0631,-2.285,0.0,0.0,0.0,0.0,0.0,0.0,0.0,0.0,0.0,0.0,0.0,0.0,0.0,0.0,0.0,0.0,0.0,0.0,0.0,0.0,-3.1709,-3.2486,-3.3106,-3.3064,-3.3494,-3.3711,-3.3535,-3.3958,-3.425,-3.4349,-3.4349,-3.4349,-3.4349,-3.4399,-3.4349,-3.43,-3.4805,-3.4905,-3.4611,-3.5103,-3.5185,-3.4916,-3.5446,-3.5678,-3.5694,-3.6224,-3.6455,-3.6483,-3.6906,-3.7297,-3.7695,-3.8197,-3.8391,-3.8391,-3.8391,-3.8391,-3.8408,0.0,0.0,0.0,0.0,0.0,0.0,0.0,0.0,0.0,0.0,0.0,0.0,0.0,0.0,0.0,0.0,0.0,0.0,0.0,0.0,-1.1628,-1.118,-1.0903,-1.0385,-0.9657,-0.9677,-0.9857,-1.0181,-1.0653,-1.1288,-1.2008,-1.2779,-1.3563,-1.4373,-1.5392,-1.5314,-1.4483,-1.5462,-1.5336,-1.4459,-1.4494,-1.4529,-1.4533,0.0,0.0,0.0,0.0,0.0,0.0,0.0,0.0,0.0,0.0,0.0,0.0,-1.9698,-2.0944,-2.2355,-2.4151,0.0,0.0,0.0,0.0,0.0,0.0,0.0,0.0,0.0,0.0,0.0,0.0,0.0,0.0,0.0,0.0,-3.0435,-3.0326,-3.0874,0.0,-3.1209,-3.1602,-3.2023,-3.2285,-3.2618,-3.2833,-3.2833,-3.3405,-3.3762,-3.3877,-3.4088,-3.4201,-3.4151,-3.4201,-3.4151,-3.4,-3.4471,-3.4572,-3.4349,-3.5017,-3.5181,-3.4988,-3.5696,-3.6109,-3.629,-3.6582,-3.6718,-3.6713,-3.6948,-3.7207,-3.7399,-3.7889,-3.8049,-3.8049,-3.8049,-3.8049,-3.8049,0.0,0.0,0.0,0.0,0.0,0.0,0.0,0.0,0.0,0.0,0.0,0.0,0.0,0.0,0.0,0.0,0.0,0.0,0.0,0.0,-1.1888,-1.1835,-1.1193,-1.0473,-0.9724,-0.971,-1.0097,-1.0909,-1.0974,-1.137,-1.2138,-1.2928,-1.3695,-1.4398,-1.4556,-1.4556,-1.4411,-1.463,-1.4599,-1.4411,-1.4481,-1.4537,-1.46,-1.46,0.0,0.0,0.0,0.0,0.0,0.0,0.0,0.0,0.0,-1.7358,-2.0191,-1.968,-2.1732,-2.4372,0.0,0.0,0.0,0.0,0.0,0.0,0.0,0.0,0.0,0.0,0.0,0.0,0.0,0.0,0.0,0.0,-3.0477,-3.0326,-3.0017,-3.0359,-3.0775,-3.115,-3.1188,-3.1434,-3.2056,-3.2187,-3.222,-3.222,-3.2798,-3.3111,-3.3111,-3.3664,-3.3953,-3.3802,-3.3968,-3.4,-3.3848,-3.4014,-3.4115,-3.405,-3.4697,-3.5004,-3.5004,-3.5711,-3.6272,-3.6672,-3.6437,-3.6587,-3.6901,-3.6844,-3.7128,-3.748,-3.748,-3.748,-3.748,-3.748,-3.748,-3.7539,0.0,0.0,0.0,0.0,0.0,0.0,0.0,0.0,0.0,0.0,0.0,0.0,0.0,0.0,0.0,0.0,0.0,0.0,0.0,0.0,-1.3455,-1.2823,-1.1626,-1.0563,-0.9714,-0.9758,-1.0149,-1.0909,-1.148,-1.2174,-1.2964,-1.3768,-1.4229,-1.4465,-1.5786,-1.5665,-1.4569,-1.5837,-1.5643,-1.4481,-1.4504,-1.4537,-1.46,-1.4592,-1.4603,0.0,0.0,0.0,0.0,0.0,0.0,0.0,-1.708,-1.7996,-1.9026,-2.077,-2.2612,-2.4423,0.0,0.0,0.0,0.0,0.0,0.0,0.0,0.0,0.0,0.0,0.0,0.0,0.0,0.0,0.0,0.0,-3.0017,-2.9973,-2.9946,-3.006,-3.0152,-3.0272,-3.0391,-3.0527,-3.0761,-3.126,-3.1544,-3.1588,-3.2138,-3.2501,-3.2501,-3.295,-3.316,-3.3062,-3.3406,-3.3555,-3.345,-3.3974,-3.4117,-3.3797,-3.3957,-3.4108,-3.4378,-3.5822,-3.6842,-3.7458,-3.7519,-3.7575,-3.7662,-3.7419,-3.7397,-3.748,-3.748,-3.748,-3.748,-3.748,-3.748,-3.748,0.0,0.0,0.0,0.0,0.0,0.0,0.0,0.0,0.0,0.0,0.0,0.0,0.0,0.0,0.0,0.0,0.0,0.0,0.0,0.0,0.0,-1.2715,-1.1967,-1.0994,-0.9728,-1.012,-1.0697,-1.1425,-1.224,0.0,0.0,0.0,0.0,-1.4496,-1.5355,-1.5288,-1.4549,-1.5386,-1.5282,-1.4537,-1.4537,-1.4589,-1.4688,-1.5088,-1.5218,-1.5284,-1.5707,0.0,0.0,0.0,0.0,0.0,0.0,0.0,-2.0092,-2.097,-2.2335,-2.3802,0.0,0.0,0.0,0.0,0.0,0.0,0.0,0.0,0.0,0.0,0.0,0.0,0.0,0.0,0.0,0.0,-2.9918,-2.9918,-2.9918,-2.9946,-2.9973,-2.9973,-3.006,-3.0146,-3.0274,-3.0592,-3.0806,-3.0849,-3.1373,-3.1838,-3.2134,-3.2319,-3.2482,-3.2638,-3.2905,-3.2958,-3.2803,-3.3482,-3.3694,-3.3503,-3.3821,-3.3962,-3.3965,-3.527,-3.6019,-3.6425,-3.6741,-3.6894,-3.6894,-3.674,-3.6699,-3.6699,-3.6642,-3.6584,-3.6584,-3.6542,-3.6469,-3.6469,0.0,0.0,0.0,0.0,0.0,0.0,0.0,0.0,0.0,0.0,0.0,0.0,0.0,0.0,0.0,0.0,0.0,0.0,0.0,0.0,0.0,-1.2253,-1.2076,-1.1272,-0.9728,-1.0484,-1.1278,-1.2019,0.0,0.0,0.0,0.0,0.0,-1.4922,0.0,-1.4769,-1.4488,-1.4488,-1.4533,-1.4607,-1.4748,-1.4844,-1.4998,-1.5808,-1.6123,-1.6209,-1.6897,-1.712,-1.7139,-1.7281,0.0,0.0,0.0,0.0,-2.1252,-2.0586,-2.1616,-2.307,0.0,0.0,0.0,0.0,0.0,0.0,0.0,0.0,0.0,0.0,0.0,0.0,0.0,0.0,0.0,-2.9946,-2.9918,-2.9918,-2.9918,-2.9918,-2.9902,-2.9989,-2.9973,-3.0017,-3.0146,-3.0146,-3.0205,-3.0189,-3.0614,-3.1083,-3.1591,-3.1692,-3.1903,-3.2313,-3.2517,-3.2593,-3.244,-3.3008,-3.3309,-3.3309,-3.3735,-3.3683,-3.3307,-3.4182,-3.4555,-3.4655,-3.5278,-3.5575,-3.5591,-3.5758,-3.5822,-3.5767,-3.5657,-3.5602,-3.5602,-3.5506,-3.545,-3.5394,0.0,0.0,0.0,0.0,0.0,0.0,0.0,0.0,0.0,0.0,0.0,0.0,0.0,0.0,0.0,0.0,0.0,0.0,-1.3661,0.0,0.0,-1.2242,-1.1519,-1.0695,-0.9728,-1.0481,-1.1286,-1.2095,0.0,0.0,0.0,0.0,0.0,-1.6588,0.0,0.0,-1.4488,-1.4488,-1.4511,-1.457,-1.5346,-1.5677,-1.5829,-1.6704,-1.7037,-1.7049,-1.7206,-1.7266,-1.7379,-1.8006,-1.8254,0.0,0.0,0.0,-1.9703,-1.9592,-2.116,0.0,0.0,0.0,0.0,0.0,0.0,0.0,0.0,0.0,0.0,0.0,0.0,0.0,0.0,0.0,0.0,0.0,-2.9918,-2.9918,-2.9918,-2.9918,-2.9902,-2.9902,-2.9902,-2.9946,-3.0017,-3.0017,-3.006,-3.0189,-3.0038,-2.9988,-3.0085,-3.0957,-3.1484,-3.1531,-3.2637,-3.3166,-3.3166,-3.3261,-3.3309,-3.3293,-3.2787,-3.2222,-3.1557,-3.2421,-3.2892,-3.3056,-3.4176,-3.4679,-3.4727,-3.5511,-3.5822,-3.5822,-3.5767,-3.5712,-3.5602,-3.5602,-3.549,-3.5394,0.0,0.0,0.0,0.0,0.0,0.0,0.0,0.0,0.0,0.0,0.0,0.0,0.0,0.0,0.0,-1.3428,-1.351,-1.3726,-1.4064,-1.3648,-1.303,-1.2284,-1.1888,-1.128,-1.0457,-1.1626,-1.2427,0.0,0.0,0.0,0.0,-1.8232,-1.7756,0.0,0.0,0.0,0.0,0.0,-1.6042,-1.5346,-1.6183,-1.6824,-1.7281,-1.7752,-1.8174,-1.8508,-1.8603,-1.8615,-1.864,-1.8968,-1.904,-1.9036,-1.9354,0.0,0.0,0.0,-2.0194,0.0,0.0,0.0,0.0,0.0,0.0,0.0,0.0,0.0,0.0,0.0,0.0,0.0,0.0,0.0,0.0,0.0,-2.9918,-2.9918,-2.9918,-2.9918,-2.9918,-2.9918,-2.9918,-2.9902,-2.9946,-2.9946,-2.9946,-3.0033,-2.9782,-2.9765,-3.0076,-3.0037,-3.0148,-3.0509,-3.1074,-3.1577,-3.2006,-3.2415,-3.2861,-3.3293,-3.2598,-3.2159,-3.1808,-3.1763,-3.2088,-3.2636,-3.3208,-3.3479,-3.3563,-3.3986,-3.4182,-3.4214,-3.4583,-3.4622,-3.4532,-3.4425,-3.4317,-3.4225,0.0,0.0,0.0,0.0,0.0,0.0,0.0,0.0,0.0,0.0,0.0,0.0,0.0,0.0,0.0,0.0,-1.3669,-1.3913,-1.4373,-1.3813,-1.3207,-1.2601,-1.2344,-1.1919,-1.1319,-1.2622,0.0,0.0,0.0,0.0,-1.8709,-1.9124,-1.8665,0.0,-1.8757,0.0,0.0,0.0,0.0,-1.7194,-1.8144,-1.8564,-1.8656,-1.9087,-1.9625,-2.0092,-2.0006,-1.9945,-1.9866,-1.9699,-1.9564,-1.9504,-1.9493,-1.9483,0.0,0.0,0.0,0.0,0.0,0.0,0.0,0.0,0.0,0.0,0.0,0.0,0.0,0.0,0.0,0.0,0.0,0.0,0.0,0.0,-2.9918,-2.9918,-2.9918,-2.9918,-2.9918,-2.9918,-2.9918,-2.9918,-2.9918,-2.9918,-2.9874,-2.9874,-2.9576,-2.9619,-2.9958,-2.947,-2.9375,-2.9859,-3.0047,-3.0425,-3.1027,-3.175,-3.2431,-3.304,-3.2692,-3.2534,-3.2519,-3.1981,-3.2079,-3.2724,-3.2684,-3.2654,-3.267,-3.2978,-3.3092,-3.3157,-3.3655,-3.3745,-3.3658,-3.3555,-3.3414,-3.3309,0.0,0.0,0.0,0.0,0.0,0.0,0.0,0.0,0.0,0.0,0.0,0.0,-1.3479,-1.3446,-1.3511,-1.3768,-1.3789,-1.3966,-1.4375,-1.3771,-1.3382,-1.3343,-1.2623,0.0,-1.2133,-1.2965,0.0,0.0,0.0,0.0,-1.7159,-1.8621,-1.9268,-1.9179,-1.9253,-2.0094,-2.1325,0.0,0.0,0.0,0.0,-2.122,0.0,0.0,0.0,0.0,0.0,-2.0741,-2.0619,-1.994,-1.962,-1.9485,-1.9504,-1.9504,-1.9504,0.0,0.0,0.0,0.0,0.0,0.0,0.0,0.0,0.0,0.0,0.0,0.0,0.0,0.0,0.0,0.0,0.0,0.0,0.0,-2.9918,-2.9918,-2.9918,-2.9918,-2.9918,-2.9918,-2.9918,-2.9918,-2.9918,-2.9918,-2.9874,-2.9742,-2.9441,-2.9275,-2.9185,-2.9643,-2.9956,-3.0003,-3.073,-3.1126,-3.1207,-3.1918,-3.2333,-3.238,-3.2945,-3.3245,-3.3245,-3.3214,-3.3214,-3.3214,-3.2755,-3.2504,-3.2567,-3.3323,-3.3646,-3.3646,-3.3694,-3.3658,-3.3503,-3.3503,-3.3414,-3.3309,0.0,0.0,0.0,0.0,0.0,0.0,0.0,0.0,0.0,0.0,0.0,0.0,0.0,-1.4005,-1.4125,-1.3723,-1.3833,-1.4096,-1.4492,-1.3771,-1.336,-1.339,-1.3083,-1.2926,-1.2965,-1.3752,0.0,0.0,0.0,-1.5397,-1.7012,-1.7523,-1.8607,-2.0218,-2.228,-2.1838,-1.9684,-2.2721,0.0,0.0,0.0,0.0,0.0,0.0,0.0,0.0,0.0,0.0,0.0,-2.0299,-1.9822,-1.955,-1.955,-1.9518,-1.9504,-1.9489,-1.9504,-1.9914,0.0,0.0,0.0,0.0,0.0,0.0,0.0,0.0,0.0,0.0,0.0,0.0,0.0,0.0,0.0,0.0,0.0,-2.9918,-2.9918,-2.9918,-2.9918,-2.9918,-2.9918,-2.9874,-2.9786,-2.9786,-2.9697,-2.9563,-2.8506,-2.8202,-2.9028,-2.8309,-2.8295,-2.9185,-2.9499,-2.9925,-3.0413,-3.1189,-3.1586,-3.1602,-3.2297,-3.2645,-3.2645,-3.3103,-3.3309,-3.3293,-3.3092,-3.278,-3.2384,-3.279,-3.2937,-3.2969,-3.3483,-3.3607,-3.3503,-3.3503,-3.3414,-3.3309,0.0,0.0,0.0,0.0,0.0,0.0,0.0,0.0,0.0,0.0,0.0,0.0,0.0,0.0,-1.4315,-1.3661,-1.3815,-1.4078,-1.4368,-1.3811,-1.349,-1.3518,-1.3502,-1.3502,-1.353,-1.3882,0.0,0.0,0.0,0.0,0.0,-1.6967,-1.8346,-2.0292,-2.329,-2.3235,0.0,0.0,0.0,-2.1725,0.0,0.0,-2.3139,0.0,0.0,0.0,0.0,0.0,0.0,0.0,-2.0752,-2.0313,-2.0173,-1.9841,-1.9499,-1.9518,-1.9504,-1.9745,-2.0989,0.0,0.0,0.0,0.0,0.0,0.0,0.0,0.0,0.0,0.0,0.0,0.0,0.0,0.0,0.0,0.0,-2.9955,-3.0093,-3.0125,-3.0206,-3.0296,-3.0164,-3.0035,-2.99,-2.9691,-2.9502,-2.9382,-2.8297,0.0,-2.8966,-2.8027,-2.7873,-2.8842,-2.892,-2.914,-2.969,-3.0463,-3.086,-3.0875,-3.1586,-3.2045,-3.2333,-3.274,-3.3087,-3.3309,-3.3309,-3.304,-3.2665,-3.2716,-3.2768,-3.28,-3.3364,-3.3503,-3.345,-3.345,-3.3361,-3.3309,0.0,0.0,0.0,0.0,0.0,0.0,0.0,0.0,0.0,-1.4109,0.0,0.0,0.0,0.0,0.0,-1.3657,-1.3783,-1.3913,-1.3991,-1.3867,-1.3803,-1.3803,-1.3885,-1.3899,-1.3803,-1.3321,0.0,0.0,0.0,0.0,0.0,0.0,-1.8581,-1.9378,-2.1926,-2.4169,-2.6086,0.0,-2.6871,-2.7217,0.0,-2.6296,-2.5312,0.0,0.0,0.0,-2.4932,-2.4253,0.0,-2.3058,0.0,0.0,0.0,-2.0386,-1.9518,-1.9569,-1.9489,-1.9394,0.0,0.0,0.0,0.0,0.0,0.0,0.0,0.0,0.0,0.0,0.0,0.0,0.0,0.0,0.0,0.0,0.0,-3.0012,-3.0445,-3.0573,-3.0782,-3.1018,-3.072,-3.0417,-3.0275,-2.9702,-2.9259,-2.9121,-2.8919,-2.8857,-2.8904,-2.8904,-2.8967,-2.9075,-2.9075,-2.9075,-2.9075,-2.9801,-3.0148,-3.0164,-3.0811,-3.1489,-3.2203,-3.2218,-3.2546,-3.3177,-3.3177,-3.3193,-3.3193,-3.3277,-3.3309,-3.3309,-3.3309,-3.3309,-3.3309,-3.3309,-3.3309,-3.3309,0.0,0.0,0.0,0.0,0.0,0.0,0.0,0.0,0.0,0.0,0.0,0.0,-1.3526,-1.344,-1.3664,-1.4331,-1.3913,-1.3693,-1.3842,-1.381,-1.387,-1.4005,-1.4595,-1.4655,-1.411,-1.4508,-1.481,0.0,0.0,0.0,0.0,0.0,0.0,0.0,-2.0926,-2.215,-2.2722,-2.6109,0.0,0.0,-2.7778,-2.6981,0.0,0.0,0.0,0.0,0.0,-2.4222,-2.3615,0.0,-2.2295,-2.0902,0.0,0.0,0.0,-1.9435,0.0,0.0,-1.932,0.0,0.0,0.0,0.0,0.0,0.0,0.0,0.0,0.0,0.0,0.0,0.0,0.0,0.0,0.0,0.0,-2.9895,-2.9894,-3.0314,-3.0414,-2.9972,-3.021,-3.0148,-2.9639,-2.9416,-2.9259,0.0,-2.8176,-2.8034,-2.8966,-2.9029,-2.9075,-2.9075,-2.9075,-2.9075,-2.9075,-2.9327,-2.9171,-2.8676,-2.9373,-2.9521,-2.929,-2.9826,-3.0213,-3.0448,-3.0448,-3.0517,-3.0754,-3.2551,-3.3309,-3.3309,-3.3309,-3.3309,-3.3309,-3.3309,-3.3309,-3.3309,0.0,0.0,0.0,0.0,0.0,0.0,0.0,0.0,0.0,0.0,0.0,0.0,-1.4015,-1.377,-1.3863,-1.4519,-1.4486,-1.4332,-1.4119,-1.4346,-1.4554,-1.4671,-1.5138,-1.5188,-1.4749,-1.4978,-1.5284,0.0,0.0,0.0,0.0,0.0,0.0,0.0,0.0,0.0,0.0,0.0,0.0,0.0,-2.6464,0.0,0.0,-2.6337,-2.624,0.0,0.0,0.0,-2.4564,-2.4934,-2.3665,0.0,0.0,0.0,0.0,0.0,0.0,0.0,0.0,0.0,0.0,0.0,0.0,0.0,-2.0348,-2.2076,-2.3667,0.0,0.0,0.0,0.0,0.0,0.0,0.0,0.0,0.0,-2.9852,-3.024,-3.037,-3.0085,-3.0149,-3.0101,-2.9658,-2.9326,-2.9106,-2.9013,-2.8275,-2.8165,-2.8982,-2.9075,-2.9075,-2.9075,-2.9075,-2.9075,-2.9075,-2.9075,-2.8779,-2.8125,-2.8507,-2.8459,-2.8104,-2.8542,-2.8976,-2.9297,-2.9352,-2.9421,-2.9642,-3.1144,-3.1765,-3.1781,-3.2289,-3.2504,-3.2551,-3.3077,-3.3309,-3.3309,0.0,0.0,0.0,0.0,0.0,0.0,0.0,0.0,0.0,0.0,-1.3985,-1.4251,-1.4906,-1.4556,-1.4293,-1.4368,-1.509,-1.5263,-1.4634,-1.5235,-1.5597,-1.5631,-1.5701,-1.5721,-1.5651,-1.5253,-1.5488,0.0,0.0,0.0,0.0,0.0,0.0,0.0,0.0,0.0,0.0,0.0,0.0,-2.4497,-2.4294,-2.5387,0.0,0.0,-2.6092,-2.6208,-2.6661,-2.6315,-2.5761,-2.6664,-2.5514,0.0,0.0,0.0,0.0,0.0,-1.9509,0.0,0.0,0.0,0.0,0.0,0.0,0.0,-1.9757,-2.2132,-2.443,-2.5346,-2.7485,0.0,0.0,0.0,0.0,0.0,0.0,0.0,-2.9702,-3.018,-3.0354,-3.0389,-3.0272,-3.0101,-2.9942,-2.9297,-2.8904,-2.8904,-2.8858,-2.8873,-2.892,-2.8967,-2.8982,-2.8982,-2.892,-2.8873,-2.8873,-2.8873,-2.8574,-2.7963,-2.7913,-2.785,-2.7865,-2.7774,-2.8135,-2.8733,-2.8857,-2.8966,-2.9035,-2.9286,-2.9469,-2.9711,-3.0914,-3.1389,-3.1519,-3.2814,-3.3309,-3.3309,-1.2583,0.0,0.0,0.0,0.0,0.0,0.0,0.0,0.0,-1.4003,-1.3978,-1.4067,-1.4258,-1.4199,-1.4178,-1.4224,-1.4396,-1.466,-1.5031,-1.5804,-1.6268,-1.637,-1.705,-1.7131,-1.6479,-1.7048,-1.7377,0.0,0.0,0.0,0.0,0.0,0.0,0.0,0.0,0.0,0.0,0.0,0.0,-2.117,-2.4787,0.0,-2.433,-2.6669,-2.6283,-2.4642,-2.588,-2.5846,-2.5179,-2.483,-2.4878,-2.4611,0.0,0.0,0.0,0.0,0.0,0.0,0.0,0.0,0.0,0.0,0.0,0.0,-1.9365,-2.0451,-2.1805,0.0,-2.4427,0.0,0.0,0.0,0.0,0.0,0.0,0.0,-2.7604,-2.9152,-2.9564,-2.8005,-2.9124,-2.9816,-2.9343,-2.9154,-2.9075,-2.9075,-2.9045,-2.9045,-2.9075,-2.8574,-2.8286,-2.8286,-2.775,-2.7485,-2.7485,-2.7485,-2.7434,-2.7282,-2.6701,-2.639,-2.6412,-2.5855,-2.5716,-2.5995,-2.5995,-2.6161,-2.6479,-2.7498,-2.8552,-2.9711,-3.0914,-3.1389,-3.1519,-3.2814,-3.3309,-3.3309,-1.2298,0.0,0.0,0.0,0.0,0.0,0.0,0.0,0.0,-1.3534,-1.3789,-1.434,-1.5105,-1.5251,-1.5317,-1.5399,-1.5737,-1.5917,-1.5904,-1.657,-1.6953,-1.6992,-1.7803,-1.7859,-1.7065,-1.8225,-1.8498,0.0,0.0,0.0,0.0,0.0,0.0,0.0,0.0,0.0,0.0,0.0,-1.9131,-2.0229,-2.329,0.0,-2.3846,-2.6202,-2.6266,-2.5193,-2.5938,-2.6203,-2.6021,-2.4945,-2.4946,0.0,0.0,-2.115,-1.9923,0.0,-1.8534,-1.7949,0.0,0.0,0.0,-1.8111,0.0,0.0,0.0,-2.0537,-2.1479,-2.3191,-2.41,-2.4567,0.0,0.0,0.0,0.0,0.0,0.0,0.0,-2.7126,-2.846,-2.8158,-2.8934,-2.9423,-2.9122,-2.9075,-2.9075,-2.9075,-2.9075,-2.9075,-2.9075,-2.8479,-2.8125,-2.8125,-2.7449,-2.7129,-2.7129,-2.7129,-2.6909,-2.6544,-2.6172,-2.5809,-2.5508,-2.516,-2.5061,-2.5118,-2.5174,-2.5286,-2.5522,-2.6557,-2.7588,-2.8749,-3.0655,-3.1389,-3.1519,-3.2814,-3.3309,-3.3309,-1.1918,0.0,0.0,0.0,0.0,0.0,0.0,0.0,0.0,-1.3678,-1.4225,-1.5286,-1.6759,0.0,0.0,0.0,-1.7806,-1.7806,0.0,0.0,-1.812,-1.7782,-1.8393,-1.8443,-1.7806,-1.9164,-1.9319,-1.8172,0.0,0.0,0.0,0.0,0.0,0.0,0.0,0.0,0.0,0.0,0.0,-2.054,0.0,-2.3187,-2.3967,-2.559,-2.6168,-2.6201,-2.6445,-2.6961,-2.7263,-2.5771,-2.5244,-2.5012,-2.4099,-2.1893,0.0,0.0,0.0,0.0,0.0,0.0,0.0,0.0,0.0,-1.8302,0.0,0.0,0.0,-2.2915,-2.4016,0.0,0.0,0.0,0.0,0.0,0.0,0.0,0.0,-2.4839,0.0,-2.7794,-2.8173,-2.8331,-2.8331,-2.8584,-2.8791,-2.9059,-2.9029,-2.8967,-2.9075,-2.8222,-2.7815,-2.7913,-2.7129,-2.6715,-2.6715,-2.6715,-2.6438,-2.6011,-2.5863,-2.5605,-2.5203,-2.5061,-2.5005,-2.5005,-2.5118,-2.5174,-2.5286,-2.621,-2.7043,-2.7911,-3.0266,-3.1281,-3.1519,-3.2814,-3.3309,-3.3309,-1.2935,-1.3165,0.0,0.0,0.0,0.0,0.0,0.0,0.0,0.0,0.0,0.0,0.0,0.0,0.0,0.0,0.0,0.0,-1.7346,0.0,0.0,-1.9148,-1.9247,-1.9274,-1.9176,-2.0019,-2.0036,-1.9138,0.0,0.0,0.0,0.0,0.0,0.0,-1.926,0.0,0.0,0.0,-2.0983,0.0,-2.3867,-2.4131,0.0,-2.5408,-2.6115,-2.6191,-2.7344,-2.7925,-2.7855,0.0,-2.5553,-2.4862,0.0,-2.145,-1.9611,0.0,0.0,0.0,0.0,0.0,0.0,0.0,-1.8425,0.0,0.0,0.0,-2.1357,-2.1456,0.0,0.0,0.0,0.0,0.0,0.0,0.0,0.0,-2.2022,-2.2841,-2.3417,-2.3575,-2.4736,-2.548,-2.548,-2.6593,-2.7826,-2.8996,-2.8669,-2.8606,-2.9075,-2.7464,-2.6745,-2.7181,-2.5932,-2.5216,-2.5216,-2.5216,-2.5522,-2.6011,-2.5412,-2.5356,-2.5863,-2.5258,-2.5005,-2.5005,-2.5005,-2.5118,-2.5327,-2.6511,-2.7594,-2.8521,-2.9947,-3.0865,-3.1519,-3.2814,-3.3309,-3.3309,-1.33,-1.3307,0.0,0.0,0.0,0.0,0.0,0.0,0.0,0.0,0.0,0.0,0.0,0.0,0.0,0.0,0.0,-2.1842,0.0,0.0,0.0,0.0,-1.9304,-1.8665,-1.8665,-1.9421,-1.9257,-1.8095,-1.9312,0.0,0.0,0.0,0.0,0.0,-1.9558,0.0,-2.1738,0.0,0.0,0.0,0.0,0.0,0.0,-2.6418,-2.7202,-2.718,-2.7322,-2.7627,-2.7709,0.0,-2.5934,0.0,0.0,0.0,0.0,0.0,0.0,0.0,0.0,0.0,0.0,0.0,0.0,0.0,-2.1673,0.0,-2.0884,0.0,0.0,0.0,0.0,0.0,0.0,0.0,-2.0734,0.0,0.0,0.0,-2.228,0.0,0.0,0.0,-2.6135,-2.5993,-2.6435,-2.7857,-2.7318,-2.7057,-2.7302,-2.6549,-2.624,-2.6438,-2.5522,-2.5005,-2.5005,-2.5061,-2.5272,-2.5522,-2.5272,-2.5272,-2.5522,-2.516,-2.5005,-2.5005,-2.5005,-2.5005,-2.5131,-2.6063,-2.6971,-2.7808,-2.9217,-3.0204,-3.1034,-3.23,-3.2531,-3.2289,-1.3651,0.0,0.0,0.0,0.0,0.0,0.0,0.0,0.0,0.0,0.0,0.0,-2.119,-2.0885,0.0,0.0,-2.367,-2.3748,0.0,0.0,-2.1375,0.0,0.0,0.0,0.0,-1.9179,-1.8714,-1.7476,-1.8555,0.0,0.0,0.0,0.0,0.0,0.0,-2.0508,-2.1697,0.0,0.0,-2.4375,-2.5069,-2.5655,-2.626,-2.745,-2.8021,-2.8152,-2.7761,-2.7802,-2.7762,-2.6065,-2.6281,0.0,-2.492,0.0,0.0,0.0,0.0,0.0,-2.196,0.0,0.0,0.0,0.0,0.0,0.0,0.0,0.0,0.0,0.0,0.0,0.0,0.0,0.0,0.0,0.0,-2.0665,0.0,0.0,0.0,0.0,0.0,0.0,0.0,-2.5361,-2.5433,-2.6435,-2.6205,-2.6016,-2.6016,-2.6104,-2.6133,-2.6079,-2.5481,-2.5131,-2.5131,-2.5244,-2.523,-2.5174,-2.5174,-2.5174,-2.5118,-2.5061,-2.5005,-2.5005,-2.5005,-2.5005,-2.5061,-2.5508,-2.6147,-2.6947,-2.8006,-2.8846,-2.9625,-3.1273,-3.1496,-3.1029,-1.411,-1.4,0.0,0.0,0.0,0.0,0.0,0.0,0.0,0.0,0.0,0.0,0.0,0.0,0.0,0.0,0.0,-2.4388,-2.2654,0.0,-2.3339,0.0,0.0,-1.9018,0.0,0.0,-1.8914,-1.8166,0.0,0.0,0.0,0.0,0.0,0.0,0.0,-1.9406,-2.1611,-2.3047,-2.4314,-2.5567,-2.7948,-2.9193,-2.9419,0.0,-2.8158,-2.8838,-2.9255,0.0,0.0,-2.766,-2.6575,0.0,0.0,0.0,0.0,0.0,0.0,0.0,0.0,0.0,0.0,-2.1888,0.0,0.0,0.0,0.0,-2.0721,0.0,0.0,0.0,0.0,0.0,0.0,-2.0051,0.0,0.0,0.0,0.0,0.0,0.0,0.0,0.0,0.0,-2.4246,-2.5021,-2.5069,-2.5765,-2.6122,-2.6016,-2.6285,-2.639,-2.6283,-2.5743,-2.5494,-2.5494,-2.5494,-2.5369,-2.5174,-2.5174,-2.5118,-2.5005,-2.5005,-2.5005,-2.5005,-2.5005,-2.5005,-2.5005,-2.5005,-2.5486,-2.6219,-2.6304,-2.6477,-2.706,-2.961,-3.0183,-2.9681,0.0,0.0,0.0,0.0,0.0,0.0,0.0,-1.7492,0.0,0.0,0.0,0.0,0.0,-2.4809,-2.4649,0.0,0.0,-2.7148,-2.5392,-2.5061,0.0,0.0,0.0,-2.1288,0.0,0.0,0.0,0.0,0.0,0.0,0.0,0.0,0.0,0.0,0.0,-1.9329,0.0,0.0,0.0,0.0,0.0,-2.8559,-2.8287,0.0,-2.9134,-2.9271,-2.9422,-2.9313,0.0,-2.7689,-2.7678,-2.7977,-2.7195,-2.6542,-2.6366,-2.7714,-2.6439,-2.4842,0.0,0.0,-2.5933,-2.5659,0.0,0.0,0.0,0.0,0.0,0.0,0.0,0.0,0.0,0.0,-2.0681,-2.0477,-2.0536,0.0,0.0,0.0,0.0,0.0,0.0,0.0,0.0,0.0,0.0,-2.3095,-2.2682,-2.2352,-2.2323,-2.3554,-2.4304,-2.4238,-2.4874,-2.5188,-2.5188,-2.5244,-2.53,-2.5369,-2.5244,-2.5286,-2.5453,-2.5118,-2.5061,-2.5118,-2.5061,-2.5005,-2.5005,-2.5005,-2.5184,-2.5472,-2.601,-2.5958,-2.6007,-2.8756,-2.9166,-2.866,-1.5381,0.0,0.0,0.0,0.0,0.0,0.0,0.0,0.0,0.0,-2.1532,0.0,-2.5663,0.0,-2.564,0.0,-2.7013,-2.7529,-2.718,-2.5199,0.0,-2.758,-2.3831,0.0,0.0,0.0,0.0,0.0,0.0,-1.7818,0.0,0.0,0.0,0.0,0.0,0.0,0.0,0.0,-2.5211,0.0,0.0,-2.8592,0.0,0.0,-2.9678,-2.9842,0.0,-3.0068,-2.9784,-2.8672,-2.8923,-2.9526,-2.8218,-2.7926,-2.8243,-2.9109,-2.8017,-2.6809,-2.7902,-2.8115,0.0,-2.7618,-2.6759,0.0,-2.5561,0.0,-2.1859,0.0,0.0,0.0,0.0,0.0,0.0,-2.0639,-2.061,-2.0693,0.0,-2.0777,0.0,0.0,0.0,0.0,0.0,0.0,-2.0971,-2.122,-2.0995,-2.0724,0.0,-2.247,-2.3578,-2.3332,-2.4504,-2.5188,-2.5188,-2.5244,-2.5369,-2.5369,-2.5244,-2.5286,-2.5453,-2.5174,-2.5118,-2.5118,-2.5118,-2.5061,-2.5005,-2.5005,-2.5005,-2.5046,-2.5567,-2.5529,-2.5451,-2.7626,-2.7854,-2.7465,0.0,0.0,0.0,0.0,-1.5886,0.0,0.0,0.0,-2.0976,0.0,-2.3834,-2.3125,-2.5199,-2.4704,-2.4171,-2.4112,-2.4595,-2.5717,-2.7703,-2.3434,0.0,0.0,-2.3274,-2.1937,-2.5723,0.0,0.0,0.0,0.0,0.0,0.0,0.0,0.0,0.0,-1.7156,0.0,-1.9394,-2.2313,-2.4349,-2.5754,-2.7624,-2.9214,-3.0352,-2.9637,-2.983,-3.0545,-3.1051,-3.1223,-3.1112,-3.0449,-3.0227,-3.0101,-2.9406,-2.9122,-2.9122,-2.9091,-2.9075,-2.9075,-2.9075,-2.9305,-2.915,-2.7737,-2.7496,0.0,0.0,0.0,-2.4377,0.0,0.0,0.0,0.0,0.0,0.0,-2.0551,-2.0491,-2.0693,0.0,0.0,0.0,0.0,0.0,0.0,0.0,-2.1414,-2.1461,-1.9656,-2.0712,0.0,0.0,-2.2851,-2.4021,-2.354,-2.4681,-2.537,-2.5453,-2.5425,-2.53,-2.5189,-2.516,-2.5118,-2.5005,-2.5118,-2.5118,-2.5005,-2.5118,-2.5118,-2.5005,-2.4948,-2.4948,-2.5005,-2.5005,-2.5061,-2.5298,-2.6216,-2.6316,-2.6351,-1.535,-1.4949,-1.498,0.0,-1.7014,-1.8544,0.0,0.0,0.0,0.0,-2.3014,-2.3711,-2.5841,-2.6565,-2.6272,-2.4663,-2.5466,0.0,0.0,0.0,0.0,-2.8544,-2.6642,-2.5591,-2.5727,-2.4374,0.0,-2.2821,0.0,0.0,-1.9922,0.0,0.0,0.0,0.0,0.0,-1.9427,-2.2798,-2.5664,-2.7874,-2.7251,-2.8132,-2.9761,0.0,-3.0831,-3.1747,-3.1349,-3.1223,-3.1191,-3.1002,-3.0939,-3.0828,-3.0133,-2.9911,-2.9801,-2.9279,-2.9075,-2.9075,-2.9075,-2.9167,-2.9118,-2.8724,-2.7601,-2.6505,0.0,0.0,0.0,0.0,0.0,0.0,0.0,0.0,0.0,0.0,0.0,0.0,0.0,0.0,0.0,-2.0761,0.0,0.0,0.0,-2.0651,-2.0324,-1.9545,-1.9491,0.0,0.0,0.0,-2.1894,-2.3434,-2.299,-2.3334,-2.4627,-2.4188,-2.4188,-2.4682,-2.49,-2.5188,-2.5369,-2.5075,-2.4948,-2.5005,-2.465,-2.4593,-2.4677,-2.4536,-2.4593,-2.4677,-2.4677,-2.4835,-2.5131,-2.573,-2.6819,-2.8018,-1.5159,0.0,0.0,-1.4904,0.0,0.0,-1.9317,0.0,0.0,-2.3674,-2.4012,0.0,-2.6372,-2.7571,-2.7652,-2.6113,-2.5873,0.0,-2.5749,0.0,0.0,-2.7739,-2.6594,-2.5716,-2.5461,-2.4949,0.0,-2.4098,0.0,0.0,-2.1453,0.0,0.0,0.0,0.0,-1.8977,0.0,-2.3307,-2.6422,-2.8918,-2.7928,-2.8751,0.0,-2.9937,-3.0923,-3.2421,-3.1529,-3.1585,-3.2076,-3.1776,-3.1681,-3.1555,-3.086,-3.0433,-3.0053,-2.9405,-2.9014,-2.8716,-2.8463,-2.8415,-2.8415,-2.8415,-2.7481,-2.6617,-2.6665,-2.5463,-2.4408,0.0,-2.4552,-2.4275,0.0,0.0,0.0,0.0,0.0,0.0,0.0,0.0,0.0,0.0,-2.0938,0.0,0.0,-1.9925,-1.9639,-1.953,-1.9109,0.0,0.0,0.0,-2.1342,-2.1932,-2.238,-2.2647,-2.2752,-2.2424,-2.2734,-2.3716,-2.3835,-2.4286,-2.5039,-2.5078,-2.4995,-2.4791,-2.4657,-2.465,-2.4721,-2.4421,-2.4421,-2.462,-2.462,-2.4734,-2.4975,-2.5461,-2.6496,-2.7613,0.0,0.0,0.0,0.0,0.0,0.0,0.0,-2.0956,0.0,-2.5531,0.0,-2.5582,-2.6635,-2.7851,-2.8281,-2.7554,0.0,-2.5763,-2.7324,-2.3649,-2.3091,-2.6872,-2.5139,-2.4409,-2.5189,-2.5003,0.0,0.0,0.0,0.0,0.0,0.0,0.0,0.0,0.0,0.0,0.0,-2.3722,-2.6465,-2.9009,-2.8871,-2.9828,-3.1187,-2.9674,-3.0462,-3.2307,-3.1343,-3.1997,-3.3161,-3.2478,-3.2226,-3.2021,-3.1212,-3.0521,-2.9892,-2.9308,-2.8682,-2.8094,-2.7615,-2.7515,-2.753,-2.7554,-2.7306,-2.7056,-2.7181,-2.6901,-2.6529,-2.6283,-2.6587,-2.6292,-2.4229,0.0,0.0,0.0,0.0,0.0,0.0,0.0,0.0,0.0,0.0,0.0,0.0,0.0,0.0,0.0,0.0,0.0,0.0,0.0,-2.1372,-2.0304,-2.2152,-2.2435,-2.0942,-2.0905,-2.1511,-2.282,-2.2638,-2.3228,-2.4515,-2.5149,-2.4998,-2.4365,-2.472,-2.4851,-2.4784,-2.4381,-2.4376,-2.4563,-2.4563,-2.4607,-2.4788,-2.5333,-2.5765,-2.6321,0.0,0.0,0.0,0.0,0.0,-1.8683,-2.0905,-2.3019,-2.4447,-2.4431,-2.4805,-2.5314,-2.6085,-2.7145,-2.7542,-2.6831,-2.6409,0.0,0.0,0.0,0.0,-2.7564,-2.6308,-2.5629,-2.5845,-2.5742,-2.5717,0.0,0.0,0.0,0.0,0.0,0.0,0.0,0.0,0.0,-2.4265,-2.3539,0.0,-2.7597,-2.8011,-2.8106,-2.8171,-2.9407,-2.9864,-2.9864,-3.0101,-3.1494,-3.3011,-3.2377,-3.1905,-3.1334,-2.9993,-2.9222,-2.8758,-2.8047,-2.7755,-2.7615,-2.7515,-2.7515,-2.7533,-2.7779,-2.7229,-2.6679,-2.6911,-2.6341,-2.5743,-2.5647,-2.5688,-2.5632,-2.5259,0.0,0.0,0.0,0.0,0.0,0.0,0.0,0.0,0.0,0.0,-2.0838,0.0,0.0,0.0,0.0,0.0,0.0,0.0,0.0,-1.995,0.0,-2.1206,-2.1234,0.0,0.0,-2.1902,-2.3594,-2.2995,-2.333,-2.4515,-2.4789,-2.4422,-2.3603,-2.394,-2.3997,-2.3843,-2.3961,-2.4054,-2.4229,-2.4305,-2.435,-2.4487,-2.5024,-2.5614,-2.6113,0.0,0.0,0.0,0.0,0.0,0.0,0.0,-2.4169,-2.5841,-2.4846,-2.6088,-2.7053,-2.6981,-2.7635,-2.8,-2.7642,-2.7027,-2.6804,-2.7125,-2.626,-2.605,-2.6793,-2.6231,0.0,-2.454,-2.5122,-2.5299,-2.4976,0.0,0.0,-2.2715,0.0,0.0,0.0,0.0,-2.1855,0.0,0.0,0.0,-2.71,-2.7644,-2.7919,-2.7988,-2.8297,-2.8825,-2.9342,-2.9086,-3.0229,-3.1849,-3.1562,-3.1351,-3.1035,-3.0327,-2.961,-2.898,-2.8382,-2.7842,-2.7417,-2.7156,-2.7059,-2.713,-2.7258,-2.6665,-2.6077,-2.6339,-2.5725,-2.5145,-2.5257,-2.5257,-2.5066,-2.449,-2.365,0.0,0.0,0.0,0.0,0.0,0.0,0.0,0.0,0.0,0.0,0.0,0.0,0.0,0.0,0.0,0.0,0.0,0.0,-2.0174,0.0,0.0,0.0,-2.1195,0.0,-2.1797,-2.2986,-2.2561,-2.3012,-2.4295,-2.4269,-2.3984,-2.3543,-2.3779,-2.3927,-2.4066,-2.404,-2.4067,-2.4112,-2.4157,-2.4203,-2.4281,-2.4859,-2.545,-2.5988,0.0,-1.6738,0.0,0.0,-1.9312,0.0,-2.2688,-2.5149,-2.6685,-2.5928,-2.7558,-2.8601,-2.8091,-2.8366,-2.8492,-2.8234,-2.7596,-2.7176,-2.7135,-2.6592,-2.6104,-2.5724,-2.5819,-2.5168,-2.3595,-2.453,-2.4751,0.0,0.0,0.0,-2.2637,0.0,0.0,0.0,0.0,0.0,0.0,0.0,-2.5567,-2.675,-2.7428,-2.7871,-2.801,-2.7357,-2.7868,-2.8884,-2.8191,-2.8864,-3.0127,-3.0348,-3.0483,-3.0485,-3.0248,-2.9695,-2.8957,-2.8485,-2.7851,-2.7239,-2.6816,-2.6722,-2.6722,-2.6661,-2.6155,-2.5679,-2.581,-2.5337,-2.4892,-2.5005,-2.5005,-2.4776,-2.3945,-2.3615,0.0,0.0,0.0,0.0,0.0,0.0,0.0,0.0,0.0,0.0,-2.0255,0.0,0.0,0.0,0.0,0.0,-1.9353,0.0,0.0,0.0,0.0,-2.126,-2.0414,0.0,-2.158,-2.2578,-2.2289,-2.2853,-2.4118,-2.4128,-2.3875,-2.3454,-2.3798,-2.4153,-2.4421,-2.4157,-2.4112,-2.4157,-2.4112,-2.4112,-2.4223,-2.4622,-2.5223,-2.5863,0.0,0.0,0.0,0.0,0.0,0.0,-2.6309,-2.6483,-2.6658,-2.7632,-2.7879,-2.8118,-2.8502,-2.8546,-2.8166,-2.7081,-2.7881,-2.7528,-2.5398,-2.6687,-2.6809,-2.5168,-2.5602,-2.5561,-2.4856,-2.4951,-2.4951,0.0,0.0,-2.2629,0.0,0.0,0.0,0.0,0.0,0.0,0.0,-2.4718,-2.5206,-2.6099,-2.7227,-2.7073,-2.6301,-2.7323,-2.7426,-2.7141,-2.7571,-2.7816,-2.8042,-2.8652,-2.8996,-2.9109,-2.8243,-2.7673,-2.7179,-2.6971,-2.687,-2.6769,-2.6708,-2.6722,-2.6661,-2.6539,-2.6182,-2.581,-2.5679,-2.5266,-2.5005,-2.5005,-2.5005,-2.5021,-2.5024,-2.4068,-2.2937,0.0,0.0,0.0,0.0,0.0,0.0,0.0,0.0,0.0,0.0,-1.9224,0.0,0.0,-1.8489,0.0,0.0,0.0,0.0,-2.0358,-2.0034,-2.0006,-2.04,-2.0198,-2.1411,-2.3935,-2.3025,-2.3159,-2.416,-2.498,-2.447,-2.3025,-2.3999,-2.431,-2.4112,-2.4112,-2.4157,-2.4247,-2.4157,-2.4157,-2.4247,-2.4223,-2.4883,-2.5759,0.0,0.0,0.0,0.0,0.0,0.0,0.0,-2.6959,-2.7602,-2.8153,-2.8474,-2.8634,-2.8688,-2.8651,-2.841,-2.7922,-2.8315,-2.818,-2.7216,-2.7841,-2.7759,-2.6674,-2.6511,-2.6172,-2.5548,-2.5195,-2.5005,0.0,0.0,0.0,0.0,0.0,0.0,0.0,0.0,-2.3298,-2.3937,-2.4602,-2.5052,-2.5411,-2.5911,-2.6005,-2.5972,-2.6452,-2.6941,-2.7379,-2.7623,-2.7936,-2.8275,-2.8519,-2.8666,-2.8699,-2.8348,-2.7994,-2.7791,-2.7651,-2.7524,-2.7346,-2.7346,-2.7093,-2.6814,-2.6764,-2.6243,-2.5679,-2.5606,-2.5266,-2.5005,-2.5005,-2.5005,-2.5005,-2.5061,-2.4722,-2.4014,-2.2801,0.0,0.0,0.0,0.0,0.0,0.0,0.0,0.0,0.0,0.0,0.0,0.0,0.0,0.0,0.0,0.0,0.0,-2.1426,0.0,-2.1369,-2.2831,-2.2096,-2.2484,-2.4077,-2.3523,-2.3616,-2.434,-2.3961,-2.3628,-2.3339,-2.407,-2.4247,-2.4112,-2.4345,-2.4332,-2.4157,-2.4203,-2.4203,-2.4157,-2.4112,-2.4844,-2.5746,-2.5013,0.0,-2.3192,0.0,-2.4834,-2.5608,-2.5679,-2.7171,-2.8048,-2.7588,-2.8298,-2.8766,-2.8587,-2.8522,-2.8322,-2.7958,-2.8255,-2.8224,-2.752,-2.8193,-2.8166,-2.7216,-2.6945,0.0,-2.59,-2.5317,-2.5005,-2.5005,-2.3309,0.0,0.0,0.0,-2.1179,-2.2007,-2.3162,-2.3703,-2.3757,-2.4652,-2.5005,-2.5005,-2.5005,-2.5358,-2.5887,-2.5887,-2.6538,-2.7447,-2.7447,-2.7718,-2.8071,-2.8071,-2.8071,-2.8125,-2.84,-2.8379,-2.8208,-2.8034,-2.7786,-2.7485,-2.7379,-2.7035,-2.6691,-2.6582,-2.6041,-2.5553,-2.5437,-2.5189,-2.5005,-2.5005,-2.5005,-2.5005,-2.5005,-2.5061,-2.4722,-2.3484,0.0,0.0,0.0,-2.1423,0.0,0.0,-2.164,-2.1417,-2.2678,-2.1134,0.0,0.0,0.0,0.0,0.0,0.0,0.0,0.0,0.0,0.0,-2.3087,-2.2234,-2.2588,-2.4123,-2.3919,-2.404,-2.4353,-2.3464,-2.3351,-2.3867,-2.4165,-2.4189,-2.4112,-2.4332,-2.4332,-2.4157,-2.4203,-2.4203,-2.4184,-2.4295,-2.4988,-2.5759,-2.7252,-2.7359,-2.7521,-2.8112,-2.813,-2.7581,-2.6217,-2.7185,-2.7517,-2.5921,-2.7274,-2.8235,-2.8145,-2.8079,-2.7613,-2.6427,-2.7565,-2.7306,-2.498,-2.7209,-2.7786,0.0,0.0,-2.6538,-2.59,-2.5317,-2.5005,-2.5005,0.0,0.0,-2.3162,-2.3148,-2.3148,-2.3216,-2.4462,-2.4991,-2.4991,-2.4991,-2.5005,-2.5005,-2.5005,-2.5358,-2.5887,-2.5887,-2.628,-2.6837,-2.6837,-2.685,-2.685,-2.685,-2.685,-2.6979,-2.8002,-2.8183,-2.7973,-2.74,-2.7072,-2.6799,-2.6419,-2.6307,-2.6174,-2.5708,-2.5606,-2.5504,-2.5097,-2.5005,-2.5005,-2.5005,-2.5005,-2.5005,-2.5005,-2.5005,-2.4667,-2.3589,0.0,0.0,0.0,-2.1471,0.0,-2.1437,-2.0484,-2.0225,-2.1328,-2.058,0.0,0.0,0.0,0.0,0.0,0.0,0.0,-1.9321,-1.7586,0.0,-1.9864,-1.957,-2.1008,-2.4123,-2.4343,-2.4372,-2.4123,-2.3946,-2.4088,-2.4509,-2.435,-2.4189,-2.4112,-2.4112,-2.4157,-2.4292,-2.4157,-2.4157,-2.4358,-2.4799,-2.5328,-2.5824,-2.5105,-2.7053,-2.8518,-2.7497,-2.8198,-2.8818,-2.8505,-2.8358,-2.8185,-2.7775,-2.7762,-2.7723,-2.7669,-2.7947,-2.7933,0.0,-2.717,-2.6943,0.0,-2.7019,-2.7162,-2.7417,-2.5942,-2.5146,-2.5118,-2.4092,-2.3649,-2.3744,0.0,0.0,-2.3189,-2.3189,-2.3622,-2.4462,-2.4842,-2.5005,-2.5005,-2.5005,-2.5005,-2.5005,-2.5005,-2.5358,-2.5887,-2.5887,-2.628,-2.6823,-2.6823,-2.6823,-2.6823,-2.6823,-2.6823,-2.6891,-2.7195,-2.7255,-2.7166,-2.6977,-2.6773,-2.6596,-2.647,-2.6123,-2.5775,-2.5647,-2.5414,-2.5179,-2.5046,-2.5005,-2.5005,-2.5005,-2.5005,-2.5005,-2.5005,-2.5005,-2.4611,-2.3431,-2.392,0.0,-2.2872,0.0,-2.2607,-2.2607,-2.1586,-2.1328,-2.2485,-2.1704,0.0,0.0,0.0,0.0,0.0,0.0,0.0,0.0,-2.1352,0.0,-2.3176,-2.1924,-2.219,-2.4112,-2.393,-2.383,-2.3781,-2.4126,-2.4306,-2.4216,-2.4305,-2.4189,-2.4112,-2.4332,-2.4332,-2.4157,-2.4203,-2.4203,-2.4223,-2.4812,-2.5328,-2.5876,-2.6262,-2.7868,-2.9075,-2.8039,-2.8694,-2.9123,-2.8686,-2.8681,-2.8468,-2.7815,-2.7814,-2.7771,-2.7549,-2.7736,0.0,-2.7868,-2.7258,-2.7203,-2.7947,-2.7373,-2.7307,-2.8052,-2.633,-2.5382,-2.545,-2.4396,0.0,-2.3906,-2.3906,-2.3906,-2.3906,-2.3906,-2.4299,-2.5005,-2.5005,-2.5005,-2.5005,-2.5005,-2.5005,-2.5005,-2.5005,-2.5236,-2.5561,-2.5561,-2.5805,-2.6145,-2.6145,-2.6145,-2.6145,-2.6145,-2.6145,-2.6145,-2.6145,-2.6145,-2.6185,-2.6416,-2.6337,-2.6103,-2.5994,-2.567,-2.5387,-2.5387,-2.5162,-2.5005,-2.5005,-2.5005,-2.5005,-2.5005,-2.5005,-2.5005,-2.5005,-2.5005,-2.4761,-2.4028,-2.453,-2.4747,-2.4001,0.0,-2.3189,0.0,0.0,-2.1848,0.0,-2.26,-2.2201,0.0,0.0,0.0,0.0,0.0,-2.1694,-2.2594,-2.2235,-2.2551,-2.3674,-2.259,-2.2711,-2.4112,-2.3905,-2.3778,-2.3778,-2.4204,-2.4261,-2.4112,-2.4216,-2.4157,-2.4112,-2.4345,-2.4287,-2.4112,-2.4203,-2.4288,-2.4504,-2.5079,-2.5654,-2.6229,-2.9475,-2.9408,-2.9424,-2.9447,-2.9385,-2.8926,-2.7512,-2.847,-2.8625,-2.6704,-2.7564,-2.8177,-2.7641,-2.7562,-2.7523,-2.7523,0.0,0.0,-2.7776,-2.7855,-2.7999,-2.8079,-2.7233,-2.6661,-2.6371,-2.5661,-2.5172,-2.5005,-2.5005,-2.5005,-2.5005,-2.5005,-2.5005,-2.5005,-2.5005,-2.5005,-2.5005,-2.5005,-2.5005,-2.5005,-2.5005,-2.5005,-2.5005,-2.5005,-2.5005,-2.5005,-2.5005,-2.5005,-2.5005,-2.5005,-2.5005,-2.5005,-2.5005,-2.5005,-2.5113,-2.567,-2.5716,-2.5477,-2.5097,-2.5005,-2.5005,-2.5005,-2.5005,-2.5005,-2.5005,-2.5005,-2.5005,-2.5005,-2.5005,-2.5005,-2.5005,-2.5005,-2.5005,-2.5005,-2.5005,-2.4978,-2.4896,-2.3933,-2.32,0.0,0.0,0.0,-2.3067,-2.327,-2.3323,0.0,0.0,0.0,0.0,0.0,-2.046,-2.1014,-2.098,-2.1348,-2.2073,-2.2086,-2.2735,-2.4112,-2.4112,-2.4112,-2.4112,-2.4112,-2.4112,-2.4112,-2.4112,-2.4112,-2.4112,-2.4112,-2.4112,-2.4112,-2.4164,-2.4504,-2.504,-2.5654,-2.6216,-2.6765,-2.6433,0.0,-3.0163,-2.8887,-2.9764,-3.0598,-3.0493,-3.0171,-2.9876,-2.9661,-2.8881,-2.8333,-2.819,-2.7798,-2.7523,-2.7523,-2.6726,-2.666,-2.7537,-2.6778,-2.675,-2.763,-2.6151,-2.5166,-2.4813,-2.4262,-2.4343,-2.5174,-2.5061,-2.5061,-2.5174,-2.5061,-2.5005,-2.5005,-2.5005,-2.5005,-2.5005,-2.5005,-2.5005,-2.5005,-2.5005,-2.5005,-2.5005,-2.5005,-2.5005,-2.5005,-2.5005,-2.5005,-2.5005,-2.5005,-2.5005,-2.5005,-2.5118,-2.5174,-2.5145,-2.5168,-2.5165,-2.5124,-2.5159,-2.5174,-2.5174,-2.5313,-2.5244,-2.5118,-2.5005,-2.5005,-2.5005,-2.5118,-2.5061,-2.5005,-2.5118,-2.5061,-2.5005,-2.5005,-2.5005,-2.4693,-2.373,-2.3523,-2.3043,0.0,-2.2515,-2.307,-2.3214,-2.4055,-2.4218,0.0,0.0,-2.278,-2.3109,-2.2698,-2.2964,-2.4067,-2.4055,-2.4028,-2.4104,-2.3992,-2.398,-2.4112,-2.4112,-2.4112,-2.4112,-2.4112,-2.4112,-2.4112,-2.4112,-2.4112,-2.4112,-2.4112,-2.4112,-2.4164,-2.4596,-2.4844,-2.5092,-2.6099,-2.6556,-2.6765,-2.797,-2.9483,-3.0686,-2.9732,-3.042,-3.1211,-3.1434,-3.1022,-3.0645,-3.0586,-2.9776,-2.8974,-2.8438,-2.8111,-2.7811,-2.7549,-2.6961,-2.687,-2.7484,-2.6948,-2.6883,-2.7497,-2.6518,-2.5683,-2.509,-2.4748,-2.4704,-2.5005,-2.4948,-2.5005,-2.5118,-2.5005,-2.5005,-2.5005,-2.5005,-2.5005,-2.5005,-2.5005,-2.5005,-2.5005,-2.5005,-2.5005,-2.5005,-2.5005,-2.5005,-2.5005,-2.5005,-2.5061,-2.5061,-2.5005,-2.5061,-2.5118,-2.5118,-2.5174,-2.5174,-2.5118,-2.5188,-2.5244,-2.5313,-2.5369,-2.5369,-2.5494,-2.5425,-2.5313,-2.5257,-2.5188,-2.5118,-2.5174,-2.5118,-2.5005,-2.5118,-2.5061,-2.5005,-2.5005,-2.4557,-2.3974,-2.327,-2.2804,-2.2474,-2.2264,-2.2886,-2.3564,-2.3987,-2.4639,-2.4747,-2.4096,-2.3282,0.0,-2.3797,-2.3163,-2.3485,-2.4964,-2.5005,-2.4948,-2.4778,-2.4607,-2.4319,-2.4112,-2.4112,-2.4112,-2.4112,-2.4112,-2.4112,-2.4112,-2.4112,-2.4112,-2.4112,-2.4112,-2.4269,-2.453,-2.4844,-2.5288,-2.5824,-2.6438,-2.6844,-2.7105,-3.1061,-3.1061,-3.1061,-3.1061,-3.1211,-3.1347,-3.1421,-3.1347,-3.1101,-3.0613,-3.0335,-2.9758,-2.8752,-2.849,-2.8177,-2.7693,-2.7575,-2.7523,-2.7523,-2.7523,-2.7523,-2.7523,-2.7403,-2.6974,-2.6094,-2.5847,-2.5401,-2.4778,-2.4778,-2.4835,-2.4948,-2.5005,-2.5005,-2.4948,-2.5005,-2.5005,-2.4948,-2.5005,-2.5005,-2.5005,-2.5005,-2.5005,-2.5005,-2.5005,-2.5005,-2.5005,-2.5005,-2.5118,-2.5174,-2.5061,-2.5118,-2.5174,-2.5118,-2.5174,-2.5244,-2.5244,-2.5369,-2.555,-2.555,-2.555,-2.555,-2.5494,-2.5439,-2.5439,-2.5439,-2.53,-2.5174,-2.5286,-2.5174,-2.5075,-2.5075,-2.5061,-2.4951,-2.4761,-2.3892,-2.3121,-2.2931,0.0,-2.2074,-2.3067,-2.339,-2.3906,-2.491,-2.5005,-2.5005,-2.5005,-2.358,-2.3337,-2.4711,-2.35,-2.3365,-2.4738,-2.4948,-2.4948,-2.4778,-2.4478,-2.4247,-2.4112,-2.4112,-2.4112,-2.4112,-2.4112,-2.4112,-2.4112,-2.4112,-2.4112,-2.4112,-2.4112,-2.4452,-2.5035,-2.5066,-2.5746,-2.6687,-2.6765,-2.7105,-2.7523,-3.1123,-3.1373,-3.1535,-3.1535,-3.1522,-3.1596,-3.1817,-3.1508,-3.132,-3.1402,-3.0658,-3.0059,-2.9889,-2.8974,-2.8347,-2.8255,-2.7798,-2.7523,-2.7523,-2.7523,-2.7523,-2.7523,-2.7469,-2.721,-2.662,-2.5713,-2.5051,-2.4523,-2.4721,-2.4778,-2.4835,-2.4948,-2.4948,-2.4835,-2.4948,-2.4948,-2.4835,-2.4948,-2.5005,-2.5005,-2.5005,-2.5005,-2.5005,-2.5005,-2.5061,-2.5174,-2.5061,-2.5118,-2.5174,-2.5174,-2.5174,-2.523,-2.5369,-2.5439,-2.5439,-2.5439,-2.5536,-2.5688,-2.5688,-2.5729,-2.5729,-2.5355,-2.5244,-2.5244,-2.5118,-2.5061,-2.5118,-2.5564,-2.5536,-2.5439,-2.5439,-2.53,-2.4791,-2.3675,-2.3297,-2.2823,-2.1794,0.0,-2.3101,-2.3214,-2.4177,-2.4913,-2.4991,-2.5005,-2.5005,-2.5005,-2.4747,-2.4651,-2.4765,-2.4691,-2.4664,-2.4778,-2.4948,-2.4892,-2.462,-2.4421,-2.4247,-2.4112,-2.4112,-2.4112,-2.4112,-2.4112,-2.4112,-2.4112,-2.4112,-2.4112,-2.4112,-2.4112,-2.4452,-2.5014,-2.5497,-2.6099,-2.6726,-2.7223,-2.7458,-2.7523,-2.9871,-3.0495,-3.0885,-3.0885,-3.136,-3.1743,-3.1743,-3.1669,-3.1582,-3.1434,-3.1048,-3.0506,-2.9876,-2.9254,-2.8677,-2.8103,-2.7747,-2.7523,-2.7523,-2.7523,-2.7523,-2.7523,-2.7523,-2.7118,-2.6229,-2.538,-2.4767,-2.4408,-2.4434,-2.4563,-2.4778,-2.4835,-2.4778,-2.465,-2.4694,-2.4593,-2.4421,-2.4637,-2.4708,-2.4765,-2.4948,-2.5005,-2.5005,-2.5061,-2.5174,-2.5174,-2.5061,-2.5174,-2.5397,-2.5118,-2.5131,-2.5369,-2.5257,-2.5257,-2.5369,-2.5369,-2.5522,-2.5729,-2.5784,-2.5743,-2.5647,-2.5425,-2.5244,-2.5118,-2.5244,-2.5188,-2.523,-2.5619,-2.5592,-2.5494,-2.5369,-2.5244,-2.4996,-2.4272,-2.3595,-2.2986,-2.2431,-2.2926,-2.328,-2.3189,-2.4341,-2.5061,-2.5005,-2.5005,-2.5005,-2.5005,-2.5005,-2.4948,-2.4778,-2.4948,-2.4892,-2.4677,-2.4835,-2.4721,-2.4421,-2.435,-2.4247,-2.4112,-2.4112,-2.4112,-2.4112,-2.4112,-2.4112,-2.4112,-2.4112,-2.4112,-2.4138,-2.4498,-2.497,-2.5484,-2.6123,-2.6699,-2.717,-2.7432,-2.7523,-2.7523,-2.8949,-2.9639,-3.0165,-3.0165,-3.1022,-3.1569,-3.1211,-3.1421,-3.1442,-3.1,-3.0913,-3.0532,-2.9663,-2.9368,-2.8851,-2.8079,-2.7735,-2.7523,-2.7523,-2.7523,-2.7523,-2.7523,-2.7523,-2.6935,-2.5788,-2.5257,-2.4732,-2.4234,-2.4216,-2.439,-2.4778,-2.4778,-2.4664,-2.4452,-2.4452,-2.4292,-2.4073,-2.4292,-2.4452,-2.4509,-2.4765,-2.4948,-2.5005,-2.5118,-2.5174,-2.5118,-2.5005,-2.523,-2.5508,-2.5005,-2.5145,-2.5439,-2.5131,-2.5118,-2.5174,-2.5174,-2.5342,-2.5564,-2.5729,-2.5647,-2.5439,-2.5313,-2.5061,-2.4948,-2.5188,-2.5188,-2.523,-2.5578,-2.5647,-2.5536,-2.5342,-2.5286,-2.5148,-2.4694,-2.3825,-2.3189,-2.3189,-2.3189,-2.3283,-2.3568,-2.4462,-2.5005,-2.5005,-2.5005,-2.5005,-2.5005,-2.5005,-2.4948,-2.4835,-2.4948,-2.4892,-2.462,-2.4664,-2.4536,-2.4292,-2.4247,-2.4203,-2.4112,-2.4112,-2.4112,-2.4112,-2.4112,-2.4112,-2.4112,-2.4112,-2.4112,-2.4164,-2.4906,-2.5424,-2.5876,-2.663,-2.7144,-2.7523,-2.7523,-2.7523,-2.7523,-2.9184,-2.9561,-2.9781,-2.9781,-3.0456,-3.0745,-2.9935,-3.0317,-3.0501,-2.9895,-2.9696,-2.9624,-2.975,-2.9276,-2.8849,-2.8633,-2.8106,-2.7723,-2.7523,-2.7523,-2.7523,-2.7523,-2.7523,-2.6935,-2.5662,-2.566,-2.5197,-2.4131,-2.4434,-2.462,-2.4778,-2.4778,-2.4607,-2.4292,-2.4292,-2.4144,-2.3936,-2.4086,-2.4292,-2.4509,-2.4523,-2.4694,-2.5005,-2.5005,-2.5005,-2.5005,-2.4835,-2.5005,-2.523,-2.5061,-2.5188,-2.5439,-2.5244,-2.5174,-2.5174,-2.5061,-2.5005,-2.5061,-2.523,-2.5369,-2.5369,-2.4708,-2.458,-2.4523,-2.458,-2.4821,-2.5131,-2.5439,-2.5688,-2.5839,-2.5674,-2.5592,-2.5067,-2.3804,-2.34,0.0,-2.3189,-2.3189,-2.3581,-2.4747,-2.4951,-2.5005,-2.5005,-2.5005,-2.5005,-2.5005,-2.5005,-2.5005,-2.5005,-2.5005,-2.4892,-2.462,-2.4421,-2.435,-2.4292,-2.4157,-2.4112,-2.4112,-2.4112,-2.4112,-2.4112,-2.4112,-2.4112,-2.4112,-2.4112,-2.4112,-2.4164,-2.4906,-2.5424,-2.5876,-2.663,-2.7144,-2.7523,-2.7523,-2.7523,-2.7523,-2.7765,-2.8462,-2.8924,-2.8924,-3.0063,-3.082,-3.0519,-3.1071,-3.1476,-3.1103,-3.0699,-3.0249,-3.0017,-2.9373,-2.8744,-2.8385,-2.8344,-2.8118,-2.7549,-2.7863,-2.7902,-2.7549,-2.7523,-2.7091,-2.6309,-2.5881,-2.5309,-2.4681,-2.4341,-2.4274,-2.4478,-2.4478,-2.4376,-2.4157,-2.4157,-2.3982,-2.376,-2.3982,-2.4157,-2.4261,-2.4492,-2.4664,-2.4778,-2.4835,-2.4892,-2.4835,-2.465,-2.4821,-2.5061,-2.4835,-2.4962,-2.5188,-2.5118,-2.5005,-2.4948,-2.4778,-2.4778,-2.4835,-2.4694,-2.4765,-2.4821,-2.458,-2.4363,-2.4319,-2.4465,-2.4765,-2.5061,-2.5188,-2.5522,-2.555,-2.4794,-2.4991,-2.4981,-2.4062,-2.3814,-2.3758,-2.3758,-2.3406,-2.3449,-2.4368,-2.4421,-2.4593,-2.4948,-2.5005,-2.5005,-2.5005,-2.5005,-2.5005,-2.5005,-2.4892,-2.4721,-2.4421,-2.435,-2.4247,-2.4157,-2.4112,-2.4112,-2.4112,-2.4112,-2.4112,-2.4112,-2.4112,-2.4112,-2.4112,-2.4112,-2.438,-2.4866,-2.5554,-2.6184,-2.6717,-2.7377,-2.767,-2.7656,-2.7523,-2.7523,-2.7523,-2.6974,-2.7615,-2.8075,-2.8075,-2.9225,-3.0139,-3.0139,-3.0607,-3.1106,-3.1303,-3.0553,-2.9971,-2.9942,-2.9228,-2.8638,-2.8237,-2.8545,-2.8435,-2.7629,-2.7889,-2.7941,-2.7549,-2.7523,-2.7196,-2.6609,-2.5985,-2.5488,-2.5082,-2.4387,-2.4144,-2.4478,-2.435,-2.4261,-2.4112,-2.4067,-2.3878,-2.3628,-2.3865,-2.3995,-2.4112,-2.4332,-2.4505,-2.462,-2.4677,-2.4721,-2.4593,-2.4465,-2.458,-2.4821,-2.4607,-2.4721,-2.4948,-2.4892,-2.4778,-2.4734,-2.4549,-2.4549,-2.4593,-2.4305,-2.4176,-2.4105,-2.4292,-2.4216,-2.4171,-2.4305,-2.4708,-2.4948,-2.4708,-2.5034,-2.5063,-2.4021,-2.4266,-2.4452,-2.393,-2.4002,-2.4131,-2.4131,-2.3813,-2.3754,-2.4176,-2.4234,-2.4363,-2.4765,-2.4892,-2.4948,-2.4948,-2.5005,-2.5005,-2.5005,-2.4892,-2.4721,-2.4478,-2.4478,-2.4363,-2.4287,-2.4171,-2.4112,-2.4112,-2.4112,-2.4112,-2.4112,-2.4112,-2.4112,-2.4112,-2.4112,-2.4498,-2.5242,-2.6007,-2.664,-2.7227,-2.7839,-2.8,-2.7776,-2.759,-2.7523,-2.7523,-2.7231,-2.7231,-2.7231,-2.7231,-2.7926,-2.8462,-2.8462,-2.8542,-2.8885,-2.9904,-2.8813,-2.8324,-2.9403,-2.8953,-2.8522,-2.83,-2.8665,-2.8571,-2.7828,-2.759,-2.7523,-2.7523,-2.7523,-2.7183,-2.6401,-2.5985,-2.5612,-2.5203,-2.4596,-2.4478,-2.4778,-2.4478,-2.4261,-2.4112,-2.3949,-2.376,-2.3628,-2.3628,-2.3806,-2.4112,-2.4112,-2.4287,-2.462,-2.462,-2.4492,-2.4292,-2.4292,-2.4408,-2.4452,-2.435,-2.4536,-2.4778,-2.462,-2.462,-2.4563,-2.435,-2.4292,-2.4234,-2.4099,-2.3603,-2.328,-2.3923,-2.4112,-2.4054,-2.4054,-2.4563,-2.4765,-2.3975,-2.4297,-2.4456,-2.3644,-2.342,-2.3314,-2.3314,-2.3754,-2.4131,-2.4131,-2.4478,-2.4708,-2.4523,-2.4536,-2.4492,-2.4292,-2.4593,-2.4778,-2.4778,-2.4892,-2.5005,-2.5005,-2.5005,-2.4948,-2.4778,-2.4778,-2.4721,-2.462,-2.4287,-2.4112,-2.4112,-2.4112,-2.4112,-2.4112,-2.4112,-2.4112,-2.4112,-2.4112,-2.4498,-2.5255,-2.6007,-2.664,-2.7304,-2.7853,-2.8,-2.7776,-2.759,-2.7523,-2.7523,-2.7231,-2.7231,-2.7231,-2.7231,-2.7926,-2.8462,-2.8462,-2.9003,-2.9487,-2.9771,-2.9215,-2.8834,-2.9171,-2.8852,-2.8685,-2.8905,-2.9293,-2.9353,-2.8904,-2.7981,-2.7523,-2.7523,-2.7523,-2.7378,-2.7196,-2.6713,-2.6138,-2.5625,-2.5035,-2.461,-2.4287,-2.4216,-2.4157,-2.4112,-2.4067,-2.3995,-2.3936,-2.3936,-2.3995,-2.4112,-2.4112,-2.4171,-2.4229,-2.4229,-2.4229,-2.4157,-2.4157,-2.4216,-2.4216,-2.4292,-2.435,-2.4421,-2.4421,-2.4421,-2.4292,-2.3623,-2.3446,-2.3446,-2.3399,-2.3267,-2.3148,-2.3339,-2.304,-2.2677,-2.2677,-2.3027,-2.3081,-2.2409,-2.336,-2.3966,-2.2748,-2.3702,-2.4452,-2.393,-2.3872,-2.3872,-2.3872,-2.3505,-2.3386,-2.3813,-2.3872,-2.393,-2.393,-2.38,-2.3859,-2.4105,-2.4593,-2.4835,-2.4734,-2.4892,-2.4892,-2.4677,-2.4721,-2.4721,-2.462,-2.4376,-2.4247,-2.4247,-2.4157,-2.4112,-2.4112,-2.4112,-2.4112,-2.4112,-2.4112,-2.484,-2.5993,-2.6228,-2.7019,-2.8201,-2.8143,-2.8079,-2.7947,-2.7603,-2.7523,-2.7523,-2.7231,-2.7231,-2.7231,-2.7231,-2.7615,-2.8075,-2.8462,-2.8621,-2.8851,-2.9224,-2.8586,-2.8091,-2.815,-2.7747,-2.7561,-2.7832,-2.8045,-2.8132,-2.802,-2.7265,-2.6824,-2.704,-2.704,-2.7175,-2.7456,-2.6961,-2.6386,-2.5824,-2.5249,-2.4674,-2.4112,-2.4112,-2.4112,-2.4112,-2.4112,-2.4112,-2.4112,-2.4112,-2.4112,-2.4112,-2.4112,-2.4112,-2.4112,-2.4112,-2.4112,-2.4112,-2.4112,-2.4112,-2.4112,-2.4203,-2.4203,-2.4203,-2.4203,-2.4203,-2.4144,-2.3649,-2.3471,-2.3471,-2.3471,-2.328,-2.3027,-2.2774,-2.2786,-2.2859,-2.2859,-2.3148,-2.3043,-2.1916,-2.2979,-2.358,-2.2009,-2.3063,-2.3917,-2.3148,-2.3135,-2.3182,-2.3182,-2.2688,-2.2506,-2.3195,-2.3015,-2.2834,-2.2834,-2.3075,-2.3446,-2.406,-2.4478,-2.4677,-2.462,-2.4778,-2.4835,-2.4677,-2.4778,-2.4835,-2.4778,-2.4593,-2.4478,-2.4421,-2.4332,-2.4287,-2.4287,-2.4287,-2.4287,-2.4287,-2.4287,-2.511,-2.6444,-2.6444,-2.7265,-2.8587,-2.8262,-2.8131,-2.7934,-2.7603,-2.7403,-2.7188,-2.7231,-2.7231,-2.7208,-2.7092,-2.708,-2.7371,-2.8092,-2.7556,-2.7289,-2.8209,-2.7179,-2.6462,-2.66,-2.6144,-2.5836,-2.5886,-2.5886,-2.5954,-2.6094,-2.5778,-2.5849,-2.6346,-2.6414,-2.6769,-2.7456,-2.7013,-2.6438,-2.5824,-2.5301,-2.4726,-2.4112,-2.4112,-2.4112,-2.4112,-2.4112,-2.4112,-2.4112,-2.4112,-2.4112,-2.4112,-2.4112,-2.4112,-2.4112,-2.4112,-2.4112,-2.4112,-2.4112,-2.4112,-2.4112,-2.4112,-2.4112,-2.4112,-2.4112,-2.4112,-2.4112,-2.4054,-2.3995,-2.3995,-2.3923,-2.3484,-2.2834,-2.2224,-2.3053,-2.3865,-2.3747,-2.3943,-2.3632,-2.1987,-2.2698,-2.3018,-2.1368,-2.1874,-2.2347,-2.1565,-2.1916,-2.2274,-2.2274,-2.2003,-2.1992,-2.264,-2.2101,-2.1616,-2.1514,-2.2482,-2.3518,-2.4376,-2.4492,-2.4563,-2.4563,-2.4734,-2.4778,-2.4778,-2.4892,-2.4948,-2.4948,-2.4835,-2.4734,-2.462,-2.462,-2.4549,-2.462,-2.4549,-2.4549,-2.462,-2.4616,-2.54,-2.658,-2.6633,-2.7382,-2.8522,-2.83,-2.8039,-2.7789,-2.7523,-2.7188,-2.6714,-2.7231,-2.7231,-2.7023,-2.6531,-2.6382,-2.6325,-2.5915,-2.5712,-2.5667,-2.5842,-2.5751,-2.576,-2.5777,-2.579,-2.5984,-2.6473,-2.651,-2.6429,-2.6347,-2.5849,-2.5849,-2.6346,-2.6414,-2.6769,-2.7456,-2.7406,-2.6844,-2.5824,-2.5694,-2.5118,-2.4112,-2.4112,-2.4112,-2.4112,-2.4112,-2.4112,-2.4112,-2.4112,-2.4112,-2.4112,-2.4112,-2.4112,-2.4112,-2.4112,-2.4112,-2.4112,-2.4112,-2.4112,-2.4112,-2.4112,-2.4112,-2.4112,-2.4112,-2.4112,-2.3995,-2.3471,-2.3339,-2.322,-2.2665,-2.2421,-2.2286,-2.2163,-2.2298,-2.2237,-2.1198,-2.1008,-2.0859,-2.0121,-2.0993,-2.1528,-2.0668,-2.1522,-2.2237,-2.1918,-2.1856,-2.193,-2.193,-2.1768,-2.1729,-2.1854,-2.2274,-2.2396,-2.199,-2.2811,-2.3305,-2.3195,-2.393,-2.4363,-2.4363,-2.4549,-2.462,-2.462,-2.4677,-2.4677,-2.4677,-2.4677,-2.4677,-2.4721,-2.4478,-2.4421,-2.4607,-2.4421,-2.4421,-2.4647,-2.4925,-2.5595,-2.6409,-2.6688,-2.7362,-2.821,-2.7987,-2.7776,-2.7523,-2.7403,-2.7134,-2.6943,-2.6702,-2.6428,-2.6098,-2.5746,-2.5701,-2.5532,-2.5195,-2.5083,-2.5004,-2.4692,-2.4729,-2.4671,-2.4346,-2.4438,-2.4657,-2.5072,-2.518,-2.5107,-2.49,-2.5075,-2.5346,-2.5861,-2.5861,-2.6208,-2.6973,-2.6973,-2.6762,-2.6229,-2.5955,-2.538,-2.4517,-2.4243,-2.4112,-2.4112,-2.4112,-2.4112,-2.4112,-2.4112,-2.4112,-2.4112,-2.4112,-2.4112,-2.4112,-2.4112,-2.4112,-2.4112,-2.4112,-2.4112,-2.4054,-2.3734,-2.3865,-2.4112,-2.4112,-2.4112,-2.4054,-2.3662,-2.3603,-2.3412,-2.2786,-2.2592,-2.2408,-2.1803,-2.1616,-2.1491,-2.1123,-2.1071,-2.0859,-2.0059,-2.0756,-2.1304,-2.0373,-2.1178,-2.1818,-2.1307,-2.1118,-2.1055,-2.1055,-2.1014,-2.1101,-2.1553,-2.1978,-2.2163,-2.1865,-2.1928,-2.1978,-2.2212,-2.2688,-2.3002,-2.3015,-2.3182,-2.3229,-2.3229,-2.3348,-2.3348,-2.3348,-2.3348,-2.3408,-2.3467,-2.4105,-2.4492,-2.4607,-2.4421,-2.435,-2.4461,-2.4554,-2.5249,-2.6224,-2.6412,-2.7131,-2.8079,-2.8,-2.7736,-2.7403,-2.7335,-2.7011,-2.6615,-2.6029,-2.5521,-2.5049,-2.4882,-2.487,-2.4848,-2.4681,-2.467,-2.4448,-2.3908,-2.3863,-2.3622,-2.3045,-2.3001,-2.315,-2.3298,-2.3519,-2.3593,-2.3446,-2.4154,-2.4719,-2.5158,-2.5158,-2.5511,-2.6208,-2.6208,-2.6168,-2.6181,-2.578,-2.5273,-2.4671,-2.4144,-2.3995,-2.4112,-2.4112,-2.4112,-2.4112,-2.4112,-2.4112,-2.4112,-2.4112,-2.4112,-2.4112,-2.4112,-2.4112,-2.4112,-2.4112,-2.4112,-2.3995,-2.3471,-2.3662,-2.4112,-2.4112,-2.4112,-2.4054,-2.3923,-2.3865,-2.3734,-2.3088,-2.2786,-2.2408,-2.1376,-2.1071,-2.1198,-2.1678,-2.1741,-2.1424,-2.046,-2.0887,-2.1112,-2.0126,-2.0637,-2.091,-2.0204,-2.0074,-2.0074,-2.0074,-2.0074,-2.0333,-2.1112,-2.1302,-2.1491,-2.1628,-2.0974,-2.091,-2.1616,-2.1655,-2.1655,-2.1678,-2.1768,-2.1806,-2.1744,-2.1844,-2.1906,-2.1918,-2.1918,-2.1918,-2.1968,-2.3522,-2.421,-2.4176,-2.408,-2.406,-2.4099,-2.409,-2.4772,-2.5842,-2.6024,-2.6736,-2.7802,-2.7947,-2.7683,-2.7268,-2.7201,-2.6807,-2.6201,-2.5262,-2.5206,-2.4859,-2.4117,-2.3963,-2.3678,-2.2886,-2.2746,-2.2724,-2.266,-2.28,-2.2853,-2.2777,-2.3075,-2.3372,-2.3519,-2.374,-2.3824,-2.3824,-2.3959,-2.4166,-2.4492,-2.4492,-2.4779,-2.5453,-2.5453,-2.5014,-2.4128,-2.4641,-2.4393,-2.3394,-2.3245,-2.3531,-2.4112,-2.4112,-2.4112,-2.4112,-2.4112,-2.4112,-2.4112,-2.4112,-2.4112,-2.4112,-2.4112,-2.4112,-2.4112,-2.4112,-2.4112,-2.4112,-2.3995,-2.4054,-2.4112,-2.4112,-2.4112,-2.3923,-2.3207,-2.2955,-2.2834,-2.2237,-2.1479,-2.0974,-2.106,-2.1008,-2.0839,-2.0453,-2.0259,-2.0096,-1.9781,-1.9683,-1.9573,-1.9312,-1.9354,-1.9386,-1.9264,-1.9264,-1.9264,-1.9264,-1.9264,-1.933,-1.9386,-2.0215,-2.1037,-2.1815,-2.1753,-2.1803,-2.1978,-2.1928,-2.1877,-2.1877,-2.1877,-2.1803,-2.1604,-2.1643,-2.1631,-2.1667,-2.1667,-2.1667,-2.1678,-2.2495,-2.2698,-2.236,-2.2773,-2.3067,-2.3242,-2.414,-2.4627,-2.4872,-2.5927,-2.6488,-2.6701,-2.7323,-2.7469,-2.7268,-2.693,-2.6658,-2.6396,-2.4393,-2.4128,-2.3797,-2.3275,-2.3167,-2.3015,-2.251,-2.2402,-2.2402,-2.2402,-2.2553,-2.2703,-2.2703,-2.3075,-2.3457,-2.3751,-2.3824,-2.3897,-2.3897,-2.4166,-2.436,-2.4409,-2.4409,-2.4492,-2.4791,-2.4791,-2.4143,-2.2718,-2.4096,-2.4545,-2.4124,-2.3816,-2.3793,-2.4112,-2.4112,-2.4112,-2.4112,-2.4112,-2.4112,-2.4054,-2.3675,-2.3531,-2.3471,-2.3113,-2.3233,-2.3531,-2.3531,-2.3793,-2.4054,-2.3662,-2.3793,-2.4054,-2.3662,-2.3471,-2.322,-2.2543,-2.2224,-2.1978,-2.1353,-2.1239,-2.1175,-2.056,-2.0688,-2.0828,-2.027,-2.0009,-1.9868,-1.9813,-1.9681,-1.9539,-1.9274,-1.9208,-1.9208,-1.9208,-1.9142,-1.9142,-1.9208,-1.9518,-2.002,-2.0602,-2.0741,-2.0944,-2.1325,-2.088,-2.0613,-2.0677,-2.0677,-2.0624,-2.0624,-2.0624,-2.0549,-2.0291,-2.0344,-2.0279,-2.0215,-2.0555,-2.0962,-2.1354,-2.203,-2.2379,-2.2333,-2.287,-2.3108,-2.3221,-2.3534,-2.4196,-2.4995,-2.5558,-2.6277,-2.704,-2.739,-2.7335,-2.7079,-2.6726,-2.6521,-2.6465]}]]